[[{"header":{"parameterUnit":"m.s-1","parameterCategory":1,"la1":30.6,"la2":29.2853,"lo1":-89.7004,"lo2":-87.6739,"dy":0.0162,"dx":0.0183,"nx":112,"ny":82,"refTime":"2024-08-31T00:00:00:Z","depth":0,"parameterNumber":2,"parameterNumberName":"U-component_of_WINDS"},"data":[0.0,0.0,0.0,0.0,0.0,0.0,0.0,0.0,0.0,0.0,0.0,0.0,0.0,0.0,0.0,0.0,0.0,0.0,0.0,0.0,0.0,0.0,0.0,0.0,0.0,0.0,0.0,0.0,0.0,0.0,0.0,0.0,0.0,0.0,0.0,0.0,0.0,0.0,0.0,0.0,0.0,0.0,0.0,0.0,0.0,0.0,0.0,0.0,0.0,0.0,0.0,0.0,0.0,0.0,0.0,0.0,0.0,0.0,0.0,0.0,0.0,0.0,0.0,0.0,0.0,0.0,0.0,0.0,0.0,0.0,0.0,0.0,0.0,0.0,0.0,0.0,0.0,0.0,0.0,0.0,0.0,0.0,0.0,0.0,0.0,0.0,0.0,0.0,0.0,0.0,-0.0128,-0.0768,-0.1429,-0.141,-0.0353,0.0573,0.1092,0.1115,0.0,0.0,0.0,0.0,0.0,0.0,0.0,0.0,0.0,0.0,0.0,0.0,0.0,0.0,0.0,0.0,0.0,0.0,0.0,0.0,0.0,0.0,0.0,0.0,0.0,0.0,0.0,0.0,0.0,0.0,0.0,0.0,0.0,0.0,0.0,0.0,0.0,0.0,0.0,0.0,0.0,0.0,0.0,0.0,0.0,0.0,0.0,0.0,0.0,0.0,0.0,0.0,0.0,0.0,0.0,0.0,0.0,0.0,0.0,0.0,0.0,0.0,0.0,0.0,0.0,0.0,0.0,0.0,0.0,0.0,0.0,0.0,0.0,0.0,0.0,0.0,0.0,0.0,0.0,0.0,0.0,0.0,0.0,0.0,0.0,0.0,0.0,0.0,0.0,0.0,0.0,0.0,0.0,0.0,0.0,0.0,0.0,0.0,0.0,0.0,0.0,0.0,0.0,0.0,-0.1662,-0.2582,-0.28,-0.2462,-0.145,-0.1202,-0.0464,0.1012,0.0,0.0,0.0,0.0,0.0,0.0,0.0,0.0,0.0,0.0,0.0,0.0,0.0,0.0,0.0,0.0,0.0,0.0,0.0,0.0,0.0,0.0,0.0,0.0,0.0,0.0,0.0,0.0,0.0,0.0,0.0,0.0,0.0,0.0,0.0,0.0,0.0,0.0,0.0,0.0,0.0,0.0,0.0,0.0,0.0,0.0,0.0,0.0,0.0,0.0,0.0,0.0,0.0,0.0,0.0,0.0,0.0,0.0,0.0,0.0,0.0,0.0,0.0,0.0,0.0,0.0,0.0,0.0,0.0,0.0,0.0,0.0,0.0,0.0,0.0,0.0,0.0,0.0,0.0,0.0,0.0,0.0,0.0,0.0,0.0,0.0,0.0,0.0,0.0,0.0,0.0,0.0,0.0,0.0,0.0,0.0,0.0,0.0,0.0,0.0,0.0,0.0,0.0,-0.2961,-0.324,-0.3886,-0.3958,-0.3554,-0.2501,-0.2356,-0.174,-0.0438,0.0697,0.0,0.0,0.0,0.0,0.0,0.0,0.0,0.0,0.0,0.0,0.0,0.0,0.0,0.0,0.0,0.0,0.0,0.0,0.0,0.0,0.0,0.0,0.0,0.0,0.0,0.0,0.0,0.0,0.0,0.0,0.0,0.0,0.0,0.0,0.0,0.0,0.0,0.0,0.0,0.0,0.0,0.0,0.0,0.0,0.0,0.0,0.0,0.0,0.0,0.0,0.0,0.0,0.0,0.0,0.0,0.0,0.0,0.0,0.0,0.0,0.0,0.0,0.0,0.0,0.0,0.0,0.0,0.0,0.0,0.0,0.0,0.0,0.0,0.0,0.0,0.0,0.0,0.0,0.0,0.0,0.0,0.0,0.0,0.0,0.0,0.0,0.0,0.0,0.0,0.0,0.0,0.0,0.0,0.0,0.0,0.0,0.0,0.0,0.0,0.0,0.0,0.0,-0.4461,-0.474,-0.5046,-0.5079,-0.4647,-0.3552,-0.3159,-0.2574,-0.1648,-0.0773,0.0,0.0,0.0,0.0,0.0,0.0,0.0,0.0,0.0,0.0,0.0,0.0,0.0,0.0,0.0,0.0,0.0,0.0,0.0,0.0,0.0,0.0,0.0,0.0,0.0,0.0,0.0,0.0,0.0,0.0,0.0,0.0,0.0,0.0,0.0,0.0,0.0,0.0,0.0,0.0,0.0,0.0,0.0,0.0,0.0,0.0,0.0,0.0,0.0,0.0,0.0,0.0,0.0,0.0,0.0,0.0,0.0,0.0,0.0,0.0,0.0,0.0,0.0,0.0,0.0,0.0,0.0,0.0,0.0,0.0,0.0,0.0,0.0,0.0,0.0,0.0,0.0,0.0,0.0,0.0,0.0,0.0,0.0,0.0,0.0,0.0,0.0,0.0,0.0,0.0,0.0,0.0,0.0,0.0,0.0,0.0,0.0,0.0,0.0,0.0,0.0,0.0,-0.5164,-0.5952,-0.6163,-0.6183,-0.5747,-0.4686,-0.3657,-0.2663,-0.1679,-0.0613,0.0,0.0,0.0,0.0,0.0,0.0,0.0,0.0,0.0,0.0,0.0,0.0,0.0,0.0,0.0,0.0,0.0,0.0,0.0,0.0,0.0,0.0,0.0,0.0,0.0,0.0,0.0,0.0,0.0,0.0,0.0,0.0,0.0,0.0,0.0,0.0,0.0,0.0,0.0,0.0,0.0,0.0,0.0,0.0,0.0,0.0,0.0,0.0,0.0,0.0,0.0,0.0,0.0,0.0,0.0,0.0,0.0,0.0,0.0,0.0,0.0,0.0,0.0,0.0,0.0,0.0,0.0,0.0,0.0,0.0,0.0,0.0,0.0,0.0,0.0,0.0,0.0,0.0,0.0,0.0,0.0,0.0,0.0,0.0,0.0,0.0,0.0,0.0,0.0,0.0,0.0,0.0,0.0,0.0,0.0,0.0,0.0,0.0,0.0,0.0,0.0,0.0,-0.5492,-0.5983,-0.6272,-0.63,-0.6141,-0.5747,-0.4628,-0.3578,-0.2586,0.0,0.0,0.0,0.0,0.0,0.0,0.0,0.0,0.0,0.0,0.0,0.0,0.0,0.0,0.0,0.0,0.0,0.0,0.0,0.0,0.0,0.0,0.0,0.0,0.0,0.0,0.0,0.0,0.0,0.0,0.0,0.0,0.0,0.0,0.0,0.0,0.0,0.0,0.0,0.0,0.0,0.0,0.0,0.0,0.0,0.0,0.0,0.0,0.0,0.0,0.0,0.0,0.0,0.0,0.0,0.0,0.0,0.0,0.0,0.0,0.0,0.0,0.0,0.0,0.0,0.0,0.0,0.0,0.0,0.0,0.0,0.0,0.0,0.0,0.0,0.0,0.0,0.0,0.0,0.0,0.0,0.0,0.0,0.0,0.0,0.0,0.0,0.0,0.0,0.0,0.0,0.0,0.0,0.0,0.0,0.0,0.0,0.0,0.0,0.0,0.0,0.0,-0.5229,-0.574,-0.6027,-0.6276,-0.63,-0.63,-0.63,-0.493,-0.3795,-0.3125,0.0,0.0,0.0,0.0,0.0,0.0,0.0,0.0,0.0,0.0,0.0,0.0,0.0,0.0,0.0,0.0,0.0,0.0,0.0,0.0,0.0,0.0,0.0,0.0,0.0,0.0,0.0,0.0,0.0,0.0,0.0,0.0,0.0,0.0,0.0,0.0,0.0,0.0,0.0,0.0,0.0,0.0,0.0,0.0,0.0,0.0,0.0,0.0,0.0,0.0,0.0,0.0,0.0,0.0,0.0,0.0,0.0,0.0,0.0,0.0,0.0,0.0,0.0,0.0,0.0,0.0,0.0,0.0,0.0,0.0,0.0,0.0,0.0,0.0,0.0,0.0,0.0,0.0,0.0,0.0,0.0,0.0,0.0,0.0,0.0,0.0,0.0,0.0,0.0,0.0,0.0,0.0,0.0,0.0,0.0,0.0,0.0,0.0,0.0,0.0,0.0,0.0,-0.5193,-0.5924,-0.63,-0.6303,-0.63,-0.63,-0.63,-0.431,-0.3073,0.0,0.0,0.0,0.0,0.0,0.0,0.0,0.0,0.0,0.0,0.0,0.0,0.0,0.0,0.0,0.0,0.0,0.0,0.0,0.0,0.0,0.0,0.0,0.0,0.0,0.0,0.0,0.0,0.0,0.0,0.0,0.0,0.0,0.0,0.0,0.0,0.0,0.0,0.0,0.0,0.0,0.0,0.0,0.0,0.0,0.0,0.0,0.0,0.0,0.0,0.0,0.0,0.0,0.0,0.0,0.0,0.0,0.0,0.0,0.0,0.0,0.0,0.0,0.0,0.0,0.0,0.0,0.0,0.0,0.0,0.0,0.0,0.0,0.0,0.0,0.0,0.0,0.0,0.0,0.0,0.0,0.0,0.0,0.0,0.0,0.0,0.0,0.0,0.0,0.0,0.0,0.0,0.0,0.0,0.0,0.0,0.0,0.0,0.0,0.0,0.0,0.0,0.0,-0.5433,-0.5992,-0.6337,-0.6439,-0.5683,-0.5157,-0.5157,-0.3267,-0.2044,-0.2049,0.0,0.0,0.0,0.0,0.0,0.0,0.0,0.0,0.0,0.0,0.0,0.0,0.0,0.0,0.0,0.0,0.0,0.0,0.0,0.0,0.0,0.0,0.0,0.0,0.0,0.0,0.0,0.0,0.0,0.0,0.0,0.0,0.0,0.0,0.0,0.0,0.0,0.0,0.0,0.0,0.0,0.0,0.0,0.0,0.0,0.0,0.0,0.0,0.0,0.0,0.0,0.0,0.0,0.0,0.0,0.0,0.0,0.0,0.0,0.0,0.0,0.0,0.0,0.0,0.0,0.0,0.0,0.0,0.0,0.0,0.0,0.0,0.0,0.0,0.0,0.0,0.0,0.0,0.0,0.0,0.0,0.0,0.0,0.0,0.0,0.0,0.0,0.0,0.0,0.0,0.0,0.0,0.0,0.0,0.0,0.0,0.0,0.0,0.0,0.0,0.0,0.0,-0.5497,-0.6067,-0.6258,-0.5898,-0.5195,-0.458,-0.4103,-0.2542,-0.1599,-0.1615,0.0,0.0,0.0,0.0,0.0,0.0,0.0,0.0,0.0,0.0,0.0,0.0,0.0,0.0,0.0,0.0,0.0,0.0,0.0,0.0,0.0,0.0,0.0,0.0,0.0,0.0,0.0,0.0,0.0,0.0,0.0,0.0,0.0,0.0,0.0,0.0,0.0,0.0,0.0,0.0,0.0,0.0,0.0,0.0,0.0,0.0,0.0,0.0,0.0,0.0,0.0,0.0,0.0,0.0,0.0,0.0,0.0,0.0,0.0,0.0,0.0,0.0,0.0,0.0,0.0,0.0,0.0,0.0,0.0,0.0,0.0,0.0,0.0,0.0,0.0,0.0,0.0,0.0,0.0,0.0,0.0,0.0,0.0,0.0,0.0,0.0,0.0,0.0,0.0,0.0,0.0,0.0,0.0,0.0,0.0,0.0,0.0,0.0,0.0,0.0,0.0,0.0,-0.548,-0.6153,-0.6077,-0.5049,-0.4829,-0.4254,-0.3062,-0.2026,-0.1463,-0.1452,0.0,0.0,0.0,0.0,0.0,0.0,0.0,0.0,0.0,0.0,0.0,0.0,0.0,0.0,0.0,0.0,0.0,0.0,0.0,0.0,0.0,0.0,0.0,0.0,0.0,0.0,0.0,0.0,0.0,0.0,0.0,0.0,0.0,0.0,0.0,0.0,0.0,0.0,0.0,0.0,0.0,0.0,0.0,0.0,0.0,0.0,0.0,0.0,0.0,0.0,0.0,0.0,0.0,0.0,0.0,0.0,0.0,0.0,0.0,0.0,-0.0387,-0.065,0.0,0.0,0.0,0.0,0.0,0.0,0.0,0.0,0.0,0.0,0.0,0.0,0.0,0.0,0.0,0.0,0.0,0.0,0.0,0.0,0.0,0.0,0.0,0.0,0.0,0.0,0.0,0.0,0.0,0.0,0.0,0.0,0.0,0.0,0.0,0.0,0.0,0.0,0.0,0.0,-0.5663,-0.6176,-0.6109,-0.5181,-0.4257,-0.3233,-0.2014,-0.0964,-0.0331,-0.0349,0.0415,0.0,0.0,0.0,0.0,0.0,0.0,0.0,0.0,0.0,0.0,0.0,0.0,0.0,0.0,0.0,0.0,0.0,0.0,0.0,0.0,0.0,0.0,0.0,0.0,0.0,0.0,0.0,0.0,0.0,0.0,0.0,0.0,0.0,0.0,0.0,0.0,0.0,0.0,0.0,0.0,0.0,0.0,0.0,0.0,0.0,0.0,0.0,0.0,0.0,0.0,0.0,0.0,0.0,0.0,0.0,0.0,0.0,0.0,0.0,-0.0273,-0.0191,0.0,0.0,0.0,0.0,0.0,0.0,0.0,0.0,0.0,0.0,0.0,0.0,0.0,0.0,0.0,0.0,0.0,0.0,0.0,0.0,0.0,0.0,0.0,0.0,0.0,0.0,0.0,0.0,0.0,0.0,0.0,0.0,0.0,0.0,0.0,0.0,0.0,0.0,0.0,0.0,-0.5854,-0.6366,-0.6116,-0.4531,-0.386,-0.2781,-0.0977,-0.0315,0.0226,0.0752,0.1024,0.0,0.0,0.0,0.0,0.0,0.0,0.0,0.0,0.0,0.0,0.0,0.0,0.0,0.0,0.0,0.0,0.0,0.0,0.0,0.0,0.0,0.0,0.0,0.0,0.0,0.0,0.0,0.0,0.0,0.0,0.0,0.0,0.0,0.0,0.0,0.0,0.0,0.0,0.0,0.0,0.0,0.0,0.0,0.0,0.0,0.0,0.0,0.0,0.0,0.0,0.0,0.0,0.0,-0.4,-0.4014,-0.4014,-0.4014,-0.3401,-0.2288,-0.0944,-0.0227,0.0074,0.0779,0.0,0.0,0.0,0.0,0.0,0.0,0.0,0.0,0.0,0.0,0.0,0.0,0.0,0.0,0.0,0.0,0.0,0.0,0.0,0.0,0.0,0.0,-0.2863,-0.2901,-0.4394,-0.567,-0.5032,0.0,0.0,0.0,0.0,0.0,0.0,0.0,0.0,0.0,0.0,0.0,-0.627,-0.6854,-0.6279,-0.3873,-0.3602,-0.2605,-0.0206,0.0,0.0388,0.1257,0.1478,0.2175,0.0,0.0,0.0,0.0,0.0,0.0,0.0,0.0,0.0,0.0,0.0,0.0,0.0,0.0,0.0,0.0,0.0,0.0,0.0,0.0,0.0,0.0,0.0,0.0,0.0,0.0,0.0,0.0,0.0,0.0,0.0,0.0,0.3231,0.3669,0.0,0.0,0.0,0.0,0.0,0.0,0.0,0.0,0.0,0.0,0.0,0.0,0.0,-0.357,-0.3725,-0.374,-0.3811,-0.3999,-0.4012,-0.3987,-0.3987,-0.3987,-0.3901,-0.3676,-0.2313,0.0,0.0039,0.0789,0.0,0.0,0.0,0.0,0.0,0.0,0.0,0.0,0.0,0.0,0.0,0.0,0.0,0.0,0.0,0.0,0.0,0.0,0.0,0.0,0.0,0.0,-0.1983,-0.2721,-0.4089,-0.5155,-0.4941,-0.5199,-0.5654,-0.631,-0.632,-0.6354,0.0,0.0,0.0,0.0,0.0,0.0,-0.7618,-0.8089,-0.72,-0.3945,-0.3589,-0.2638,-0.0216,0.0,0.008,0.0195,0.1661,0.2614,0.2852,0.3972,0.0,0.0,0.0,0.0,0.0,0.0,0.0,0.0,0.0,0.0,0.0,0.0,0.0,0.0,0.0,0.0,0.0,0.0,0.0,0.0,0.0,0.0,0.0,0.0,0.0,0.0,0.0,0.0,0.0,0.2449,0.2019,0.1497,0.0139,-0.0899,0.0,0.0,0.0,0.0,0.0,0.0,0.0,0.0,0.0,-0.3219,-0.3817,-0.4548,-0.5415,-0.5415,-0.5759,-0.6513,-0.6523,-0.6522,-0.652,-0.6454,-0.6025,-0.5273,-0.4532,-0.308,-0.1026,0.0043,0.029,0.0234,0.0,0.0,0.0,0.0,0.6159,0.6184,0.6542,0.6586,0.6214,0.4863,0.0,0.0,0.0,0.0,0.0,0.0,0.0,-0.0081,-0.0462,-0.0566,-0.0896,-0.2003,-0.2706,-0.3536,-0.4972,-0.5955,-0.6734,-0.7398,-0.8123,-0.8623,-0.8671,-0.9637,0.0,0.0,0.0,-1.0242,-0.9208,-0.9061,-0.7661,-0.397,-0.3587,-0.2633,-0.0218,0.0,0.0251,0.0857,0.1519,0.245,0.3649,0.4145,0.4563,0.0,0.0,0.0,0.0,0.0,0.0,0.0,0.0,0.0,0.0,0.0,0.0,0.0,0.0,0.0,0.0,0.0,0.0,0.0,0.0,0.0,0.0,0.0,0.0,0.0,0.0,0.0,0.0,0.0166,-0.0811,-0.1822,-0.3542,-0.459,0.0,0.0,0.0,0.0,0.0,0.0,-0.4657,-0.4657,-0.4665,-0.4774,-0.5118,-0.585,-0.701,-0.7013,-0.7531,-0.8482,-0.8482,-0.8482,-0.8479,-0.8374,-0.7798,-0.685,-0.6353,-0.4752,-0.2438,-0.1082,-0.0314,0.0172,0.1985,0.2933,0.3496,0.5586,0.6288,0.6305,0.6757,0.659,0.5886,0.4561,0.3548,0.257,0.1239,0.0,0.0,0.0,0.0,0.0085,0.0407,0.0595,0.0507,-0.0143,-0.0769,-0.182,-0.4175,-0.5879,-0.7299,-0.8485,-1.0049,-1.1171,-1.1132,-1.2584,0.0,-1.3074,-1.3243,-1.2914,-1.1432,-1.0684,-0.871,-0.4582,-0.3864,-0.268,-0.022,0.0,0.0345,0.1144,0.1305,0.211,0.3697,0.3732,0.3974,0.4492,0.0,0.0,0.0,0.0,0.0,0.0,0.0,0.0,0.0,0.0,0.0,0.0,0.0,0.0,0.0,0.0,0.0,0.0,0.0,0.0,0.0,0.0,0.0,0.0,0.0,0.0,0.0,0.0,0.0,-0.6138,-0.911,0.0,0.0,0.0,0.0,-0.8203,-0.6848,-0.6185,-0.6454,-0.6428,-0.6377,-0.6364,-0.7633,-0.8334,-0.8416,-0.8416,-0.842,-0.8482,-0.8482,-0.8482,-0.8482,-0.8476,-0.8469,-0.8312,-0.7034,-0.5549,-0.3998,-0.2491,-0.1144,0.0092,0.1239,0.2442,0.3735,0.5003,0.5453,0.5466,0.5634,0.4718,0.333,0.2309,0.1141,0.0184,0.009,0.0044,0.0,0.0,0.0,0.0278,0.1591,0.1899,0.2201,0.3438,0.1748,-0.0449,-0.1895,-0.4242,-0.6964,-1.0047,-1.257,-1.4385,-1.5091,0.0,-1.7037,-1.702,-1.7234,-1.6673,-1.4644,-1.3529,-1.102,-0.6113,-0.4491,-0.2739,-0.0225,0.0,0.0044,0.0087,0.1017,0.1629,0.1754,0.2516,0.2923,0.2809,0.3383,0.0,0.0,0.0,0.0,0.0,0.0,0.0,0.0,0.0,0.0,0.0,0.0,0.0,0.0,0.0,0.0,0.0,0.0,0.0,0.0,0.0,0.0,0.0,0.0,0.0,0.0,0.0,0.0,-1.2283,-1.4123,0.0,-1.455,-1.4122,-1.3793,-1.3554,-1.2349,-1.169,-1.185,-1.0159,-0.9268,-0.9334,-0.8982,-0.8821,-0.8968,-0.9011,-0.9059,-0.9059,-0.9016,-0.8968,-0.8961,-0.8716,-0.8628,-0.8568,-0.7032,-0.5565,-0.4078,-0.2601,-0.1222,0.01,0.1394,0.2163,0.2705,0.4035,0.4483,0.4487,0.4565,0.4212,0.3564,0.2331,0.1039,0.0,0.0,0.0,0.0,0.0,0.0633,0.1421,0.1887,0.3285,0.4285,0.3011,0.266,0.1502,-0.2454,-0.4702,-0.6851,-0.9723,-1.2056,-1.3969,-1.5148,-1.7392,-1.8871,-1.8289,-1.9006,-1.8727,-1.6276,-1.4436,-1.138,-0.6241,-0.454,-0.275,-0.0229,0.0,0.0313,0.1,0.0723,0.1168,0.2501,0.223,0.2322,0.283,0.3581,0.3857,0.0,0.0,0.0,0.0,0.0,0.0,0.0,0.0,0.0,0.0,0.0,0.0,0.0,0.0,0.0,0.0,0.0,0.0,0.0,0.0,0.0,0.0,0.0,0.0,0.0,-1.505,-1.7286,-1.8501,-2.0018,-2.0891,-2.0525,-2.0104,-1.987,-1.9823,-1.823,-1.7091,-1.6785,-1.4118,-1.2184,-1.121,-1.0354,-0.9691,-0.9286,-0.8804,-0.8555,-0.8555,-0.7939,-0.7609,-0.7603,-0.7385,-0.7257,-0.7249,-0.6139,-0.4843,-0.3429,-0.2492,-0.1233,0.0106,0.0996,0.1608,0.2102,0.3021,0.3326,0.3273,0.2797,0.2639,0.2484,0.1614,0.0706,0.0,0.0,0.0303,0.0656,0.0656,0.1662,0.2765,0.3217,0.4321,0.4972,0.3668,0.3316,0.2107,-0.2354,-0.4401,-0.6239,-0.9395,-1.1826,-1.3795,-1.5173,-1.749,-1.9118,-1.9012,-2.0057,-1.9947,-1.7368,-1.5381,-1.219,-0.7017,-0.4914,-0.28,-0.0232,0.0,0.0317,0.1011,0.0385,0.0629,0.1991,0.14,0.1322,0.1912,0.2749,0.3082,0.2923,0.0,0.0,0.0,0.0,0.0,0.0,0.0,0.0,0.0,0.0,0.0,0.0,0.0,0.0,0.0,0.0,0.0,0.0,0.0,0.0,0.0,0.0,0.0,-1.9003,-2.0294,-2.2258,-2.4532,-2.6812,-2.7653,-2.6163,-2.6761,-2.7064,-2.6687,-2.4158,-2.2074,-2.0871,-1.8107,-1.5154,-1.2117,-1.1901,-1.1047,-0.9501,-0.7799,-0.6922,-0.6922,-0.5278,-0.4516,-0.4516,-0.4513,-0.4513,-0.4508,-0.4437,-0.3608,-0.2176,-0.2142,-0.1277,0.0,0.0,0.0746,0.186,0.186,0.186,0.1644,0.0366,-0.0052,-0.0052,0.0,0.0,0.0,0.0,0.096,0.2017,0.2017,0.302,0.4375,0.5636,0.4977,0.432,0.5529,0.382,0.1155,-0.155,-0.3156,-0.5211,-0.9099,-1.1895,-1.3975,-1.5334,-1.6567,-1.7819,-1.9152,-2.0342,0.0,-1.7863,-1.6374,-1.352,-0.8376,-0.5538,-0.2892,-0.0232,0.0,0.0,0.0045,0.0,0.0,0.0043,0.0,0.0,0.0039,0.0732,0.1475,0.2208,0.0,0.0,0.0,0.0,0.0,0.0,0.0,0.0,0.0,0.0,0.0,0.0,0.0,0.0,0.0,0.0,0.0,0.0,0.0,0.0,0.0,-2.0279,-2.2074,-2.1134,-2.4013,-2.7015,-2.9256,-3.0414,-3.1,-3.096,-3.0337,-2.9877,-2.9762,-2.8139,-2.6604,-2.5298,-2.1555,-1.8598,-1.6722,-1.36,-1.1741,-1.1278,-0.8599,-0.7268,-0.7268,-0.5514,-0.4652,-0.4651,-0.4537,-0.4513,-0.4453,-0.3328,-0.2566,-0.2099,-0.1046,-0.0345,0.0,0.0,-0.0431,-0.1063,-0.1063,-0.1752,-0.2597,-0.185,-0.1584,-0.1425,-0.0368,0.0,0.0,0.0,0.0997,0.2148,0.2148,0.3922,0.564,0.4912,0.444,0.3724,0.2042,0.0354,-0.1652,-0.431,-0.5168,-0.5774,-0.6872,-0.7647,-0.9158,-1.2399,-1.3993,-1.4952,-1.5295,-1.6378,-1.6604,-1.5079,-1.3707,-1.1202,-0.6951,-0.501,-0.2914,-0.0242,0.0,0.0322,0.1098,0.0427,0.0335,0.1118,0.0407,0.0362,0.1127,0.1125,0.1582,0.0,0.0,0.0,0.0,0.0,0.0,0.0,0.0,0.0,0.0,0.0,0.0,0.0,0.0,0.0,0.0,0.0,0.0,0.0,0.0,0.0,0.0,-2.1826,-2.388,-2.2957,-2.6391,-2.9703,-3.1703,-3.2687,-3.3418,-3.3954,-3.3313,-3.3102,-3.3539,-3.2342,-3.1069,-2.9928,-2.6955,-2.3965,-2.0995,-1.7881,-1.5189,-1.3057,-0.9223,-0.704,-0.632,-0.3898,-0.2732,-0.2731,-0.2646,-0.2635,-0.2574,-0.1666,-0.1307,-0.1187,-0.0354,0.0,-0.0058,0.0,0.0,0.0,0.0,-0.3745,-0.439,-0.3498,-0.274,-0.204,-0.1174,-0.048,0.0,0.0,0.1437,0.2921,0.2285,0.3708,0.5124,0.3595,0.1879,0.0258,-0.0779,-0.2457,-0.4243,-0.5785,-0.6062,-0.5979,-0.5979,-0.5979,0.0,-0.828,-0.9665,-1.0699,-1.1231,-1.2379,-1.2691,-1.1467,-1.0633,-0.8833,-0.5525,-0.3955,-0.2296,-0.0197,0.0,0.0,0.0,0.0,0.0295,0.0895,0.0325,0.0,0.0,0.0,0.0,0.0,0.0536,0.0,0.0,0.1984,0.1904,0.0,0.0,0.0,0.0,0.0,0.0,0.0,0.0,0.0,0.0,0.0,0.0,0.0,0.0,0.0,0.0,-2.2853,-2.5218,-2.4164,-2.7708,-3.1001,-3.2594,-3.4038,-3.5082,-3.5633,-3.5683,-3.6157,-3.7199,-3.6186,-3.5085,-3.4107,-3.2743,0.0,0.0,0.0,-2.0148,-1.5344,-1.0392,-0.7048,-0.5183,-0.1856,-0.0186,0.0,0.0,0.0,0.0,0.0,-0.0121,-0.0302,-0.0298,-0.0473,-0.0883,-0.2025,-0.2559,-0.2912,-0.448,-0.5035,-0.4962,-0.4832,0.0,0.0,-0.2257,-0.1178,0.0,0.0,0.1872,0.3682,0.219,0.2658,0.3171,0.1534,-0.1944,-0.4765,-0.3689,-0.5302,-0.7085,-0.6867,-0.6639,-0.6416,-0.6115,-0.6067,-0.5605,-0.4282,-0.5007,-0.6174,-0.7288,-0.8369,-0.8743,-0.7821,-0.7654,-0.6721,-0.4487,-0.3158,0.0,-0.0345,-0.0242,-0.0143,0.0,0.0,-0.0086,-0.0207,-0.0207,-0.0293,-0.0468,-0.0469,-0.1052,-0.2216,-0.2225,-0.2999,-0.4415,-0.2244,-0.2232,0.0,0.0,0.0,0.0,0.0,0.0,0.0,0.0,0.0,0.0,0.0,0.0,0.0,0.0,0.0,-2.1015,-2.3249,-2.4618,-2.3648,-2.8368,-3.2237,-3.3208,-3.4981,-3.6257,-3.681,-3.686,-3.7136,-3.7801,-3.7629,-3.6934,-3.5632,-3.4216,-3.2444,-3.0391,-2.6471,-2.3237,-2.0941,-1.4867,-1.0273,-0.7144,-0.3751,0.0,0.0,0.0,0.0,0.0,0.0,-0.0737,-0.2023,-0.2017,-0.351,-0.5608,-0.464,-0.4967,-0.6202,-0.774,-0.8186,-0.7873,-0.6677,-0.5281,-0.3836,-0.2604,-0.1219,0.0,0.0,0.1219,0.0,0.0829,0.0603,0.0218,-0.2507,-0.5476,-0.8059,-0.8959,-1.0396,-1.1233,-1.0114,-0.9832,-0.9139,-0.6868,-0.6401,-0.59,-0.4428,-0.4306,-0.4458,-0.4704,-0.4945,-0.5395,-0.626,-0.6357,-0.6158,-0.5667,-0.5372,-0.4266,-0.1803,-0.1624,-0.1161,-0.0048,0.0,-0.0501,-0.158,-0.1604,-0.2113,-0.3216,-0.3221,-0.3335,-0.3593,-0.3618,-0.4879,-0.7142,-0.4583,-0.3597,0.0,0.0,0.0,0.0,0.0,0.0,0.0,0.0,0.0,0.0,0.0,-2.0717,-2.278,0.0,-2.2498,-2.2534,-2.4172,-2.5173,-2.4244,-2.8667,-3.2325,-3.3212,-3.5393,-3.6985,-3.755,-3.76,-3.7826,-3.8391,-3.8442,-3.8291,-3.7866,-3.7151,-3.5974,-3.4374,-3.1368,-2.8173,-2.4892,-1.9292,-1.4395,-1.0235,-0.6047,-0.3066,-0.1338,-0.1338,-0.1333,-0.1385,-0.2186,-0.3047,-0.3789,-0.3702,-0.5075,-0.7153,-0.6375,-0.6916,-0.822,-0.9033,-0.9222,-0.9034,-0.822,-0.695,-0.5587,-0.4702,-0.3463,-0.2238,-0.2238,-0.1726,-0.1385,-0.2884,-0.3798,-0.4862,-0.7136,-0.9858,-1.2009,-1.2021,-1.3063,-1.3604,-1.2135,-1.1227,-1.0063,-0.7968,-0.6984,-0.6025,-0.4613,-0.4311,-0.4206,-0.4028,-0.4016,-0.4268,-0.492,-0.502,-0.502,-0.502,-0.502,-0.447,-0.3115,-0.2989,-0.2704,-0.2029,-0.2007,-0.2319,-0.2951,-0.2979,-0.3325,-0.3987,-0.4683,-0.5322,-0.5995,-0.6631,-0.8094,-1.016,-0.8837,-0.8206,0.0,0.0,0.0,0.0,0.0,0.0,0.0,-1.6118,-1.7343,-2.1445,-2.2633,-2.3569,-2.579,-2.5048,-2.4051,-2.388,-2.4701,-2.525,-2.4937,-2.852,-3.161,-3.2884,-3.5085,-3.6826,-3.7693,-3.7742,-3.8091,-3.8981,-3.9082,-3.922,-3.9672,-3.9697,-3.8983,-3.7392,-3.5958,-3.3106,-2.877,-2.3964,-1.8992,-1.3805,-0.9097,-0.5582,-0.3227,-0.3227,-0.3222,-0.334,-0.4945,-0.5602,-0.5581,-0.5828,-0.6648,-0.785,-0.785,-0.8522,-0.9462,-0.9435,-0.9408,-0.9364,-0.9299,-0.8199,-0.6902,-0.6758,-0.5712,-0.4526,-0.4799,-0.488,-0.518,-0.6963,-0.8519,-1.0004,-1.149,-1.381,-1.553,-1.4395,-1.4894,-1.5274,-1.3783,-1.2478,-1.1102,-0.9407,-0.816,-0.6948,-0.5545,-0.5331,-0.5002,-0.4163,-0.4236,-0.4529,-0.4764,-0.5007,-0.5252,-0.5504,-0.5553,-0.5454,-0.5153,-0.4904,-0.4775,-0.4757,-0.4753,-0.4863,-0.5122,-0.5165,-0.5255,-0.5535,-0.658,-0.7712,-0.8874,-0.9887,-1.1234,-1.2896,-1.2896,-1.2746,-1.7837,-1.6496,-1.4956,-1.5513,-1.481,-1.5084,0.0,-2.0072,-2.0864,-2.4985,-2.613,-2.6773,-2.7832,-2.5944,-2.4381,-2.4705,-2.3696,-2.3375,-2.4712,-2.7543,-3.0198,-3.2275,-3.3393,-3.475,-3.6653,-3.6869,-3.7627,-3.9443,-3.9597,-3.9634,-3.9697,-3.9697,-3.9608,-3.9378,-3.7911,-3.6191,-3.4142,-2.9451,-2.3847,-1.7281,-1.3884,-0.9734,-0.5107,-0.5107,-0.5071,-0.5201,-0.6792,-0.7435,-0.7406,-0.8836,-0.9445,-0.9511,-0.9511,-0.9616,-0.9754,-0.9632,-0.9496,-0.9381,-0.9361,-0.8278,-0.6915,-0.6904,-0.5818,-0.4745,-0.5999,-0.6373,-0.6913,-0.9704,-1.1594,-1.3046,-1.4522,-1.6115,-1.7312,-1.7147,-1.7233,-1.6936,-1.5429,-1.4974,-1.4094,-1.1359,-1.0711,-1.007,-0.8484,-0.8249,-0.7292,-0.4604,-0.5178,-0.6353,-0.7406,-0.8554,-0.9677,-1.0898,-1.1005,-1.0542,-0.9327,-0.8126,-0.7475,-0.7459,-0.7459,-0.7997,-0.9166,-0.9219,-0.9778,-1.0967,-1.1162,-1.1467,-1.1934,-1.2034,-1.2946,-1.455,-1.455,-1.3892,-1.9634,-1.8117,-1.6331,-1.7093,-1.735,-1.8149,-2.0949,-2.2429,-2.3994,-2.6917,-2.7832,-2.831,-2.8926,-2.665,-2.4738,-2.5092,-2.3868,-2.318,-2.4028,-2.5856,-2.7454,-2.8311,-2.8578,-3.0565,-3.5426,-3.5906,-3.6214,-3.7091,-3.7156,-3.7489,-3.836,-3.8413,-3.8792,-3.9697,-3.9077,-3.8036,-3.6468,-3.2675,-2.7962,-2.233,-1.713,-1.2463,-0.8391,-0.7358,-0.7442,-0.838,-0.9098,-0.9282,-0.9226,-0.9926,-1.0648,-1.1291,-1.1291,-1.1829,-1.2384,-1.041,-0.9693,-0.9625,-0.9544,-0.969,-0.9885,-0.9795,-0.9814,-0.9942,-1.054,-1.1227,-1.2004,-1.3209,-1.4613,-1.5913,-1.6546,-1.7147,-1.7786,-1.8558,-1.8146,-1.7621,-1.7798,-1.6573,-1.5037,-1.3857,-1.224,-1.0866,-1.0198,-0.9381,-0.8652,-0.8197,-0.8498,-0.9288,-1.0597,-1.1138,-1.1801,-1.2876,-1.3004,-1.3067,-1.3233,-1.2038,-1.1753,-1.2673,-1.2727,-1.3088,-1.3947,-1.3952,-1.3889,-1.3667,-1.4365,-1.4441,-1.378,-1.4545,-1.5343,-1.6177,-1.6177,-1.6003,-2.0899,-1.9727,-1.8555,-1.9265,-1.9998,-2.1024,-2.273,-2.4366,-2.6169,-2.8387,-2.8965,-2.9228,-2.9668,-2.7422,-2.5486,-2.5314,-2.4018,-2.3193,-2.3529,-2.4366,-2.509,-2.5507,-2.5294,-2.7071,-3.2127,-3.3399,-3.4273,-3.5222,-3.5288,-3.5781,-3.6811,-3.6865,-3.7583,-3.9025,-3.9077,-3.8804,-3.8125,-3.5459,-3.1655,-2.6795,-2.1101,-1.6186,-1.1926,-0.9741,-0.9387,-1.0555,-1.0555,-1.0729,-1.1093,-1.1093,-1.1933,-1.3309,-1.3712,-1.4261,-1.451,-1.2625,-1.1579,-1.1121,-1.1006,-1.1748,-1.2669,-1.2529,-1.3409,-1.4546,-1.4933,-1.5897,-1.6882,-1.6848,-1.7622,-1.8321,-1.7835,-1.7709,-1.7947,-1.8833,-1.8603,-1.8304,-1.8916,-1.7738,-1.6315,-1.5577,-1.3691,-1.2186,-1.1755,-1.0836,-1.0577,-1.1928,-1.2039,-1.2318,-1.3233,-1.3819,-1.4408,-1.5101,-1.5488,-1.6089,-1.6954,-1.6225,-1.6225,-1.7385,-1.7448,-1.7597,-1.7974,-1.7989,-1.7499,-1.654,-1.7033,-1.6909,-1.6011,-1.6555,-1.6981,-1.732,-1.732,-1.7434,-2.2113,-2.1873,-2.2031,-2.2661,-2.265,-2.3105,-2.5577,-2.62,-2.6994,-2.959,-2.9824,-2.9678,-3.0098,-2.8434,-2.6663,-2.5492,-2.3958,-2.3078,-2.3529,-2.3351,-2.3724,-2.5312,-2.5235,-2.5336,-2.583,-2.8591,-3.1722,-3.5024,-3.5288,-3.53,-3.5343,-3.5343,-3.6054,-3.7518,-3.7571,-3.8243,-3.9633,-3.8125,-3.4877,-3.0042,-2.6837,-2.1937,-1.5555,-1.2127,-1.0651,-1.0714,-1.0714,-1.1595,-1.3029,-1.3029,-1.3934,-1.5556,-1.7131,-1.663,-1.515,-1.6694,-1.6088,-1.4421,-1.4475,-1.4389,-1.4318,-1.4313,-1.5256,-1.6575,-1.7925,-1.9436,-2.0626,-2.0547,-2.0577,-2.0185,-1.8415,-1.7975,-1.7956,-1.7708,-1.8603,-1.9169,-1.7943,-1.8603,-1.8679,-1.5943,-1.531,-1.4824,-1.348,-1.321,-1.3637,-1.5032,-1.5234,-1.5106,-1.4763,-1.6939,-1.8528,-1.8569,-1.9765,-2.0624,-2.0624,-2.0624,-2.0624,-2.0641,-2.0641,-2.0689,-2.0706,-2.0706,-2.0657,-2.0609,-1.9318,-1.8756,-1.9076,-1.7786,-1.734,-1.7569,-1.7569,-1.7575,-2.3505,-2.3138,-2.2904,-2.3957,-2.4407,-2.4854,-2.5901,-2.7157,-2.8263,-2.9147,-2.9238,-2.918,-2.9316,-2.7921,-2.6294,-2.5085,-2.3758,-2.2649,-2.2055,-2.1714,-2.1619,-2.1939,-2.1877,-2.2326,-2.3565,-2.5578,-2.7432,-2.9013,-2.8935,-2.9824,-3.207,-3.2204,-3.3356,-3.5945,-3.6054,-3.6769,-3.8243,-3.6769,-3.5131,-3.3294,-2.7023,-2.1101,-1.5748,-1.3491,-1.2413,-1.2413,-1.2413,-1.3417,-1.5024,-1.6136,-1.7508,-1.897,-2.0611,-2.1462,-2.1774,-2.2347,-2.1978,-2.0693,-1.7277,-1.7377,-1.9062,-1.9062,-1.9955,-2.112,-2.1588,-2.1975,-2.1953,-2.0971,-2.0715,-2.032,-1.8735,-1.8343,-1.8523,-1.9301,-1.9179,-1.8977,-1.9442,-1.9017,-1.8244,-1.7333,-1.6196,-1.5257,-1.477,-1.3911,-1.3804,-1.5204,-1.6227,-1.6741,-1.642,-1.8655,-2.0149,-1.9974,-2.1202,-2.2312,-2.3121,-2.2445,-2.2467,-2.3558,-2.3671,-2.3745,-2.4033,-2.4042,-2.3645,-2.2739,-2.2246,-2.1154,-1.947,-1.9008,-1.84,-1.7589,-1.7796,-1.7889,-2.4441,-2.4441,-2.4486,-2.5572,-2.6191,-2.6654,-2.7009,-2.8038,-2.8877,-2.873,-2.8574,-2.8379,-2.8066,-2.7015,-2.5982,-2.5252,-2.3967,-2.2842,-2.2124,-2.1223,-2.0608,-2.0414,-2.0301,-2.0692,-2.1871,-2.3353,-2.4972,-2.6721,-2.6191,-2.6909,-2.9674,-2.9263,-3.0403,-3.3546,-3.3602,-3.4615,-3.6703,-3.6271,-3.5745,-3.4943,-2.8164,-2.2627,-1.8346,-1.6149,-1.479,-1.4232,-1.4232,-1.5574,-1.7814,-1.8858,-2.0572,-2.2652,-2.4262,-2.5044,-2.5327,-2.592,-2.5863,-2.4948,-2.0931,-2.0744,-2.2255,-2.2255,-2.3212,-2.4359,-2.4359,-2.4574,-2.4534,-2.3066,-2.2259,-2.1423,-1.9854,-1.9021,-1.8834,-1.9573,-1.9497,-1.9339,-1.9709,-1.9342,-1.8727,-1.8258,-1.7265,-1.6499,-1.634,-1.5487,-1.5185,-1.6203,-1.7053,-1.7515,-1.738,-1.9204,-2.0616,-2.0982,-2.2184,-2.3518,-2.4742,-2.4165,-2.4183,-2.5235,-2.5303,-2.5439,-2.5674,-2.5693,-2.5274,-2.4452,-2.3939,-2.2887,-2.1285,-2.0268,-1.9402,-1.8684,-1.832,-1.8203,-2.4969,-2.5801,-2.671,-2.7594,-2.8051,-2.8389,-2.8824,-2.8892,-2.8701,-2.8281,-2.7842,-2.7327,-2.6435,-2.6006,-2.5741,-2.5793,-2.4497,-2.3524,-2.3572,-2.1907,-2.0695,-2.0675,-2.0441,-2.0381,-2.0772,-2.1989,-2.4317,-2.8116,-2.6876,-2.6626,-2.817,-2.6832,-2.7322,-3.0296,-3.0413,-3.1977,-3.5002,-3.6692,-3.6717,-3.5074,-3.0456,-2.6559,-2.3315,-2.0021,-1.7652,-1.6167,-1.6167,-1.8064,-2.1164,-2.1283,-2.3276,-2.628,-2.7931,-2.7463,-2.6075,-2.7566,-2.7855,-2.7218,-2.5406,-2.4459,-2.4069,-2.4053,-2.5041,-2.6209,-2.6209,-2.7168,-2.8004,-2.6545,-2.5041,-2.3461,-2.1635,-2.0082,-1.8928,-1.8604,-1.9491,-2.0128,-1.8912,-1.9587,-2.0052,-1.8885,-1.8553,-1.8404,-1.8062,-1.7822,-1.7729,-1.7975,-1.7816,-1.7615,-1.7589,-1.8812,-2.0238,-2.155,-2.2968,-2.4304,-2.5479,-2.5586,-2.5586,-2.5479,-2.5479,-2.5538,-2.5586,-2.5586,-2.5645,-2.5723,-2.4489,-2.4008,-2.4347,-2.1655,-2.0468,-2.0661,-1.9305,-1.8621,-2.6191,-2.6924,-2.771,-2.9259,-2.8968,-2.8489,-2.9289,-2.8425,-2.7383,-2.6963,-2.6269,-2.5615,-2.5019,-2.5635,-2.5944,-2.5062,-2.459,-2.4191,-2.3701,-2.209,-2.0915,-2.0702,-2.0802,-2.1313,-2.2371,-2.3046,-2.478,-2.8161,-2.6687,-2.5936,-2.6574,-2.6219,-2.6332,-2.7151,-2.8363,-2.9878,-3.1805,-3.5593,-3.7281,-3.6836,-3.3277,-2.9911,-2.6627,-2.2279,-2.0074,-1.9707,-1.9707,-2.0926,-2.3102,-2.5518,-2.6987,-2.7931,-2.9589,-2.9963,-2.9625,-2.9995,-2.9834,-2.9374,-2.8908,-2.822,-2.7572,-2.7262,-2.7394,-2.7726,-2.7726,-2.8014,-2.8004,-2.6545,-2.5827,-2.4905,-2.2199,-2.1183,-2.0615,-1.9438,-1.9418,-1.9918,-2.0628,-1.9998,-1.9514,-2.0267,-1.9382,-1.8464,-1.839,-1.831,-1.8283,-1.8364,-1.831,-1.8096,-1.7642,-1.9672,-2.1296,-2.1651,-2.3791,-2.4913,-2.4254,-2.4196,-2.3791,-2.2767,-2.2717,-2.3176,-2.4146,-2.4196,-2.4857,-2.6221,-2.5904,-2.5424,-2.4814,-2.4078,-2.2703,-2.0715,-2.0593,-1.9899,-2.7051,-2.7617,-2.8348,-2.9901,-2.9558,-2.8898,-2.9095,-2.8313,-2.7061,-2.5358,-2.4773,-2.4258,-2.3447,-2.4219,-2.4996,-2.5092,-2.4986,-2.4786,-2.4409,-2.3105,-2.1846,-2.1007,-2.1009,-2.1658,-2.3189,-2.4124,-2.5688,-2.8239,-2.6756,-2.6123,-2.7005,-2.6401,-2.634,-2.7013,-2.7931,-2.9446,-3.1674,-3.4902,-3.6865,-3.7465,-3.5711,-3.3165,-2.9988,-2.6705,-2.4094,-2.2193,-2.2919,-2.3746,-2.484,-2.7383,-2.8852,-2.9589,-3.0518,-3.0889,-3.0889,-3.0889,-3.0723,-3.0478,-3.0264,-2.9883,-2.9375,-2.8769,-2.8437,-2.8291,-2.8291,-2.8291,-2.8121,-2.7276,-2.6599,-2.5709,-2.3997,-2.2597,-2.1415,-2.0529,-1.9866,-1.9649,-2.0479,-1.9844,-1.9334,-2.0217,-1.9478,-1.8724,-1.8851,-1.8664,-1.8537,-1.8657,-1.8577,-1.8632,-1.8903,-2.0136,-2.1166,-2.1667,-2.3583,-2.4585,-2.3926,-2.3894,-2.3351,-2.2121,-2.2026,-2.2697,-2.4104,-2.4206,-2.4942,-2.661,-2.666,-2.6499,-2.6158,-2.5503,-2.4456,-2.3048,-2.188,-2.093,-2.7637,-2.8166,-2.89,-3.0214,-2.997,-2.93,-2.8715,-2.8036,-2.667,-2.3732,-2.3281,-2.3115,-2.2002,-2.2588,-2.3779,-2.5391,-2.5386,-2.5281,-2.5587,-2.4397,-2.297,-2.1601,-2.1235,-2.1846,-2.3752,-2.52,-2.6772,-2.8605,-2.7443,-2.7134,-2.8358,-2.7073,-2.6953,-2.8358,-2.8587,-3.0208,-3.335,-3.4847,-3.6325,-3.7796,-3.7571,-3.6059,-3.333,-3.1469,-2.835,-2.4586,-2.5802,-2.634,-2.647,-2.8051,-2.9589,-3.0889,-3.0889,-3.0889,-3.0889,-3.0889,-3.0889,-3.083,-3.043,-3.0244,-3.0059,-2.9199,-2.8672,-2.8369,-2.831,-2.8291,-2.8291,-2.8291,-2.7394,-2.6327,-2.6127,-2.4164,-2.2089,-2.1699,-2.0644,-1.97,-1.97,-1.97,-1.9649,-1.9424,-1.9158,-1.9065,-1.9325,-1.8945,-1.8698,-1.8945,-1.8933,-1.9341,-2.0572,-2.0551,-2.0858,-2.2028,-2.3326,-2.409,-2.3957,-2.4086,-2.3661,-2.2351,-2.2429,-2.3227,-2.476,-2.4812,-2.5533,-2.7048,-2.71,-2.7314,-2.7806,-2.6464,-2.5873,-2.6045,-2.3423,-2.1975,-2.8066,-2.9051,-3.0266,-3.1633,-3.0525,-2.9161,-2.9475,-2.6735,-2.3806,-2.2816,-2.2119,-2.157,-2.1346,-2.2627,-2.4014,-2.5019,-2.5191,-2.5728,-2.7142,-2.4856,-2.3083,-2.3171,-2.1908,-2.2271,-2.5314,-2.5855,-2.7263,-3.0265,-3.0216,-2.9589,-2.8477,-2.811,-2.811,-2.8417,-2.9585,-3.1701,-3.4902,-3.6379,-3.7861,-3.9297,-3.8072,-3.7228,-3.6537,-3.2457,-3.017,-2.9353,-2.8372,-2.7991,-2.811,-2.9776,-3.0645,-3.0889,-3.0889,-3.0889,-3.0889,-3.0889,-3.0889,-3.0879,-3.0801,-3.0518,-3.0059,-2.9199,-2.8867,-2.875,-2.8398,-2.8291,-2.8291,-2.8291,-2.8121,-2.7618,-2.6445,-2.5709,-2.4701,-2.2194,-2.1422,-2.1194,-2.1194,-2.1194,-2.0866,-1.9649,-1.9325,-1.9305,-1.9417,-1.9285,-1.9232,-1.9285,-2.0295,-2.1043,-2.104,-2.1743,-2.2836,-2.4242,-2.5619,-2.5493,-2.3125,-2.4131,-2.373,-2.1194,-2.2154,-2.3483,-2.4916,-2.4977,-2.5776,-2.7549,-2.7559,-2.7764,-2.8184,-2.7907,-2.7201,-2.61,-2.5544,-2.398,-2.8174,-2.9303,-3.0565,-3.1617,-3.0722,-2.9441,-2.88,-2.6098,-2.3262,-2.1498,-2.1016,-2.082,-2.0586,-2.1787,-2.3076,-2.3926,-2.4669,-2.5539,-2.665,-2.5645,-2.4822,-2.4814,-2.4163,-2.4586,-2.7013,-2.7263,-2.8239,-3.0704,-3.0889,-3.0577,-2.9717,-3.0422,-3.1196,-3.197,-3.269,-3.3781,-3.53,-3.7435,-3.8852,-3.9521,-3.9585,-3.9239,-3.8359,-3.4714,-3.2148,-3.0587,-2.9954,-2.9226,-2.8536,-3.0206,-3.0889,-3.0889,-3.0889,-3.0889,-3.0889,-3.0889,-3.0889,-3.0889,-3.0889,-3.0742,-3.0449,-2.9795,-2.9287,-2.8877,-2.8682,-2.8467,-2.8291,-2.8291,-2.8291,-2.8121,-2.7447,-2.6662,-2.5544,-2.3263,-2.1593,-2.0479,-2.0479,-2.0479,-2.0256,-1.9533,-1.9424,-1.9424,-1.9424,-1.9424,-1.9424,-1.9424,-2.0644,-2.1801,-2.2418,-2.3628,-2.4623,-2.4961,-2.6205,-2.6187,-2.4297,-2.4792,-2.4393,-2.2418,-2.2974,-2.4008,-2.5531,-2.5584,-2.6333,-2.7988,-2.7988,-2.8096,-2.8291,-2.8291,-2.796,-2.7222,-2.6436,-2.543,-2.8047,-2.9442,-3.0861,-3.1379,-3.0785,-2.9669,-2.7989,-2.5472,-2.2835,-2.0396,-2.0039,-2.0107,-1.9941,-2.084,-2.1943,-2.2925,-2.4141,-2.5304,-2.6304,-2.6462,-2.6522,-2.6516,-2.6219,-2.6651,-2.823,-2.8417,-2.9098,-3.0772,-3.116,-3.1383,-3.1383,-3.2473,-3.38,-3.5233,-3.5856,-3.6159,-3.6159,-3.8921,-4.0297,-4.0297,-4.1191,-4.0978,-3.9766,-3.6687,-3.3959,-3.1576,-3.1111,-3.0147,-2.9039,-3.0333,-3.0704,-3.0333,-3.0333,-3.0333,-3.0333,-3.0333,-3.0587,-3.0889,-3.0889,-3.0889,-3.083,-3.0459,-2.9766,-2.9043,-2.8945,-2.8623,-2.8291,-2.8291,-2.8291,-2.8291,-2.8291,-2.7447,-2.61,-2.4267,-2.1544,-1.9424,-1.9424,-1.9424,-1.9424,-1.9424,-1.9424,-1.9424,-1.9424,-1.9424,-1.9424,-1.9424,-2.0923,-2.2484,-2.3654,-2.5434,-2.6359,-2.5777,-2.6636,-2.6821,-2.5656,-2.5844,-2.555,-2.4361,-2.4599,-2.5325,-2.6545,-2.6554,-2.7114,-2.8291,-2.8291,-2.8291,-2.8291,-2.8291,-2.8291,-2.8291,-2.7199,-2.6683,-2.7607,-2.991,-3.2018,-3.1627,-3.067,-2.9477,-2.8017,-2.4207,-2.0731,-2.0029,-1.929,-1.8997,-1.9738,-2.0342,-2.1221,-2.2828,-2.3887,-2.5323,-2.7761,-2.7141,-2.693,-2.8036,-2.6893,-2.6651,-2.823,-2.8417,-2.9098,-3.0772,-3.215,-3.2918,-3.2918,-3.3021,-3.38,-3.5233,-3.7745,-3.9011,-3.9011,-4.1741,-4.3129,-4.3095,-4.207,-4.1541,-4.1267,-3.7181,-3.5123,-3.4714,-3.2045,-3.083,-3.0704,-3.083,-3.002,-2.8605,-2.8605,-2.8605,-2.8605,-2.8605,-2.9589,-3.0889,-3.0889,-3.0889,-3.0889,-3.084,-3.0234,-2.9434,-2.9033,-2.8623,-2.8291,-2.8291,-2.8291,-2.8291,-2.8291,-2.8184,-2.7394,-2.4497,-2.1544,-1.9424,-1.9424,-1.9424,-1.9424,-1.9424,-1.9424,-1.9424,-1.9424,-1.9424,-1.9424,-1.9424,-2.182,-2.3654,-2.3766,-2.6327,-2.8092,-2.8014,-2.8121,-2.7577,-2.6155,-2.7273,-2.741,-2.5982,-2.7168,-2.795,-2.8067,-2.8121,-2.8174,-2.8291,-2.8291,-2.8291,-2.8291,-2.8291,-2.8291,-2.8301,-2.8519,-2.7926,-2.7012,-2.8973,-3.0594,-3.0009,-2.9223,-2.8098,-2.6431,-2.3235,-2.0478,-2.0,-1.9443,-1.9209,-1.9805,-2.0273,-2.1006,-2.2187,-2.2676,-2.3915,-2.6924,-2.6588,-2.6946,-2.946,-2.8823,-2.8612,-2.9787,-3.0121,-3.0684,-3.1641,-3.311,-3.4163,-3.4784,-3.5379,-3.6422,-3.7873,-3.9003,-3.9943,-4.0702,-4.2552,-4.3882,-4.4642,-4.3361,-4.2738,-4.2579,-3.8488,-3.6162,-3.5189,-3.3145,-3.171,-3.0889,-3.0889,-2.9893,-2.8417,-2.8417,-2.7811,-2.6953,-2.6953,-2.7383,-2.794,-2.794,-2.794,-2.8119,-2.9098,-2.9012,-2.8689,-2.9455,-2.9209,-2.8672,-2.8672,-2.8486,-2.8291,-2.8291,-2.6952,-2.5278,-2.41,-2.1544,-1.9424,-1.9424,-1.9424,-1.9424,-1.9424,-1.9424,-1.9424,-1.9424,-1.9424,-1.9424,-1.9424,-2.1934,-2.3822,-2.3822,-2.6445,-2.8291,-2.8291,-2.8291,-2.8067,-2.7447,-2.795,-2.8067,-2.7447,-2.796,-2.8291,-2.8291,-2.8291,-2.8291,-2.8291,-2.8291,-2.8418,-2.8672,-2.8672,-2.8809,-2.9062,-2.9238,-2.9155,-2.625,-2.7925,-2.9182,-2.861,-2.7973,-2.7028,-2.5221,-2.2605,-2.0478,-2.0,-1.9473,-1.9268,-1.9814,-2.0166,-2.0664,-2.1543,-2.2183,-2.3545,-2.6354,-2.6845,-2.7965,-3.0674,-3.0748,-3.0686,-3.102,-3.1338,-3.165,-3.1953,-3.3793,-3.5176,-3.5859,-3.7308,-3.8635,-3.9697,-4.0083,-4.0693,-4.1604,-4.2882,-4.3929,-4.4826,-4.3551,-4.293,-4.2772,-3.8696,-3.6271,-3.5178,-3.3304,-3.1872,-3.083,-3.0392,-2.9157,-2.7623,-2.7151,-2.6296,-2.5314,-2.5314,-2.5619,-2.5976,-2.5976,-2.5976,-2.6158,-2.7314,-2.7813,-2.8187,-2.9313,-2.9437,-2.9111,-2.9111,-2.8799,-2.834,-2.7818,-2.5717,-2.371,-2.3263,-2.1209,-1.9424,-1.9424,-1.9424,-1.9424,-1.9424,-1.9424,-1.9424,-1.9424,-1.9424,-1.9424,-1.9424,-2.1544,-2.3319,-2.371,-2.6045,-2.7843,-2.8237,-2.8291,-2.8291,-2.8291,-2.8291,-2.8291,-2.8291,-2.8291,-2.8291,-2.8291,-2.8291,-2.835,-2.8476,-2.8476,-2.8691,-2.9111,-2.9111,-2.9268,-2.957,-2.9697,-2.999,-2.5235,-2.7051,-2.8273,-2.7762,-2.7372,-2.6608,-2.4745,-2.2381,-2.0478,-2.0,-1.9202,-1.887,-1.9756,-1.9922,-2.0177,-2.1054,-2.289,-2.4798,-2.6624,-2.8592,-3.0385,-3.1811,-3.2461,-3.2437,-3.1477,-3.1474,-3.1514,-3.1523,-3.4221,-3.5904,-3.5893,-3.8321,-3.9685,-3.9697,-4.0932,-4.1604,-4.1604,-4.2882,-4.3504,-4.3504,-4.2217,-4.1604,-4.1492,-3.7234,-3.5288,-3.5134,-3.2217,-3.0889,-3.0772,-2.9098,-2.7503,-2.5863,-2.4301,-2.3636,-2.3636,-2.3636,-2.4655,-2.5976,-2.5976,-2.5976,-2.5976,-2.6037,-2.7073,-2.8417,-2.8408,-2.8989,-2.956,-2.956,-2.9248,-2.8472,-2.6591,-2.4986,-2.3431,-2.1975,-2.0479,-1.9424,-1.9424,-1.9424,-1.9424,-1.9424,-1.9424,-1.9424,-1.9424,-1.9424,-1.9424,-1.9424,-2.0644,-2.2145,-2.3599,-2.5151,-2.6662,-2.8121,-2.8291,-2.8291,-2.8291,-2.8291,-2.8291,-2.8291,-2.8291,-2.8291,-2.8291,-2.8291,-2.8486,-2.8906,-2.8916,-2.9121,-2.956,-2.956,-2.9626,-2.9636,-3.0,-3.0439,-2.331,-2.436,-2.5057,-2.4315,-2.4015,-2.3647,-2.2441,-2.1105,-2.0166,-2.0322,-1.9678,-1.9346,-2.0205,-2.04,-2.084,-2.2314,-2.3884,-2.5637,-2.7775,-2.966,-3.1303,-3.2718,-3.3878,-3.412,-3.3046,-3.3887,-3.4233,-3.3526,-3.627,-3.781,-3.7406,-3.9218,-4.0086,-3.9697,-4.007,-4.0693,-4.1604,-4.1985,-4.2641,-4.3504,-4.2217,-4.1604,-4.1555,-3.9326,-3.7222,-3.5245,-3.4303,-3.2768,-3.0772,-2.9098,-2.7443,-2.5855,-2.424,-2.2897,-2.1908,-2.1908,-2.2215,-2.2632,-2.2632,-2.2632,-2.282,-2.3985,-2.5444,-2.6953,-2.8051,-2.9128,-2.9941,-2.9704,-2.9258,-2.8549,-2.6949,-2.5138,-2.3431,-2.1975,-2.0479,-1.9424,-1.9424,-1.9519,-1.9659,-1.9659,-1.9659,-1.9659,-1.9659,-1.9499,-1.9424,-1.9424,-2.1487,-2.3263,-2.371,-2.6054,-2.7789,-2.8237,-2.8291,-2.8291,-2.8291,-2.8291,-2.8291,-2.8291,-2.8291,-2.8418,-2.8711,-2.8721,-2.8926,-2.9355,-2.9365,-2.957,-3.0,-3.0,-3.0156,-3.0478,-3.0605,-3.0752,-2.182,-2.2422,-2.2695,-2.2168,-2.2031,-2.1765,-2.0898,-2.0185,-1.9756,-2.0067,-1.9695,-1.9502,-2.0233,-2.0786,-2.143,-2.231,-2.4302,-2.6359,-2.824,-3.0454,-3.2627,-3.4534,-3.5203,-3.531,-3.4891,-3.5502,-3.5631,-3.502,-3.7244,-3.8449,-3.8129,-3.9406,-4.0049,-3.9697,-3.9697,-4.007,-4.0882,-4.0882,-4.1269,-4.207,-4.1269,-4.0882,-4.0844,-3.9467,-3.7542,-3.5288,-3.4681,-3.3088,0.0,-2.9098,-2.7443,-2.5855,-2.424,-2.2591,-2.1109,-2.1109,-2.1109,-2.1109,-2.1109,-2.1109,-2.1292,-2.2341,-2.4163,-2.6409,-2.8664,-2.9889,-3.0361,-2.9932,-2.9207,-2.8099,-2.645,-2.4584,-2.2728,-2.1263,-2.0206,-1.9533,-1.9533,-1.976,-1.996,-1.996,-1.996,-1.996,-1.996,-1.9813,-1.9922,-2.0555,-2.2035,-2.3578,-2.4765,-2.6509,-2.7911,-2.8471,-2.8672,-2.8779,-2.8779,-2.8476,-2.8359,-2.8525,-2.8535,-2.8721,-2.915,-2.917,-2.9365,-2.9795,-2.9814,-3.0019,-3.0459,-3.0459,-3.0605,-3.0889,-3.0889,-3.0889,0.0,-2.1016,-2.0995,-2.0937,-2.0966,-2.0791,-1.9972,-1.9521,0.0,-1.9277,-1.9287,-1.947,-2.0025,-2.1178,-2.1983,-2.171,-2.4603,-2.7305,-2.8408,-3.1342,-3.4361,-3.7048,-3.6623,-3.628,-3.6692,-3.6409,-3.6128,-3.6005,-3.7391,-3.8233,-3.8233,-3.9179,-3.9697,-3.9697,-3.9697,-3.9697,-3.9697,-3.9697,-3.9697,-3.9697,-3.9697,-3.9697,-3.9633,-3.8295,-3.6876,-3.5398,-3.4013,-3.254,-3.0927,-2.9266,-2.7554,-2.5855,-2.424,-2.2591,-2.1109,-2.1109,-2.1109,-2.1109,-2.1235,-2.1292,-2.1292,-2.1538,-2.3668,-2.6772,-2.9962,-3.0889,-3.0801,-3.0371,-2.9038,-2.7342,-2.5436,-2.3512,-2.165,-2.0169,-1.9833,-1.9833,-1.9833,-2.006,-2.0267,-2.0267,-2.0267,-2.0267,-2.0267,-2.0247,-2.0765,-2.2476,-2.2428,-2.331,-2.6359,-2.6816,-2.7438,-2.8791,-2.9326,-2.9626,-2.9626,-2.8838,-2.8555,-2.8935,-2.8965,-2.916,-2.96,-2.9619,-2.9814,-3.0234,-3.0244,-3.0459,-3.0889,-3.0889,-3.0889,-3.0889,-3.0889,-3.0889,-1.9264,0.0,-1.9056,-1.8447,-1.8769,-1.9153,0.0,-1.8822,-1.8887,-1.9219,-1.9287,-1.9905,-2.1987,-2.2548,-2.3498,-2.5954,-2.8299,-3.0083,-3.0958,-3.4069,-3.6935,-3.8868,-3.8901,-3.842,-3.7381,-3.8238,-3.8331,-3.7214,-3.8489,-3.9315,-3.9315,-3.954,-3.9697,-3.9697,-3.9697,-3.9697,-3.9697,-3.9697,-3.9697,-3.9697,-3.9697,-3.9697,-3.9697,-3.9349,-3.836,-3.6972,-3.6649,-3.5002,-3.2462,-3.0761,-2.8446,-2.5855,-2.424,-2.2591,-2.1109,-2.1109,-2.1109,-2.1292,-2.2591,-2.3021,-2.3442,-2.5863,-2.7202,-2.8239,-3.0274,-3.0889,-3.0869,-3.0762,-2.934,-2.7395,-2.5805,-2.3882,-2.2008,-2.0482,-2.0134,-2.0134,-2.0134,-2.0361,-2.0575,-2.0575,-2.0575,-2.0575,-2.0575,-2.0381,-2.0765,-2.2476,-2.356,-2.4945,-2.693,-2.8202,-2.907,-2.9414,-2.9512,-2.9626,-2.9626,-2.9385,-2.9316,-2.9414,-2.9414,-2.9609,-3.0029,-3.0049,-3.0264,-3.0723,-3.0732,-3.0781,-3.0889,-3.0889,-3.0889,-3.0889,-3.0889,-3.0889,-1.835,-1.8723,-1.9062,-1.86,-1.8715,-1.8936,-1.8936,-1.8598,-1.8383,-1.8652,-1.9014,-1.9956,-2.2018,-2.3252,-2.4682,-2.6923,-2.9425,-3.1945,-3.4465,-3.7142,-3.9498,-4.1225,-4.1455,-4.0893,-3.9534,-4.0109,-3.9981,-3.8622,-3.9245,-3.9697,-3.9697,-3.9697,-3.9697,-3.9697,-3.9697,-3.9697,-3.9697,-3.9697,-3.9697,-3.9697,-3.9697,-4.0032,-4.0554,-4.0554,-3.9777,-3.8383,-3.8383,-3.6729,-3.4013,-3.238,-3.0316,-2.7902,-2.5603,-2.3683,-2.216,-2.1355,-2.1109,-2.1355,-2.3021,-2.4054,-2.5085,-2.7572,-2.8417,-2.8724,-3.0392,-3.0889,-3.0889,-3.0889,-2.9009,-2.6772,-2.5927,-2.3701,-2.1451,-2.0611,-2.0434,-2.0434,-2.0434,-2.0668,-2.0875,-2.0875,-2.0875,-2.0875,-2.0875,-2.0742,-2.1177,-2.2861,-2.4257,-2.5679,-2.7342,-2.8918,-2.9853,-2.9853,-3.0049,-3.0176,-3.0176,-3.0176,-3.0088,-2.9873,-2.9853,-3.0059,-3.0498,-3.0518,-3.0635,-3.0889,-3.0889,-3.0889,-3.0889,-3.0889,-3.0889,-3.0889,-3.0889,-3.0889,-1.8412,-1.9291,-2.0239,-1.9891,-1.9842,-1.9819,-1.9588,-1.8968,-1.8365,-1.8237,-1.8887,-2.0062,-2.1844,-2.4039,-2.6018,-2.7362,-3.015,-3.3623,-3.7795,-3.9796,-4.1429,-4.3006,-4.3361,-4.3074,-4.1985,-4.169,-4.1169,-4.0083,-3.9788,-3.9581,-3.9362,-3.9362,-3.9362,-3.9362,-3.9141,-3.9141,-3.9362,-3.9581,-3.9581,-3.9362,-3.9581,-4.0364,-4.1604,-4.1604,-4.1015,-4.0045,-4.0045,-3.8466,-3.579,-3.4304,-3.2463,-3.0296,-2.7202,-2.5016,-2.3387,-2.1727,-2.1229,-2.1727,-2.369,-2.5391,-2.6953,-2.8358,-2.8783,-2.9039,-3.046,-3.0889,-3.0889,-3.0889,-2.8545,-2.5976,-2.5976,-2.3404,-2.0742,-2.0742,-2.0742,-2.0742,-2.0742,-2.0935,-2.1109,-2.1109,-2.1109,-2.1109,-2.1109,-2.1109,-2.1664,-2.3325,-2.464,-2.5999,-2.7687,-2.9296,-3.0303,-3.0303,-3.0654,-3.0889,-3.0889,-3.0889,-3.0723,-3.0332,-3.0303,-3.0478,-3.0869,-3.0889,-3.0889,-3.0889,-3.0889,-3.0889,-3.0889,-3.0889,-3.0889,-3.0889,-3.0889,-3.0889,-2.1209,-2.2066,-2.2157,-2.0346,-2.1208,-2.2163,-2.0874,-2.0473,-2.0133,-1.9272,-1.9775,-2.132,-2.4248,-2.6097,-2.8252,-3.1546,-3.4083,-3.6364,-3.8488,-3.9969,-4.1042,-4.1821,-4.2834,-4.3409,-4.3218,-4.2217,-4.1505,-4.1319,-4.0313,-3.9129,-3.7902,-3.7849,-3.7849,-3.7849,-3.6607,-3.6553,-3.7849,-3.9077,-3.9077,-3.7849,-3.9077,-4.0364,-4.1604,-4.1604,-4.2057,-4.2876,-4.2876,-4.1334,-3.865,-3.7186,-3.4229,-3.0296,-2.7202,-2.5016,-2.3387,-2.1727,-2.1971,-2.3628,-2.6599,-2.8733,-3.0216,-3.046,-3.0518,-3.0577,-3.083,-3.0889,-3.0889,-3.0889,-2.8545,-2.5976,-2.5976,-2.3507,-2.1042,-2.1042,-2.1042,-2.1042,-2.1042,-2.1076,-2.1109,-2.1109,-2.1109,-2.1109,-2.1109,-2.1109,-2.1664,-2.3325,-2.4915,-2.6498,-2.8089,-2.974,-3.0781,-3.0781,-3.085,-3.0889,-3.0889,-3.0889,-3.0859,-3.0791,-3.0781,-3.081,-3.0889,-3.0889,-3.0889,-3.0889,-3.0889,-3.0889,-3.0889,-3.0889,-3.0889,-3.0889,-3.0889,-3.0889,-2.1129,-2.2478,-2.3429,-2.2727,-2.3409,-2.3892,-2.2547,-2.2358,-2.2172,-2.1098,-2.1868,-2.3515,-2.6101,-2.7783,-3.0136,-3.4232,-3.6194,-3.7906,-3.97,-4.1289,-4.2631,-4.3557,-4.478,-4.5252,-4.4595,-4.3361,-4.2363,-4.1654,-3.9674,-3.8243,-3.753,-3.6757,-3.6325,-3.6325,-3.5672,-3.5233,-3.5101,-3.7358,-3.819,-3.7518,-3.9687,-4.1406,-4.2641,-4.3361,-4.3975,-4.4549,-4.4549,-4.302,-4.0475,-3.8999,-3.6333,-3.2849,-2.9704,-2.7022,-2.4594,-2.2027,-2.2702,-2.5138,-2.6591,-2.8792,-3.0889,-3.0889,-3.0889,-3.0889,-3.0889,-3.0274,-2.9717,-3.0645,-2.8545,-2.5976,-2.5976,-2.3544,-2.1109,-2.1109,-2.1109,-2.1109,-2.1109,-2.1109,-2.1109,-2.1109,-2.1109,-2.1109,-2.1109,-2.1109,-2.1355,-2.216,-2.3621,-2.5261,-2.6893,-2.8545,-2.9903,-3.082,-3.0889,-3.0889,-3.0889,-3.0889,-3.0889,-3.0889,-3.0889,-3.0889,-3.0889,-3.0889,-3.0889,-3.0889,-3.0889,-3.0889,-3.0889,-3.0889,-3.0889,-3.0889,-3.0889,-3.0889,-2.0471,-2.2219,-2.3952,-2.4851,-2.5195,-2.5108,-2.4338,-2.4039,-2.3791,-2.3293,-2.3957,-2.5344,-2.77,-2.9825,-3.2409,-3.6163,-3.7676,-3.8879,-4.0366,-4.1984,-4.3551,-4.478,-4.6062,-4.6594,-4.5928,-4.4396,-4.3122,-4.2119,-3.9534,-3.769,-3.7026,-3.589,-3.5123,-3.4792,-3.447,-3.3912,-3.3134,-3.5661,-3.6972,-3.7026,-4.0147,-4.2266,-4.3551,-4.4826,-4.5539,-4.5824,-4.5824,-4.4595,-4.2336,-4.0561,-3.8221,-3.5374,-3.1956,-2.8487,-2.5192,-2.3489,-2.4155,-2.6098,-2.6893,-2.8801,-3.0889,-3.0889,-3.0889,-3.0889,-3.0889,-3.002,-2.9275,-3.0518,-2.8801,-2.647,-2.6106,-2.3544,-2.1109,-2.1109,-2.1109,-2.1109,-2.1109,-2.1109,-2.1109,-2.1109,-2.1109,-2.1109,-2.1109,-2.1109,-2.1109,-2.1109,-2.2529,-2.4054,-2.5261,-2.7202,-2.8911,-3.0206,-3.0645,-3.0889,-3.0889,-3.0889,-3.0889,-3.0889,-3.0889,-3.0889,-3.0889,-3.0889,-3.0889,-3.0889,-3.0889,-3.0889,-3.0889,-3.0889,-3.0889,-3.0889,-3.0889,-3.0889,-2.025,-2.1866,-2.3441,-2.5431,-2.584,-2.5833,-2.6035,-2.5029,-2.4399,-2.5889,-2.5599,-2.6022,-2.9136,-3.2683,-3.5737,-3.76,-3.8831,-3.9636,-3.9776,-4.0906,-4.2217,-4.3504,-4.478,-4.5973,-4.7062,-4.4918,-4.3456,-4.3361,-4.0969,-3.8372,-3.5617,-3.5354,-3.4681,-3.3293,-3.193,-3.1825,-3.3077,-3.4681,-3.5453,-3.5508,-3.965,-4.2266,-4.3551,-4.4826,-4.6062,-4.7164,-4.7164,-4.6403,-4.4904,-4.2253,-3.955,-3.6619,-3.2293,-2.7825,-2.4116,-2.6841,-2.7073,-2.647,-2.9471,-3.0704,-3.0889,-3.0889,-3.0889,-3.0889,-3.0889,-3.083,-3.0772,-3.0889,-2.9589,-2.7871,-2.6401,-2.3544,-2.1109,-2.1109,-2.1109,-2.1109,-2.1109,-2.1109,-2.1109,-2.1109,-2.1109,-2.1109,-2.1109,-2.1109,-2.1109,-2.1109,-2.2529,-2.3636,-2.3752,-2.6478,-2.8417,-2.8545,-2.9962,-3.0889,-3.0889,-3.0889,-3.0889,-3.0889,-3.0889,-3.0889,-3.0889,-3.0889,-3.0889,-3.0889,-3.0889,-3.0889,-3.0889,-3.0889,-3.0889,-3.0889,-3.0889,-3.0889,-1.9231,-2.0992,-2.2786,-2.4957,-2.5583,-2.5847,-2.6515,-2.7202,-2.7666,-2.7465,-2.7926,-2.8849,-3.0461,-3.328,-3.5649,-3.6585,-3.841,-3.9697,-3.9697,-4.0794,-4.207,-4.3361,-4.4642,-4.5928,-4.7164,-4.5734,-4.4349,-4.3551,-4.1002,-3.8291,-3.5453,-3.4403,-3.3247,-3.1767,-3.116,-3.117,-3.171,-3.3191,-3.4403,-3.5343,-4.0361,-4.3026,-4.3551,-4.5644,-4.6829,-4.7309,-4.7309,-4.6594,-4.5252,-4.3407,-4.107,-3.8016,-3.2667,-2.8969,-2.6599,-2.6832,-2.7134,-2.7692,-2.8911,-3.002,-3.0889,-3.0889,-3.0889,-3.0889,-3.0889,-3.0147,-2.9589,-3.0587,-2.8979,-2.7013,-2.7383,-2.5077,-2.2654,-2.2654,-2.1853,-2.1109,-2.1109,-2.1109,-2.1109,-2.1109,-2.1109,-2.1109,-2.1109,-2.1109,-2.1109,-2.1109,-2.1664,-2.2404,-2.345,-2.4663,-2.6175,-2.8179,-2.9903,-3.0889,-3.0889,-3.0889,-3.0889,-3.0889,-3.0889,-3.0889,-3.0889,-3.0889,-3.0889,-3.0889,-3.0889,-3.0889,-3.0889,-3.0889,-3.0889,-3.0889,-3.0889,-3.0889,-1.7957,-1.9931,-2.2162,-2.4584,-2.5831,-2.6782,-2.7912,-2.8944,-2.9624,-2.958,-3.0161,-3.0953,-3.189,-3.3696,-3.5096,-3.5425,-3.7493,-3.9025,-3.9025,-3.9738,-4.0954,-4.2689,-4.4022,-4.5298,-4.6594,-4.5928,-4.4872,-4.3598,-4.136,-3.8918,-3.6151,-3.4626,-3.3145,-3.1662,-3.116,-3.0889,-3.0889,-3.2369,-3.3631,-3.4681,-3.9294,-4.2229,-4.3551,-4.5734,-4.6916,-4.7309,-4.7309,-4.6829,-4.5869,-4.421,-4.1383,-3.7669,-3.3124,-3.0179,-2.8358,-2.7751,-2.7931,-2.8486,-2.903,-2.9962,-3.0889,-3.0889,-3.0889,-3.0889,-3.0889,-3.0089,-2.9403,-3.0577,-2.9285,-2.7811,-2.8911,-2.6426,-2.345,-2.2959,-2.1908,-2.1109,-2.1109,-2.1109,-2.1109,-2.1109,-2.1109,-2.1109,-2.1109,-2.1109,-2.1109,-2.1109,-2.1109,-2.1481,-2.2647,-2.3263,-2.4663,-2.7323,-2.8673,-2.953,-3.0089,-3.0089,-3.0333,-3.0889,-3.0889,-3.0889,-3.0889,-3.0889,-3.0889,-3.0889,-3.0889,-3.0889,-3.0889,-3.0889,-3.0889,-3.0889,-3.0889,-3.0889,-1.6483,-1.8769,-2.1532,-2.4446,-2.676,-2.88,-3.0604,-2.9902,-2.9645,-3.2448,-3.2219,-3.1984,-3.3552,-3.4187,-3.4501,-3.4398,-3.614,-3.7518,-3.7465,-3.7465,-3.8497,-4.1243,-4.2689,-4.3975,-4.5252,-4.5403,-4.4872,-4.3598,-4.2315,-4.0414,-3.7678,-3.6108,-3.4626,-3.3134,-3.1652,-3.0889,-3.0889,-3.2311,-3.3067,-3.3124,-3.5817,-3.9346,-4.349,-4.478,-4.6062,-4.7266,-4.7266,-4.7309,-4.7121,-4.4549,-4.0272,-3.5123,-3.3687,-3.1206,-2.8605,-3.0274,-2.9835,-2.8664,-3.0333,-3.0889,-3.0889,-3.0889,-3.0889,-3.0889,-3.0889,-3.0889,-3.0889,-3.0889,-3.0889,-3.0889,-3.0889,-2.7289,-2.3201,-2.1538,-2.1109,-2.1109,-2.1109,-2.1109,-2.1109,-2.1109,-2.1109,-2.1109,-2.1109,-2.1109,-2.1109,-2.1109,-2.1109,-2.1109,-2.1109,-2.2591,-2.4232,-2.5802,-2.5976,-2.6651,-2.823,-2.8417,-2.9098,-3.0772,-3.0889,-3.0889,-3.0889,-3.0889,-3.0889,-3.0889,-3.0889,-3.0889,-3.083,-3.083,-3.083,-3.0889,-3.0889,-3.0889,-1.6019,-1.8982,-2.2371,-2.4756,-2.7592,-3.0373,-3.2528,-3.2807,-3.3001,-3.4328,-3.4123,-3.381,-3.43,-3.53,-3.5761,-3.4739,-3.6205,-3.7133,-3.6108,-3.5945,-3.6967,-3.9728,-4.0373,-4.1897,-4.5101,-4.5403,-4.4872,-4.3598,-4.317,-4.1363,-3.7666,-3.7091,-3.5715,-3.318,-3.2701,-3.193,-3.0889,-3.0149,-3.0315,-3.1367,-3.2143,-3.5366,-4.0661,-4.1927,-4.3775,-4.5973,-4.5973,-4.6447,-4.7121,-4.4549,-4.0272,-3.5245,-3.4792,-3.2783,-3.0206,-3.0704,-3.0587,-3.0206,-3.0704,-3.0889,-3.0889,-3.0889,-3.0889,-3.0889,-3.0889,-3.0889,-3.0889,-3.0889,-3.0889,-3.0645,-2.9471,-2.7202,-2.513,-2.464,-2.2757,-2.1109,-2.1109,-2.1109,-2.1109,-2.1109,-2.1109,-2.1109,-2.1109,-2.1109,-2.1109,-2.1109,-2.1109,-2.1109,-2.1109,-2.2591,-2.3752,-2.4232,-2.5322,-2.6158,-2.6651,-2.7751,-2.8119,-2.7512,-2.8545,-2.9648,-3.083,-3.0889,-3.0333,-2.9157,-2.9157,-2.8605,-2.7452,-2.7452,-2.8059,-2.9157,-2.9157,-2.9776,-1.6358,-1.9709,-2.3448,-2.6127,-2.8857,-3.1641,-3.4562,-3.5003,-3.5334,-3.7112,-3.584,-3.4637,-3.5569,-3.6226,-3.5981,-3.4284,-3.5468,-3.6108,-3.4626,-3.4414,-3.5463,-3.8294,-3.9088,-4.0598,-4.3618,-4.4349,-4.4116,-4.2834,-4.2738,-4.1452,-3.8558,-3.7796,-3.6692,-3.488,-3.3733,-3.269,-3.1767,-2.9552,-2.8865,-2.9693,-2.9087,-3.1284,-3.6037,-3.9143,-4.1719,-4.3836,-4.4935,-4.5539,-4.5689,-4.4116,-4.06,-3.6108,-3.5508,-3.3866,-3.171,-3.1112,-3.0889,-3.0889,-3.0889,-3.0889,-3.0889,-3.0889,-3.0889,-3.0889,-3.0889,-3.0889,-3.0889,-3.0889,-3.0889,-3.0645,-2.9658,-2.8179,-2.6651,-2.5322,-2.3007,-2.1109,-2.1109,-2.1109,-2.1109,-2.1109,-2.1109,-2.1109,-2.1109,-2.1109,-2.1109,-2.1109,-2.1109,-2.1109,-2.1109,-2.1971,-2.2591,-2.2591,-2.3489,-2.434,-2.5016,-2.5932,-2.6357,-2.6037,-2.6893,-2.7871,-2.892,-2.8979,-2.8486,-2.7443,-2.7443,-2.6953,-2.5976,-2.5976,-2.653,-2.7443,-2.7443,-2.8,-1.7122,-2.0638,-2.4651,-2.8005,-3.0393,-3.2918,-3.6558,-3.6628,-3.6816,-3.9969,-3.7349,-3.5154,-3.7287,-3.7068,-3.5828,-3.3649,-3.4414,-3.4748,-3.3134,-3.2918,-3.3957,-3.6745,-3.8242,-3.9677,-4.1267,-4.2593,-4.2834,-4.169,-4.1604,-4.1032,-3.9788,-3.8413,-3.7636,-3.7518,-3.4781,-3.3247,-3.3077,-2.9808,-2.817,-2.817,-2.653,-2.7322,-3.0393,-3.6025,-3.955,-4.1274,-4.4004,-4.4503,-4.3313,-4.3313,-4.1039,-3.7358,-3.589,-3.4403,-3.2907,-3.1441,-3.0889,-3.0889,-3.0889,-3.0889,-3.0889,-3.0889,-3.0889,-3.0889,-3.0889,-3.0889,-3.0889,-3.0889,-3.0889,-3.0889,-3.0889,-2.9658,-2.7632,-2.454,-2.2522,-2.1292,-2.1109,-2.1109,-2.1109,-2.1109,-2.1109,-2.1109,-2.1109,-2.1109,-2.1109,-2.1109,-2.1109,-2.1109,-2.1109,-2.1109,-2.1109,-2.1109,-2.1109,-2.1727,-2.3263,-2.3512,-2.4178,-2.5489,-2.568,-2.5733,-2.5558,-2.5855,-2.5915,-2.5802,-2.5802,-2.5733,-2.555,-2.555,-2.5611,-2.5802,-2.5802,-2.5855,-1.6339,-2.0703,-2.5565,-2.7858,-3.1595,-3.5353,-3.8093,-3.7789,-3.738,-3.898,-3.8866,-3.8637,-3.9144,-3.9047,-3.804,-3.5255,-3.5068,-3.4359,-3.172,-3.1383,-3.2045,-3.3845,-3.5298,-3.7145,-3.9613,-4.1165,-4.1887,-4.1604,-4.1604,-4.1032,-3.9788,-3.9413,-3.8687,-3.753,-3.577,-3.4292,-3.3134,-2.871,-2.6522,-2.653,-2.4901,-2.513,-2.7082,-3.0797,-3.5149,-3.9956,-4.2739,-4.317,-4.2035,-4.2035,-4.0236,-3.7358,-3.589,-3.4403,-3.2907,-3.1441,-3.0889,-3.0889,-3.0889,-3.0889,-3.0889,-3.0889,-3.0889,-3.0889,-3.0889,-3.0889,-3.0889,-3.0889,-3.0889,-3.0889,-3.0889,-2.9658,-2.7931,-2.5924,-2.4232,-2.2716,-2.1355,-2.1109,-2.1109,-2.1109,-2.1109,-2.1109,-2.1109,-2.1109,-2.1109,-2.1109,-2.1109,-2.1109,-2.1109,-2.1109,-2.1109,-2.1109,-2.1109,-2.1235,-2.1601,-2.2834,-2.3201,-2.2208,-2.338,-2.3504,-2.2208,-2.464,-2.5383,-2.4116,-2.4116,-2.3442,-2.2146,-2.2146,-2.2827,-2.4116,-2.4116,-2.4778,-1.6501,-2.0498,-2.5243,-2.9454,-3.2995,-3.5894,-3.7441,-3.7486,-3.7349,-3.7939,-3.8718,-3.9487,-4.0005,-3.9893,-3.8973,-3.6715,-3.5781,-3.4526,-3.2264,-3.1334,-3.1441,-3.2907,-3.38,-3.5353,-3.8202,-3.92,-3.9918,-4.0642,-4.0693,-4.0415,-3.9736,-3.9697,-3.9362,-3.8582,-3.7145,-3.5672,-3.4181,-3.019,-2.7869,-2.7134,-2.5505,-2.5566,-2.7254,-3.0393,-3.4593,-3.9473,-4.0911,-4.1548,-4.1604,-4.1604,-3.9994,-3.7358,-3.589,-3.4403,-3.2907,-3.1441,-3.0889,-3.0889,-3.0889,-3.0889,-3.0889,-3.0889,-3.0889,-3.0889,-3.0889,-3.0889,-3.0889,-3.0889,-3.0889,-3.0889,-3.0889,-2.9658,-2.7991,-2.6401,-2.4778,-2.3139,-2.1481,-2.1109,-2.1109,-2.1109,-2.1109,-2.1109,-2.1109,-2.1109,-2.1109,-2.1109,-2.1109,-2.1109,-2.1109,-2.1109,-2.1109,-2.1109,-2.1109,-2.1109,-2.1109,-2.1908,-2.2034,-2.1172,-2.1908,-2.2034,-2.1172,-2.2757,-2.3248,-2.2404,-2.2404,-2.1971,-2.1109,-2.1109,-2.1538,-2.2404,-2.2404,-2.2827,-1.6473,-2.0195,-2.4743,-3.0835,-3.3791,-3.5329,-3.5824,-3.6538,-3.7132,-3.7311,-3.8258,-3.9293,-4.0031,-3.9977,-3.929,-3.7652,-3.6213,-3.4792,-3.3293,-3.1815,-3.1325,-3.2587,-3.2964,-3.4181,-3.6865,-3.7358,-3.8125,-3.9581,-3.989,-4.0032,-4.0032,-4.0032,-4.0032,-4.0032,-3.8388,-3.6811,-3.5288,-3.2148,-2.9859,-2.8358,-2.7073,-2.7134,-2.8536,-3.1677,-3.5133,-3.8714,-3.8985,-3.9931,-4.1269,-4.0993,-3.9534,-3.7358,-3.5617,-3.4181,-3.2907,-3.1441,-3.0889,-3.0889,-3.0889,-3.0889,-3.0889,-3.0889,-3.0889,-3.0889,-3.0889,-3.0889,-3.0889,-3.0889,-3.0889,-3.0889,-3.0889,-2.9658,-2.7991,-2.6401,-2.4778,-2.3139,-2.1481,-2.1109,-2.1109,-2.1109,-2.1109,-2.1109,-2.1109,-2.1109,-2.1109,-2.1109,-2.1109,-2.1109,-2.1109,-2.1109,-2.1109,-2.1109,-2.1109,-2.1109,-2.1109,-2.1109,-2.1109,-2.1109,-2.1109,-2.1109,-2.1109,-2.1109,-2.1109,-2.1109,-2.1109,-2.1109,-2.1109,-2.1109,-2.0976,-2.0652,-2.0652,-2.0519,-1.4669,-1.9995,-2.5701,-2.9161,-3.2008,-3.3958,-3.4018,-3.5336,-3.6776,-3.7782,-3.8909,-3.9397,-3.8485,-3.9522,-3.9658,-3.7204,-3.5983,-3.4792,-3.3293,-3.1815,-3.0947,-3.116,-3.2311,-3.3744,-3.5453,-3.6757,-3.8125,-3.9581,-4.0693,-4.1369,-4.1369,-4.1369,-4.1369,-4.1369,-3.881,-3.6811,-3.5288,-3.2148,-2.9859,-2.8417,-2.817,-2.8179,-2.8536,-3.1677,-3.4114,-3.5911,-3.7216,-3.8598,-3.9865,-3.8586,-3.7825,-3.724,-3.4448,-3.3293,-3.2907,-3.1441,-3.0889,-3.0889,-3.0889,-3.0889,-3.0889,-3.0889,-3.0889,-3.0889,-3.0889,-3.0889,-3.0889,-3.0889,-3.0889,-3.0889,-3.0889,-2.9658,-2.7991,-2.6401,-2.4778,-2.3139,-2.1481,-2.1109,-2.1109,-2.1109,-2.1109,-2.1109,-2.1109,-2.1109,-2.1109,-2.1109,-2.1109,-2.1109,-2.1109,-2.1109,-2.1109,-2.1109,-2.1109,-2.1109,-2.1109,-2.1109,-2.1109,-2.1109,-2.1109,-2.1109,-2.1109,-2.1109,-2.1109,-2.1109,-2.1109,-2.1109,-2.1109,-2.1109,-2.0329,-1.8832,-1.8832,-1.8052,-1.5487,-2.0188,-2.4828,-2.8667,-3.1019,-3.2757,-3.3986,-3.5121,-3.6033,-3.655,-3.7814,-3.8759,-3.8532,-3.8833,-3.8775,-3.7614,-3.6692,-3.5577,-3.4043,-3.2864,-3.1825,-3.1005,-3.1488,-3.2758,-3.5079,-3.589,-3.721,-3.953,-4.0882,-4.1604,-4.1604,-4.2266,-4.2363,-4.1604,-4.0414,-3.8745,-3.6541,-3.5144,-3.3289,-3.1032,-3.1032,-3.1032,-3.109,-3.3318,-3.4681,-3.5398,-3.6865,-3.836,-3.9581,-3.8137,-3.7026,-3.6054,-3.3957,-3.2587,-3.1767,-3.1112,-3.0889,-3.0889,-3.0889,-3.0889,-3.0889,-3.0889,-3.0889,-3.0889,-3.0889,-3.0889,-3.0889,-3.0889,-3.0889,-3.0704,-2.9717,-2.8298,-2.6651,-2.5024,-2.338,-2.1971,-2.1229,-2.1109,-2.1109,-2.1109,-2.1109,-2.1109,-2.1109,-2.1109,-2.1109,-2.1109,-2.1109,-2.1109,-2.1109,-2.1109,-2.1109,-2.1109,-2.1109,-2.1109,-2.1109,-2.1109,-2.1109,-2.1109,-2.1109,-2.1109,-2.1109,-2.1109,-2.1109,-2.1109,-2.1109,-2.0589,-1.961,-1.961,-1.8768,-1.7017,-1.7017,-1.6625,-1.5979,-1.9451,-2.2661,-2.6755,-2.9215,-3.1071,-3.297,-3.4305,-3.5157,-3.5445,-3.6773,-3.7977,-3.8199,-3.8229,-3.8119,-3.7838,-3.7049,-3.6062,-3.4933,-3.3584,-3.2333,-3.1357,-3.0935,-3.1809,-3.4448,-3.5068,-3.6391,-3.8973,-4.0667,-4.1604,-4.1604,-4.2509,-4.2593,-4.1654,-4.1269,-3.9969,-3.7518,-3.7145,-3.5825,-3.3687,-3.3687,-3.3687,-3.3687,-3.5178,-3.6031,-3.6376,-3.7174,-3.836,-3.9581,-3.8137,-3.6649,-3.5123,-3.3687,-3.2207,-3.0889,-3.0889,-3.0889,-3.0889,-3.0889,-3.0889,-3.0889,-3.0889,-3.0587,-3.0333,-3.0772,-3.0577,-3.0333,-3.0762,-3.0889,-3.0518,-2.8852,-2.7202,-2.5619,-2.3993,-2.2341,-2.1109,-2.1109,-2.1109,-2.1109,-2.1109,-2.1109,-2.1109,-2.1109,-2.1109,-2.1109,-2.1109,-2.1109,-2.1109,-2.1109,-2.1109,-2.1109,-2.1109,-2.1109,-2.1109,-2.1109,-2.1109,-2.1109,-2.1109,-2.1109,-2.1109,-2.1109,-2.1109,-2.1109,-2.1109,-2.0652,-1.9807,-1.8506,-1.8052,-1.6953,-1.5269,-1.5269,-1.5009,-1.4897,-1.7007,-1.9069,-2.2129,-2.5593,-2.8539,-2.9636,-3.2004,-3.4274,-3.5282,-3.6464,-3.7174,-3.6611,-3.7792,-3.8483,-3.7404,-3.6451,-3.5801,-3.575,-3.3389,-3.1814,-3.2076,-3.099,-3.1,-3.3035,-3.4459,-3.5945,-3.7518,-4.0109,-4.1604,-4.1604,-4.1654,-4.1654,-4.1604,-4.0415,-3.9065,-3.7518,-3.6108,-3.5343,-3.5189,-3.5189,-3.5189,-3.5233,-3.6703,-3.8028,-3.9127,-3.7988,-3.836,-3.9581,-3.8137,-3.6649,-3.5123,-3.3687,-3.2207,-3.0889,-3.0889,-3.0889,-3.0889,-3.0889,-3.0889,-3.0889,-3.0889,-2.9835,-2.8852,-3.0392,-2.9776,-2.8852,-3.046,-3.0889,-3.0518,-2.8852,-2.7202,-2.5619,-2.3993,-2.2341,-2.1109,-2.1109,-2.1109,-2.1109,-2.1109,-2.1109,-2.1109,-2.1109,-2.1109,-2.1109,-2.1109,-2.1109,-2.1109,-2.1109,-2.1109,-2.1109,-2.1109,-2.1109,-2.1109,-2.1109,-2.1109,-2.1109,-2.1109,-2.1109,-2.1109,-2.1109,-2.1109,-2.1109,-2.1109,-1.9483,-1.8576,-1.8506,-1.6824,-1.5135,-1.3451,-1.3451,-1.2545,-1.4164,-1.5799,-1.7878,-2.26,-2.5282,-2.7355,-2.9732,-3.1877,-3.3687,-3.4779,-3.5891,-3.6805,-3.7266,-3.7912,-3.8024,-3.6871,-3.6711,-3.6344,-3.542,-3.471,-3.3654,-3.2011,-3.1395,-3.1525,-3.2528,-3.3117,-3.4548,-3.7269,-3.9162,-4.0588,-4.1541,-4.2363,-4.2461,-4.1654,-4.1936,-4.1896,-4.1337,-3.91,-3.7944,-3.7891,-3.7086,-3.6703,-3.6811,-3.9109,-4.0388,-4.0815,-4.1201,-4.1191,-4.0831,-3.9317,-3.7911,-3.6487,-3.4069,-3.2804,-3.2311,-3.2311,-3.171,-3.1054,-3.1988,-3.171,-3.0889,-3.0889,-3.0518,-3.0147,-3.0704,-3.046,-3.0147,-3.0704,-3.0889,-3.0274,-2.7563,-2.6401,-2.5314,-2.264,-2.1544,-2.1109,-2.1109,-2.1109,-2.1109,-2.1109,-2.1109,-2.1109,-2.1109,-2.1109,-2.1109,-2.1109,-2.1109,-2.1109,-2.1109,-2.1109,-2.1109,-2.1109,-2.1109,-2.1109,-2.1109,-2.1109,-2.1109,-2.1109,-2.1109,-2.1109,-2.1109,-2.1109,-2.1109,-2.1109,-1.8314,-1.6824,-1.6824,-1.5074,-1.3325,-1.1633,-1.1633,-1.1306,-1.3362,-1.4723,-1.6652,-2.1712,-2.3844,-2.5578,-2.8759,-3.0879,-3.2654,-3.4342,-3.5841,-3.7042,-3.7772,-3.803,-3.7771,-3.6796,-3.6818,-3.6596,-3.5587,-3.5382,-3.4683,-3.2964,-3.1934,-3.1586,-3.2101,-3.2143,-3.3138,-3.5409,-3.6823,-3.8294,-3.9904,-4.0778,-4.1376,-4.1591,-4.2412,-4.3074,-4.3504,-4.1692,-4.0761,-4.0761,-3.9484,-3.8862,-3.8914,-4.0338,-4.1406,-4.2266,-4.3122,-4.2786,-4.1541,-4.0538,-3.9111,-3.7252,-3.4781,-3.3519,-3.3077,-3.3077,-3.215,-3.1112,-3.2587,-3.215,-3.0889,-3.0889,-3.0518,-3.0147,-3.0704,-3.0518,-3.0206,-3.0762,-3.0889,-3.0147,-2.6832,-2.5184,-2.3792,-2.1601,-2.1109,-2.1109,-2.1109,-2.1109,-2.1109,-2.1109,-2.1109,-2.1109,-2.1109,-2.1109,-2.1109,-2.1109,-2.1109,-2.1109,-2.1109,-2.1109,-2.1109,-2.1109,-2.1109,-2.1109,-2.1109,-2.1109,-2.1109,-2.1109,-2.1109,-2.1109,-2.1109,-2.1109,-2.1109,-2.1109,-1.7667,-1.5913,-1.5913,-1.3582,-1.1828,-1.0721,-1.0721,-1.0721,0.0,0.0,0.0,-1.8968,-2.1064,-2.3086,-2.6501,-2.8858,-3.1151,-3.4058,-3.6261,-3.7705,-3.7909,-3.7979,-3.781,-3.7193,-3.6706,-3.6392,-3.6405,-3.5271,-3.4564,-3.4963,-3.2646,-3.1178,-3.1575,-3.1671,-3.1746,-3.1811,-3.311,-3.4738,-3.6621,-3.6772,-3.8294,-4.1479,-4.1654,-4.2266,-4.3551,-4.3551,-4.3551,-4.3551,-4.2217,-4.1604,-4.1555,-4.0313,-4.1119,-4.3456,-4.3504,-4.2786,-4.1604,-4.1654,-4.0045,-3.7412,-3.589,-3.4414,-3.3191,-3.3134,-3.215,-3.1112,-3.2587,-3.215,-3.0889,-3.0889,-2.9776,-2.8783,-3.0401,-2.9776,-2.8792,-3.045,-3.0889,-3.0147,-2.6832,-2.3544,-2.1109,-2.1109,-2.1109,-2.1109,-2.1109,-2.1109,-2.1109,-2.1109,-2.1109,-2.1109,-2.1109,-2.1109,-2.1109,-2.1109,-2.1109,-2.1109,-2.1109,-2.1109,-2.1109,-2.1109,-2.1109,-2.1109,-2.1109,-2.1109,-2.1109,-2.1109,-2.1109,-2.1109,-2.1109,-2.1109,-2.1109,-2.1109,-1.7731,-1.5983,-1.5913,-1.2413,-1.0721,-1.0721,-1.0721,-1.0721,-1.2519,0.0,0.0,0.0,0.0,0.0,-2.6046,-2.7893,-2.9768,-3.2727,-3.4211,-3.5632,-3.7872,-3.7388,-3.6741,-3.7056,-3.6337,-3.5906,-3.6355,-3.6061,-3.5524,-3.4674,-3.301,-3.1717,-3.121,-3.0252,-3.0285,-3.1671,-3.2179,-3.3123,-3.4662,-3.6038,-3.8294,-4.1479,-4.2509,-4.3598,-4.4872,-4.4872,-4.4872,-4.4826,-4.2641,-4.1604,-4.1604,-4.1219,-4.1455,-4.2168,-4.3122,-4.2786,-4.1654,-4.2593,-4.1416,-3.8856,-3.6283,-3.5068,-3.457,-3.3519,-3.215,-3.1112,-3.2587,-3.215,-3.0889,-3.0889,-3.0587,-3.0274,-3.0762,-3.0577,-3.0333,-3.0772,-3.0889,-3.0147,-2.6832,-2.3544,-2.1109,-2.1109,-2.1109,-2.1109,-2.1109,-2.1109,-2.1109,-2.1109,-2.1109,-2.1109,-2.1109,-2.1109,-2.1109,-2.1109,-2.1109,-2.1109,-2.1109,-2.1109,-2.1109,-2.1109,-2.1109,-2.1109,-2.1109,-2.1109,-2.1109,-2.1109,-2.1109,-2.1109,-2.1109,-2.1109,-2.1109,-2.1109,-1.8896,-1.7146,-1.5913,-1.2413,-1.0721,-1.0721,-1.0721,-1.0721,-1.3641,-1.5282,-1.7356,-1.9974,0.0,0.0,-2.5765,-2.6918,-2.8347,-3.2046,-3.3443,-3.4854,-3.7471,-3.6564,-3.5678,-3.6546,-3.5447,-3.4864,-3.5881,-3.6019,-3.5812,-3.5295,-3.3502,-3.2088,-3.1562,-2.9794,-2.9129,-3.0278,-3.0353,-3.1316,-3.3537,-3.5642,-3.8195,-4.1172,-4.2712,-4.4116,-4.5403,-4.5928,-4.6211,-4.6166,-4.3598,-4.2412,-4.2363,-4.1269,-4.1082,-4.1654,-4.2363,-4.2315,-4.1654,-4.2412,-4.1505,-3.9465,-3.7156,-3.5836,-3.5288,-3.5002,-3.3631,-3.2045,-3.3529,-3.3031,-3.172,-3.1112,-3.0889,-3.0889,-3.0889,-3.0889,-3.0889,-3.0889,-2.9903,-2.8426,-2.653,-2.3544,-2.1109,-2.1109,-2.1109,-2.1109,-2.1109,-2.1109,-2.1109,-2.1109,-2.1109,-2.1109,-2.1109,-2.1109,-2.1109,-2.1109,-2.1109,-2.1109,-2.1109,-2.1109,-2.1109,-2.1109,-2.1109,-2.1109,-2.1109,-2.1109,-2.1109,-2.1109,-2.1109,-2.1109,-2.1109,-2.1109,-2.1109,-2.1109,-1.9413,-1.7275,-1.4814,-1.2804,-1.1439,-1.0721,-1.0721,-1.0721,-1.559,-1.7027,0.0,-2.0909,-2.1368,0.0,-2.555,-2.6062,-2.7012,-3.1302,-3.2829,-3.4109,-3.6299,-3.5218,-3.4297,-3.5386,-3.4123,-3.3558,-3.5169,-3.5408,-3.5537,-3.5965,-3.3768,-3.2152,-3.2001,-2.9786,-2.8344,-2.8495,-2.8644,-3.0118,-3.3265,-3.5535,-3.7884,-4.0503,-4.2343,-4.3882,-4.5161,-4.6447,-4.7062,-4.7062,-4.4642,-4.3456,-4.3218,-4.0794,-4.0313,-4.1406,-4.1406,-4.1406,-4.1406,-4.1406,-4.0693,-3.953,-3.8084,-3.6703,-3.5672,-3.6811,-3.5606,-3.3519,-3.4847,-3.4459,-3.3134,-3.1825,-3.1276,-3.116,-3.116,-3.1005,-3.0889,-3.0889,-2.8545,-2.5976,-2.5976,-2.3544,-2.1109,-2.1109,-2.1109,-2.1109,-2.1109,-2.1109,-2.1109,-2.1109,-2.1109,-2.1109,-2.1109,-2.1109,-2.1109,-2.1109,-2.1109,-2.1109,-2.1109,-2.1109,-2.1109,-2.1109,-2.1109,-2.1109,-2.1109,-2.1109,-2.1109,-2.1109,-2.1109,-2.1109,-2.1109,-2.1109,-2.1109,-2.1109,-1.9413,-1.6888,-1.3582,-1.3386,-1.2413,-1.0721,-1.0721,-1.0721,-1.7642,-1.9433,-2.1406,-2.1793,-2.3133,0.0,-2.5031,-2.5524,-2.6322,-2.7876,-2.8449,-2.9392,-3.1872,-3.1707,-3.1393,-3.211,-3.2299,-3.2968,-3.4605,-3.4843,-3.4537,-3.3675,-3.2439,-3.1252,-3.032,-2.9048,-2.8751,-2.9807,-3.0916,-3.2493,-3.4687,-3.5654,-3.7134,-3.917,-4.1018,-4.2593,-4.3882,-4.5115,-4.5779,-4.5734,-4.421,-4.2978,-4.1936,-4.0415,-3.9839,-4.0083,-4.0083,-4.0083,-4.0083,-4.0083,-3.9929,-3.953,-3.8084,-3.7305,-3.6972,-3.6054,-3.5343,-3.4902,-3.5178,-3.5123,-3.4792,-3.4526,-3.3642,-3.269,-3.269,-3.1825,-3.0889,-3.0889,-2.8545,-2.5976,-2.5976,-2.3544,-2.1109,-2.1109,-2.1109,-2.1109,-2.1109,-2.1109,-2.1109,-2.1109,-2.1109,-2.1109,-2.1109,-2.1109,-2.1109,-2.1109,-2.1109,-2.1109,-2.1109,-2.1109,-2.1109,-2.1109,-2.1109,-2.1109,-2.1109,-2.1109,-2.1109,-2.1109,-2.1109,-2.1109,-2.1109,-2.1109,-2.1109,-2.1109,-1.9413,-1.7468,-1.5399,-1.397,-1.2413,-1.0721,-1.0721,-1.0721,-1.9468,-2.1019,-2.2637,-2.3324,-2.3916,0.0,0.0,-2.519,-2.5562,-2.7253,-2.7601,-2.8329,-3.0632,-3.0444,-3.0134,-3.0738,-3.1177,-3.18,-3.2905,-3.3274,-3.3278,-3.2932,-3.134,-3.0027,-2.94,-2.886,-2.9178,-3.0755,-3.1743,-3.3047,-3.4693,-3.533,-3.6484,-3.8367,-4.0865,-4.2583,-4.349,-4.5403,-4.6018,-4.5403,-4.4116,-4.2834,-4.1555,-4.0262,-3.9697,-3.9645,-3.8908,-3.8582,-3.8582,-3.8582,-3.8582,-3.8582,-3.8582,-3.8137,-3.7518,-3.7489,-3.7049,-3.6379,-3.6379,-3.6379,-3.6271,-3.5508,-3.4792,-3.408,-3.3293,-3.2092,-3.0889,-3.0889,-2.8545,-2.5976,-2.5976,-2.3544,-2.1109,-2.1109,-2.1109,-2.1109,-2.1109,-2.1109,-2.1109,-2.1109,-2.1109,-2.1109,-2.1109,-2.1109,-2.1109,-2.1109,-2.1109,-2.1109,-2.1109,-2.1109,-2.1109,-2.1109,-2.1109,-2.1109,-2.1109,-2.1109,-2.1109,-2.1109,-2.1109,-2.0716,-1.9871,-1.9807,-1.9807,-1.9807,-1.9807,-1.8506,-1.5913,-1.5009,-1.3259,-1.0721,-1.0721,-1.0721,-2.1125,-2.2392,-2.3485,-2.4659,-2.4507,-2.4325,0.0,0.0,0.0,-2.6511,-2.696,-2.7551,-2.9356,-2.9164,-2.8952,-2.9555,-2.9998,-3.0315,-3.0455,-3.0869,-3.1345,-3.1863,-2.9965,-2.8635,-2.8719,-2.9051,-2.99,-3.1608,-3.2279,-3.3191,-3.4522,-3.5245,-3.6296,-3.7777,-4.0627,-4.2475,-4.3144,-4.5532,-4.6109,-4.4838,-4.392,-4.2689,-4.1169,-3.9891,-3.9297,-3.9193,-3.7701,-3.7091,-3.7091,-3.7091,-3.7091,-3.7252,-3.9025,-3.8804,-3.7624,-3.8856,-3.836,-3.7145,-3.7412,-3.7518,-3.7358,-3.6433,-3.5781,-3.5013,-3.3575,-3.2092,-3.0889,-3.0889,-2.8733,-2.6401,-2.6098,-2.3792,-2.1475,-2.1172,-2.1109,-2.1109,-2.1109,-2.1109,-2.1109,-2.1109,-2.1109,-2.1109,-2.1109,-2.1109,-2.1109,-2.1109,-2.1109,-2.1109,-2.1109,-2.1109,-2.1109,-2.1109,-2.1109,-2.1109,-2.1109,-2.1109,-2.1109,-2.1109,-2.1109,-2.0329,-1.857,-1.8186,-1.7988,-1.7988,-1.9737,-1.8896,-1.5394,-1.5719,-1.4101,-1.0721,-1.0721,-1.0721,-2.26,-2.3957,-2.5073,-2.486,-2.5485,-2.5865,-2.4661,0.0,-2.3404,-2.2762,0.0,-2.4071,-2.4832,0.0,0.0,-2.6848,-2.8145,-2.8648,-2.7324,-2.7551,-2.7985,-2.8428,-2.7677,-2.7285,-2.7704,-2.9553,-3.1237,-3.2465,-3.3266,-3.4226,-3.5301,-3.637,-3.7053,-3.7274,-3.9155,-4.069,-4.1902,-4.3775,-4.4091,-4.2842,-4.3288,-4.2217,-3.9878,-3.84,-3.7743,-3.769,-3.6162,-3.5563,-3.5563,-3.5563,-3.5563,-3.5836,-3.8582,-3.8804,-3.7518,-3.769,-3.6811,-3.5727,-3.7037,-3.7518,-3.769,-3.8804,-3.7435,-3.5013,-3.3575,-3.2092,-3.0889,-3.0889,-2.9589,-2.7811,-2.634,-2.4655,-2.2959,-2.1475,-2.1109,-2.1109,-2.1109,-2.1109,-2.1109,-2.1109,-2.1109,-2.1109,-2.1109,-2.1109,-2.1109,-2.1109,-2.1109,-2.1109,-2.1109,-2.1109,-2.1109,-2.1109,-2.1109,-2.1109,-2.1109,-2.1109,-2.1109,-2.1109,-2.1109,-2.0329,-1.857,-1.7017,-1.6172,-1.6172,-1.7923,-1.7082,-1.3582,-1.5139,-1.4101,-1.0721,-1.0721,-1.0721,-2.2659,-2.3747,-2.4476,-2.4465,-2.4732,-2.4757,-2.3681,-2.3471,-2.3297,-2.2635,0.0,0.0,0.0,0.0,0.0,0.0,-2.7112,-2.7258,-2.638,-2.5367,-2.5128,-2.6107,-2.5355,-2.5444,-2.7259,-2.9079,-3.0802,-3.2286,-3.304,-3.3909,-3.4969,-3.5759,-3.6533,-3.7161,-3.8631,-4.016,-4.1694,-4.3588,-4.3856,-4.2513,-4.3166,-4.1722,-3.84,-3.7796,-3.7026,-3.6162,-3.4681,-3.4013,-3.4013,-3.4013,-3.4013,-3.4236,-3.6337,-3.6769,-3.6217,-3.6217,-3.5836,-3.5409,-3.5999,-3.6217,-3.6487,-3.7914,-3.6984,-3.5178,-3.457,-3.2768,-3.0889,-3.0889,-2.9707,-2.8051,-2.6409,-2.484,-2.3208,-2.1475,-2.1109,-2.1109,-2.1109,-2.1109,-2.1109,-2.1109,-2.1109,-2.1109,-2.1109,-2.1109,-2.1109,-2.1109,-2.1109,-2.1109,-2.1109,-2.1109,-2.1109,-2.1109,-2.1109,-2.1109,-2.1109,-2.1109,-2.1109,-2.1109,-1.9221,-1.7731,-1.7017,-1.5334,-1.4362,-1.4362,-1.6113,-1.5784,-1.3325,-1.4036,-1.3128,-1.0721,-1.0721,-1.0721,-2.1744,-2.2561,-2.2924,-2.2998,-2.2828,-2.2585,-2.2292,-2.2408,-2.2552,-2.2475,-2.357,0.0,0.0,0.0,-2.6713,-2.6713,0.0,-2.6134,-2.5428,-2.3827,-2.3129,-2.4311,-2.4006,-2.4631,-2.7082,-2.8289,-2.9825,-3.183,-3.2102,-3.2792,-3.4198,-3.4893,-3.5708,-3.6697,-3.8072,-3.9432,-4.07,-4.2618,-4.2967,-4.1752,-4.2446,-4.0908,-3.7465,-3.7079,-3.6097,-3.4626,-3.3134,-3.2473,-3.2473,-3.2473,-3.2473,-3.2587,-3.3698,-3.408,-3.4136,-3.4581,-3.4414,-3.4136,-3.457,-3.4958,-3.5453,-3.6541,-3.5879,-3.4681,-3.4681,-3.2928,-3.0889,-3.0889,-3.002,-2.8605,-2.653,-2.5138,-2.3745,-2.1601,-2.1109,-2.1229,-2.1664,-2.1418,-2.1235,-2.1727,-2.1418,-2.1109,-2.1109,-2.1109,-2.1109,-2.1109,-2.1109,-2.1109,-2.1109,-2.1109,-2.1109,-2.1109,-2.1109,-2.1109,-2.1109,-2.1109,-2.1109,-2.1109,-1.825,-1.6372,-1.5913,-1.4232,-1.3062,-1.261,-1.4297,-1.4358,-1.2606,-1.3062,-1.2413,-1.0721,-1.0721,-1.0721,-1.9827,-2.0376,-2.0622,-2.0136,-1.9644,-1.948,-2.027,-2.0391,-2.0486,-2.1138,-2.3543,-2.5446,-2.5077,-2.6234,-2.7256,-2.7256,-2.6468,0.0,0.0,-2.2809,-2.241,-2.2907,-2.4154,-2.5572,-2.7166,-2.7325,-2.8512,-3.1204,-3.047,-3.0846,-3.3061,-3.4161,-3.4969,-3.5533,-3.7247,-3.8147,-3.8206,-4.0018,-4.0573,-3.9915,-4.0579,-3.9675,-3.7465,-3.5999,-3.457,-3.3077,-3.1604,-3.0947,-3.0947,-3.0947,-3.0947,-3.1005,-3.0995,-3.1054,-3.1218,-3.2633,-3.2264,-3.1276,-3.2701,-3.4125,-3.5288,-3.5354,-3.4348,-3.318,-3.318,-3.2092,-3.0889,-3.0889,-3.083,-3.0089,-2.6832,-2.5976,-2.513,-2.1839,-2.1109,-2.1538,-2.3146,-2.2223,-2.1601,-2.3201,-2.2215,-2.1109,-2.1109,-2.1109,-2.1109,-2.1109,-2.1109,-2.1109,-2.1109,-2.1109,-2.1109,-2.1109,-2.1109,-2.1109,-2.1109,-2.1109,-2.1109,-2.1109,-1.9413,-1.7667,-1.5978,-1.4232,-1.2479,-1.085,-1.2479,-1.2545,-1.0787,-1.2479,-1.2413,-1.0721,-1.0721,-1.0721,-1.9934,-2.0547,-2.0627,-1.9715,-1.996,-2.0298,-1.9825,-2.0583,-2.1513,-2.2187,-2.4064,-2.5684,-2.6,-2.7016,-2.7708,-2.7379,-2.6468,-2.5241,0.0,-2.1877,-2.0751,-2.0891,-2.2239,-2.3702,-2.5167,-2.6252,-2.7629,-2.9614,-2.9779,-3.0583,-3.2403,-3.3571,-3.46,-3.547,-3.6464,-3.7322,-3.8107,-3.9165,-3.972,-3.9794,-4.0456,-3.9133,-3.6054,-3.5508,-3.3979,-3.1604,-3.1112,-3.0889,-3.0889,-3.0889,-3.0889,-3.0889,-3.0889,-3.0889,-3.0947,-3.1441,-3.1334,-3.0947,-3.1488,-3.2587,-3.3845,-3.3845,-3.3519,-3.3077,-3.3077,-3.2092,-3.0889,-3.0889,-3.0889,-3.0147,-2.6832,-2.5976,-2.5436,-2.3256,-2.2772,-2.3201,-2.4832,-2.477,-2.4525,-2.5077,-2.4709,-2.3977,-2.2952,-2.2772,-2.2404,-2.1299,-2.1109,-2.1109,-2.1109,-2.1109,-2.1109,-2.1109,-2.1109,-2.1109,-2.1109,-2.1109,-2.1109,-2.1109,-1.9483,-1.7731,-1.5978,-1.4232,-1.2479,-1.0721,-1.1306,-1.1306,-1.0721,-1.1306,-1.1306,-1.0721,-1.0721,-1.0721,-1.9041,-1.946,-1.9414,-1.8477,-1.8799,-1.9377,-1.9204,-2.0254,-2.1693,-2.3317,-2.4962,-2.6575,-2.7999,-2.8349,-2.8383,-2.8423,-2.6941,-2.5123,0.0,-2.1631,-2.0642,-2.0643,-2.1511,-2.2837,-2.4652,-2.5501,-2.6855,-2.9075,-2.9026,-2.9779,-3.1813,-3.2993,-3.411,-3.5169,-3.5968,-3.6756,-3.7507,-3.7904,-3.8384,-3.8886,-3.9297,-3.7951,-3.4965,-3.4965,-3.3482,-3.0889,-3.0889,-3.0889,-3.0889,-3.0889,-3.0889,-3.0889,-3.0889,-3.0889,-3.0889,-3.0889,-3.0889,-3.0889,-3.0889,-3.1488,-3.2311,-3.2311,-3.2311,-3.2311,-3.2311,-3.1652,-3.0889,-3.0889,-3.0889,-3.0274,-2.7563,-2.6832,-2.647,-2.484,-2.4479,-2.4901,-2.653,-2.6401,-2.6158,-2.6772,-2.6401,-2.568,-2.4655,-2.4479,-2.3683,-2.1418,-2.1109,-2.1109,-2.1109,-2.1109,-2.1109,-2.1109,-2.1109,-2.1109,-2.1109,-2.1109,-2.1109,-2.1109,-2.0068,-1.8378,-1.5978,-1.4814,-1.3128,-1.0721,-1.0721,-1.0721,-1.0721,-1.0721,-1.1045,-1.1633,-1.1633,-1.196]},{"header":{"parameterUnit":"m.s-1","parameterCategory":1,"la1":30.6,"la2":29.2853,"lo1":-89.7004,"lo2":-87.6739,"dy":0.0162,"dx":0.0183,"nx":112,"ny":82,"refTime":"2024-08-31T00:00:00:Z","depth":0,"parameterNumber":3,"parameterNumberName":"V-component_of_WINDS"},"data":[0.0,0.0,0.0,0.0,0.0,0.0,0.0,0.0,0.0,0.0,0.0,0.0,0.0,0.0,0.0,0.0,0.0,0.0,0.0,0.0,0.0,0.0,0.0,0.0,0.0,0.0,0.0,0.0,0.0,0.0,0.0,0.0,0.0,0.0,0.0,0.0,0.0,0.0,0.0,0.0,0.0,0.0,0.0,0.0,0.0,0.0,0.0,0.0,0.0,0.0,0.0,0.0,0.0,0.0,0.0,0.0,0.0,0.0,0.0,0.0,0.0,0.0,0.0,0.0,0.0,0.0,0.0,0.0,0.0,0.0,0.0,0.0,0.0,0.0,0.0,0.0,0.0,0.0,0.0,0.0,0.0,0.0,0.0,0.0,0.0,0.0,0.0,0.0,0.0,0.0,2.9277,3.2002,3.4443,3.589,3.5975,3.5015,3.3361,3.0956,0.0,0.0,0.0,0.0,0.0,0.0,0.0,0.0,0.0,0.0,0.0,0.0,0.0,0.0,0.0,0.0,0.0,0.0,0.0,0.0,0.0,0.0,0.0,0.0,0.0,0.0,0.0,0.0,0.0,0.0,0.0,0.0,0.0,0.0,0.0,0.0,0.0,0.0,0.0,0.0,0.0,0.0,0.0,0.0,0.0,0.0,0.0,0.0,0.0,0.0,0.0,0.0,0.0,0.0,0.0,0.0,0.0,0.0,0.0,0.0,0.0,0.0,0.0,0.0,0.0,0.0,0.0,0.0,0.0,0.0,0.0,0.0,0.0,0.0,0.0,0.0,0.0,0.0,0.0,0.0,0.0,0.0,0.0,0.0,0.0,0.0,0.0,0.0,0.0,0.0,0.0,0.0,0.0,0.0,0.0,0.0,0.0,0.0,0.0,0.0,0.0,0.0,0.0,0.0,3.0443,3.3749,3.5084,3.5775,3.5908,3.4432,3.2731,3.0901,0.0,0.0,0.0,0.0,0.0,0.0,0.0,0.0,0.0,0.0,0.0,0.0,0.0,0.0,0.0,0.0,0.0,0.0,0.0,0.0,0.0,0.0,0.0,0.0,0.0,0.0,0.0,0.0,0.0,0.0,0.0,0.0,0.0,0.0,0.0,0.0,0.0,0.0,0.0,0.0,0.0,0.0,0.0,0.0,0.0,0.0,0.0,0.0,0.0,0.0,0.0,0.0,0.0,0.0,0.0,0.0,0.0,0.0,0.0,0.0,0.0,0.0,0.0,0.0,0.0,0.0,0.0,0.0,0.0,0.0,0.0,0.0,0.0,0.0,0.0,0.0,0.0,0.0,0.0,0.0,0.0,0.0,0.0,0.0,0.0,0.0,0.0,0.0,0.0,0.0,0.0,0.0,0.0,0.0,0.0,0.0,0.0,0.0,0.0,0.0,0.0,0.0,0.0,2.9736,3.1828,3.4783,3.5424,3.5683,3.5772,3.4235,3.2532,3.0856,2.7784,0.0,0.0,0.0,0.0,0.0,0.0,0.0,0.0,0.0,0.0,0.0,0.0,0.0,0.0,0.0,0.0,0.0,0.0,0.0,0.0,0.0,0.0,0.0,0.0,0.0,0.0,0.0,0.0,0.0,0.0,0.0,0.0,0.0,0.0,0.0,0.0,0.0,0.0,0.0,0.0,0.0,0.0,0.0,0.0,0.0,0.0,0.0,0.0,0.0,0.0,0.0,0.0,0.0,0.0,0.0,0.0,0.0,0.0,0.0,0.0,0.0,0.0,0.0,0.0,0.0,0.0,0.0,0.0,0.0,0.0,0.0,0.0,0.0,0.0,0.0,0.0,0.0,0.0,0.0,0.0,0.0,0.0,0.0,0.0,0.0,0.0,0.0,0.0,0.0,0.0,0.0,0.0,0.0,0.0,0.0,0.0,0.0,0.0,0.0,0.0,0.0,0.0,3.1995,3.3198,3.5345,3.5577,3.5596,3.5663,3.3974,3.2261,3.0796,2.7255,0.0,0.0,0.0,0.0,0.0,0.0,0.0,0.0,0.0,0.0,0.0,0.0,0.0,0.0,0.0,0.0,0.0,0.0,0.0,0.0,0.0,0.0,0.0,0.0,0.0,0.0,0.0,0.0,0.0,0.0,0.0,0.0,0.0,0.0,0.0,0.0,0.0,0.0,0.0,0.0,0.0,0.0,0.0,0.0,0.0,0.0,0.0,0.0,0.0,0.0,0.0,0.0,0.0,0.0,0.0,0.0,0.0,0.0,0.0,0.0,0.0,0.0,0.0,0.0,0.0,0.0,0.0,0.0,0.0,0.0,0.0,0.0,0.0,0.0,0.0,0.0,0.0,0.0,0.0,0.0,0.0,0.0,0.0,0.0,0.0,0.0,0.0,0.0,0.0,0.0,0.0,0.0,0.0,0.0,0.0,0.0,0.0,0.0,0.0,0.0,0.0,0.0,3.2601,3.4411,3.5405,3.552,3.5534,3.5591,3.3394,3.1626,3.0755,2.677,0.0,0.0,0.0,0.0,0.0,0.0,0.0,0.0,0.0,0.0,0.0,0.0,0.0,0.0,0.0,0.0,0.0,0.0,0.0,0.0,0.0,0.0,0.0,0.0,0.0,0.0,0.0,0.0,0.0,0.0,0.0,0.0,0.0,0.0,0.0,0.0,0.0,0.0,0.0,0.0,0.0,0.0,0.0,0.0,0.0,0.0,0.0,0.0,0.0,0.0,0.0,0.0,0.0,0.0,0.0,0.0,0.0,0.0,0.0,0.0,0.0,0.0,0.0,0.0,0.0,0.0,0.0,0.0,0.0,0.0,0.0,0.0,0.0,0.0,0.0,0.0,0.0,0.0,0.0,0.0,0.0,0.0,0.0,0.0,0.0,0.0,0.0,0.0,0.0,0.0,0.0,0.0,0.0,0.0,0.0,0.0,0.0,0.0,0.0,0.0,0.0,0.0,3.2171,3.393,3.5346,3.55,3.5508,3.5534,3.3727,3.2027,3.0712,0.0,0.0,0.0,0.0,0.0,0.0,0.0,0.0,0.0,0.0,0.0,0.0,0.0,0.0,0.0,0.0,0.0,0.0,0.0,0.0,0.0,0.0,0.0,0.0,0.0,0.0,0.0,0.0,0.0,0.0,0.0,0.0,0.0,0.0,0.0,0.0,0.0,0.0,0.0,0.0,0.0,0.0,0.0,0.0,0.0,0.0,0.0,0.0,0.0,0.0,0.0,0.0,0.0,0.0,0.0,0.0,0.0,0.0,0.0,0.0,0.0,0.0,0.0,0.0,0.0,0.0,0.0,0.0,0.0,0.0,0.0,0.0,0.0,0.0,0.0,0.0,0.0,0.0,0.0,0.0,0.0,0.0,0.0,0.0,0.0,0.0,0.0,0.0,0.0,0.0,0.0,0.0,0.0,0.0,0.0,0.0,0.0,0.0,0.0,0.0,0.0,0.0,3.0037,3.2346,3.418,3.5365,3.55,3.55,3.55,3.3743,3.2061,3.0701,0.0,0.0,0.0,0.0,0.0,0.0,0.0,0.0,0.0,0.0,0.0,0.0,0.0,0.0,0.0,0.0,0.0,0.0,0.0,0.0,0.0,0.0,0.0,0.0,0.0,0.0,0.0,0.0,0.0,0.0,0.0,0.0,0.0,0.0,0.0,0.0,0.0,0.0,0.0,0.0,0.0,0.0,0.0,0.0,0.0,0.0,0.0,0.0,0.0,0.0,0.0,0.0,0.0,0.0,0.0,0.0,0.0,0.0,0.0,0.0,0.0,0.0,0.0,0.0,0.0,0.0,0.0,0.0,0.0,0.0,0.0,0.0,0.0,0.0,0.0,0.0,0.0,0.0,0.0,0.0,0.0,0.0,0.0,0.0,0.0,0.0,0.0,0.0,0.0,0.0,0.0,0.0,0.0,0.0,0.0,0.0,0.0,0.0,0.0,0.0,0.0,0.0,3.0221,3.3385,3.55,3.5519,3.55,3.55,3.55,3.3296,3.155,0.0,0.0,0.0,0.0,0.0,0.0,0.0,0.0,0.0,0.0,0.0,0.0,0.0,0.0,0.0,0.0,0.0,0.0,0.0,0.0,0.0,0.0,0.0,0.0,0.0,0.0,0.0,0.0,0.0,0.0,0.0,0.0,0.0,0.0,0.0,0.0,0.0,0.0,0.0,0.0,0.0,0.0,0.0,0.0,0.0,0.0,0.0,0.0,0.0,0.0,0.0,0.0,0.0,0.0,0.0,0.0,0.0,0.0,0.0,0.0,0.0,0.0,0.0,0.0,0.0,0.0,0.0,0.0,0.0,0.0,0.0,0.0,0.0,0.0,0.0,0.0,0.0,0.0,0.0,0.0,0.0,0.0,0.0,0.0,0.0,0.0,0.0,0.0,0.0,0.0,0.0,0.0,0.0,0.0,0.0,0.0,0.0,0.0,0.0,0.0,0.0,0.0,0.0,3.1012,3.3769,3.5712,3.6288,3.5881,3.5566,3.5566,3.3925,3.2259,3.0752,0.0,0.0,0.0,0.0,0.0,0.0,0.0,0.0,0.0,0.0,0.0,0.0,0.0,0.0,0.0,0.0,0.0,0.0,0.0,0.0,0.0,0.0,0.0,0.0,0.0,0.0,0.0,0.0,0.0,0.0,0.0,0.0,0.0,0.0,0.0,0.0,0.0,0.0,0.0,0.0,0.0,0.0,0.0,0.0,0.0,0.0,0.0,0.0,0.0,0.0,0.0,0.0,0.0,0.0,0.0,0.0,0.0,0.0,0.0,0.0,0.0,0.0,0.0,0.0,0.0,0.0,0.0,0.0,0.0,0.0,0.0,0.0,0.0,0.0,0.0,0.0,0.0,0.0,0.0,0.0,0.0,0.0,0.0,0.0,0.0,0.0,0.0,0.0,0.0,0.0,0.0,0.0,0.0,0.0,0.0,0.0,0.0,0.0,0.0,0.0,0.0,0.0,3.1377,3.4192,3.6181,3.6717,3.6389,3.5999,3.5663,3.4202,3.2558,3.0817,0.0,0.0,0.0,0.0,0.0,0.0,0.0,0.0,0.0,0.0,0.0,0.0,0.0,0.0,0.0,0.0,0.0,0.0,0.0,0.0,0.0,0.0,0.0,0.0,0.0,0.0,0.0,0.0,0.0,0.0,0.0,0.0,0.0,0.0,0.0,0.0,0.0,0.0,0.0,0.0,0.0,0.0,0.0,0.0,0.0,0.0,0.0,0.0,0.0,0.0,0.0,0.0,0.0,0.0,0.0,0.0,0.0,0.0,0.0,0.0,0.0,0.0,0.0,0.0,0.0,0.0,0.0,0.0,0.0,0.0,0.0,0.0,0.0,0.0,0.0,0.0,0.0,0.0,0.0,0.0,0.0,0.0,0.0,0.0,0.0,0.0,0.0,0.0,0.0,0.0,0.0,0.0,0.0,0.0,0.0,0.0,0.0,0.0,0.0,0.0,0.0,0.0,3.148,3.4673,3.6806,3.7099,3.6991,3.6629,3.5905,3.4354,3.2682,3.0942,0.0,0.0,0.0,0.0,0.0,0.0,0.0,0.0,0.0,0.0,0.0,0.0,0.0,0.0,0.0,0.0,0.0,0.0,0.0,0.0,0.0,0.0,0.0,0.0,0.0,0.0,0.0,0.0,0.0,0.0,0.0,0.0,0.0,0.0,0.0,0.0,0.0,0.0,0.0,0.0,0.0,0.0,0.0,0.0,0.0,0.0,0.0,0.0,0.0,0.0,0.0,0.0,0.0,0.0,0.0,0.0,0.0,0.0,0.0,0.0,2.7263,2.4835,0.0,0.0,0.0,0.0,0.0,0.0,0.0,0.0,0.0,0.0,0.0,0.0,0.0,0.0,0.0,0.0,0.0,0.0,0.0,0.0,0.0,0.0,0.0,0.0,0.0,0.0,0.0,0.0,0.0,0.0,0.0,0.0,0.0,0.0,0.0,0.0,0.0,0.0,0.0,0.0,3.232,3.5026,3.7256,3.8698,3.7729,3.6949,3.6898,3.5358,3.369,3.199,2.9235,0.0,0.0,0.0,0.0,0.0,0.0,0.0,0.0,0.0,0.0,0.0,0.0,0.0,0.0,0.0,0.0,0.0,0.0,0.0,0.0,0.0,0.0,0.0,0.0,0.0,0.0,0.0,0.0,0.0,0.0,0.0,0.0,0.0,0.0,0.0,0.0,0.0,0.0,0.0,0.0,0.0,0.0,0.0,0.0,0.0,0.0,0.0,0.0,0.0,0.0,0.0,0.0,0.0,0.0,0.0,0.0,0.0,0.0,0.0,3.1288,2.914,0.0,0.0,0.0,0.0,0.0,0.0,0.0,0.0,0.0,0.0,0.0,0.0,0.0,0.0,0.0,0.0,0.0,0.0,0.0,0.0,0.0,0.0,0.0,0.0,0.0,0.0,0.0,0.0,0.0,0.0,0.0,0.0,0.0,0.0,0.0,0.0,0.0,0.0,0.0,0.0,3.3199,3.6103,3.8343,3.9389,3.8754,3.7984,3.7311,3.6073,3.4589,3.2843,3.0276,0.0,0.0,0.0,0.0,0.0,0.0,0.0,0.0,0.0,0.0,0.0,0.0,0.0,0.0,0.0,0.0,0.0,0.0,0.0,0.0,0.0,0.0,0.0,0.0,0.0,0.0,0.0,0.0,0.0,0.0,0.0,0.0,0.0,0.0,0.0,0.0,0.0,0.0,0.0,0.0,0.0,0.0,0.0,0.0,0.0,0.0,0.0,0.0,0.0,0.0,0.0,0.0,0.0,3.6893,3.7029,3.7029,3.7029,3.7463,3.8095,3.6062,3.4667,3.375,3.2452,0.0,0.0,0.0,0.0,0.0,0.0,0.0,0.0,0.0,0.0,0.0,0.0,0.0,0.0,0.0,0.0,0.0,0.0,0.0,0.0,0.0,0.0,3.2726,3.4017,3.4841,3.434,3.0684,0.0,0.0,0.0,0.0,0.0,0.0,0.0,0.0,0.0,0.0,0.0,3.4037,3.7206,3.9366,3.9773,3.968,3.9093,3.7851,3.6816,3.5525,3.3863,3.1489,2.9706,0.0,0.0,0.0,0.0,0.0,0.0,0.0,0.0,0.0,0.0,0.0,0.0,0.0,0.0,0.0,0.0,0.0,0.0,0.0,0.0,0.0,0.0,0.0,0.0,0.0,0.0,0.0,0.0,0.0,0.0,0.0,0.0,2.7821,2.9617,0.0,0.0,0.0,0.0,0.0,0.0,0.0,0.0,0.0,0.0,0.0,0.0,0.0,3.625,3.6588,3.8844,4.0034,4.0153,4.1663,4.2371,4.2371,4.2371,4.2458,4.2556,4.2359,0.0,3.5683,3.6163,0.0,0.0,0.0,0.0,0.0,0.0,0.0,0.0,0.0,0.0,0.0,0.0,0.0,0.0,0.0,0.0,0.0,0.0,0.0,0.0,0.0,0.0,3.9481,3.8909,3.9319,3.9489,3.8178,3.4533,3.1072,2.9529,2.8807,2.7799,0.0,0.0,0.0,0.0,0.0,0.0,3.4721,3.7257,3.9327,4.0511,4.0015,3.958,3.955,3.8066,3.6699,3.5703,3.3807,3.2316,3.1414,2.8947,0.0,0.0,0.0,0.0,0.0,0.0,0.0,0.0,0.0,0.0,0.0,0.0,0.0,0.0,0.0,0.0,0.0,0.0,0.0,0.0,0.0,0.0,0.0,0.0,0.0,0.0,0.0,0.0,0.0,2.7646,3.0304,3.1175,3.1836,3.1686,0.0,0.0,0.0,0.0,0.0,0.0,0.0,0.0,0.0,3.9263,3.9641,4.0704,4.2567,4.3709,4.4492,4.4921,4.5689,4.6044,4.6025,4.5561,4.5383,4.5398,4.5007,4.3367,4.0866,3.9863,3.8007,3.5722,0.0,0.0,0.0,0.0,3.493,3.4846,3.7103,3.7353,3.6645,3.6632,0.0,0.0,0.0,0.0,0.0,0.0,0.0,3.7051,3.8493,3.9879,4.1045,4.169,4.1983,4.2,4.1618,3.9258,3.6334,3.3369,3.3039,3.2043,2.825,2.8389,0.0,0.0,0.0,3.4854,3.5929,3.8479,4.0353,4.0764,4.0486,4.0168,3.9921,3.9199,3.8358,3.7412,3.569,3.4503,3.4004,3.1486,2.9433,0.0,0.0,0.0,0.0,0.0,0.0,0.0,0.0,0.0,0.0,0.0,0.0,0.0,0.0,0.0,0.0,0.0,0.0,0.0,0.0,0.0,0.0,0.0,0.0,0.0,0.0,0.0,0.0,3.039,3.2333,3.2723,3.4055,3.4284,0.0,0.0,0.0,0.0,0.0,0.0,3.8626,3.8981,4.0553,4.3587,4.3646,4.4815,4.7256,4.7276,4.7552,4.8105,4.8105,4.8105,4.8086,4.749,4.7232,4.724,4.6679,4.6182,4.556,4.3111,4.1112,3.9492,3.8679,3.7796,3.716,3.8523,3.8612,3.8451,4.1207,4.161,4.0907,4.082,4.0548,3.9878,3.7851,0.0,0.0,0.0,0.0,3.914,4.1502,4.1968,4.2223,4.3808,4.4036,4.3888,4.3864,4.3195,4.1393,3.7309,3.6858,3.5838,3.1654,3.1442,0.0,3.1178,3.4164,3.6721,3.7393,3.9701,4.1199,4.1014,4.1069,4.0889,4.0273,4.0039,3.9588,3.8831,3.7379,3.6462,3.6316,3.4074,3.2079,3.0511,0.0,0.0,0.0,0.0,0.0,0.0,0.0,0.0,0.0,0.0,0.0,0.0,0.0,0.0,0.0,0.0,0.0,0.0,0.0,0.0,0.0,0.0,0.0,0.0,0.0,0.0,0.0,0.0,0.0,3.5033,3.6034,0.0,0.0,0.0,0.0,3.6812,3.8834,4.108,4.3508,4.4677,4.6104,4.7939,4.7852,4.7874,4.8038,4.8038,4.8057,4.8105,4.8105,4.8105,4.8105,4.8067,4.8029,4.8056,4.8141,4.8236,4.8115,4.5635,4.3676,4.2207,4.2071,4.1412,4.0649,4.1496,4.1774,4.1871,4.2795,4.265,4.231,4.4061,4.3559,4.2089,4.1191,4.0351,0.0,0.0,4.1543,4.2538,4.419,4.4608,4.4809,4.5593,4.5767,4.5759,4.5683,4.5623,4.4596,4.1255,3.9268,3.7721,3.6432,0.0,3.552,3.5485,3.6335,3.7559,3.9168,4.0433,4.1309,4.1525,4.1849,4.1785,4.1191,4.0371,3.9883,3.9824,3.8854,3.8266,3.8261,3.6554,3.5172,3.426,3.0889,0.0,0.0,0.0,0.0,0.0,0.0,0.0,0.0,0.0,0.0,0.0,0.0,0.0,0.0,0.0,0.0,0.0,0.0,0.0,0.0,0.0,0.0,0.0,0.0,0.0,0.0,0.0,0.0,3.671,3.8154,0.0,3.7176,3.8279,3.9497,4.0507,4.2195,4.3819,4.5211,4.6301,4.7403,4.8584,4.9365,5.0029,5.0538,5.1106,5.1375,5.1375,5.0808,5.0538,5.05,4.9433,4.8933,4.8903,4.8497,4.8372,4.8442,4.7644,4.6683,4.5742,4.5623,4.5026,4.4234,4.4446,4.4521,4.456,4.4846,4.4763,4.4663,4.5428,4.534,4.4863,4.457,4.4277,4.4082,4.4394,4.4624,4.4919,4.5488,4.5546,4.5541,4.5936,4.5958,4.5893,4.5872,4.5696,4.5167,4.3857,4.2218,4.0283,3.7969,3.7619,3.7338,3.6384,3.7707,3.9042,3.9661,4.1051,4.2102,4.2394,4.2748,4.2665,4.2031,4.1699,4.1014,3.9831,3.8997,3.8224,3.7534,3.6455,3.5432,3.4513,3.2695,3.0322,0.0,0.0,0.0,0.0,0.0,0.0,0.0,0.0,0.0,0.0,0.0,0.0,0.0,0.0,0.0,0.0,0.0,0.0,0.0,0.0,0.0,0.0,0.0,0.0,0.0,3.5029,3.6548,3.7414,3.9077,3.9813,3.9012,4.0434,4.1894,4.3123,4.456,4.5864,4.6912,4.8047,4.9097,5.0049,5.0891,5.1657,5.2327,5.2965,5.3262,5.3262,5.2726,5.2478,5.244,5.1327,5.0832,5.0774,4.9996,4.9726,4.9823,4.9625,4.9125,4.8437,4.8056,4.7531,4.6965,4.6875,4.6835,4.68,4.6557,4.6468,4.6437,4.6222,4.6225,4.6308,4.6308,4.6268,4.6226,4.6226,4.6142,4.603,4.6001,4.593,4.5864,4.5967,4.5974,4.5948,4.5877,4.5706,4.5472,4.5166,4.3944,4.2299,4.018,3.9867,3.9525,3.8447,3.9364,4.0337,4.0792,4.1832,4.2688,4.3085,4.3552,4.3445,4.248,4.2148,4.1483,4.028,3.9197,3.8413,3.7995,3.6653,3.5639,3.5026,3.352,3.1647,2.9347,0.0,0.0,0.0,0.0,0.0,0.0,0.0,0.0,0.0,0.0,0.0,0.0,0.0,0.0,0.0,0.0,0.0,0.0,0.0,0.0,0.0,0.0,0.0,3.5928,3.6896,3.7506,3.7328,3.883,3.9768,3.9528,4.0818,4.2482,4.4415,4.5796,4.7203,4.8726,5.0089,5.1366,5.2486,5.2596,5.2822,5.3201,5.3378,5.348,5.348,5.3588,5.3638,5.3638,5.3599,5.3599,5.3541,5.2704,5.2415,5.2474,5.1635,5.0882,5.0195,4.9297,4.8842,4.8695,4.8695,4.8695,4.8585,4.7889,4.7637,4.75,4.6641,4.6387,4.6387,4.6387,4.6299,4.6186,4.6186,4.6073,4.5964,4.5905,4.5903,4.591,4.5859,4.5974,4.604,4.5833,4.5848,4.5739,4.5227,4.4391,4.3658,4.3302,4.2741,4.2235,4.1905,4.1362,0.0,4.2598,4.2795,4.3044,4.3597,4.4304,4.4124,4.2616,4.1738,4.123,4.1152,3.9551,3.8965,3.9785,3.7383,3.6035,3.6035,3.3527,3.2173,3.2072,0.0,0.0,0.0,0.0,0.0,0.0,0.0,0.0,0.0,0.0,0.0,0.0,0.0,0.0,0.0,0.0,0.0,0.0,0.0,0.0,0.0,3.706,3.8427,3.7165,3.8242,3.9307,3.9628,4.0544,4.1325,4.1745,4.2728,4.3573,4.4123,4.4922,4.5848,4.6959,4.8556,4.9909,5.0898,5.2586,5.3512,5.3632,5.4679,5.5207,5.5207,5.4762,5.4548,5.4528,5.3891,5.3599,5.3585,5.3451,5.3415,5.3435,5.329,5.2753,5.1875,5.041,4.9373,4.8699,4.8699,4.864,4.8544,4.8422,4.8392,4.8377,4.8221,4.8183,4.8183,4.8183,4.8095,4.7999,4.7999,4.7828,4.7656,4.7736,4.7194,4.6668,4.6772,4.6346,4.5869,4.5813,4.5803,4.579,4.5638,4.5395,4.5015,4.4334,4.3713,4.3271,4.3192,4.2667,4.2559,4.333,4.364,4.4107,4.4835,4.529,4.5219,4.4355,4.3496,4.2186,4.0239,3.9158,3.8397,3.7952,3.7302,3.6912,3.6877,3.5549,3.4514,0.0,0.0,0.0,0.0,0.0,0.0,0.0,0.0,0.0,0.0,0.0,0.0,0.0,0.0,0.0,0.0,0.0,0.0,0.0,0.0,0.0,0.0,4.0621,4.1782,4.1204,4.1128,4.126,4.1503,4.1556,4.1824,4.2496,4.3025,4.3531,4.4106,4.4823,4.5738,4.6864,4.8255,4.9547,5.0687,5.2301,5.3409,5.387,5.5112,5.5827,5.6012,5.5743,5.5616,5.5597,5.5093,5.4858,5.4842,5.4545,5.4437,5.4401,5.412,5.3691,5.3105,0.0,0.0,0.0,0.0,4.9664,4.9552,4.9251,4.9201,4.9196,4.8912,4.8845,4.8906,4.8906,4.8768,4.8623,4.8677,4.8472,4.8244,4.8382,4.7834,4.7304,4.7591,4.6889,4.6173,4.628,4.6048,4.5803,4.5803,4.5803,0.0,4.5225,4.4749,4.4353,4.4221,4.371,4.354,4.414,4.4288,4.4662,4.5407,4.5786,4.5724,4.5058,4.4199,0.0,0.0,0.0,3.8573,3.7294,3.7284,0.0,0.0,0.0,0.0,0.0,3.777,0.0,0.0,3.6333,3.6337,0.0,0.0,0.0,0.0,0.0,0.0,0.0,0.0,0.0,0.0,0.0,0.0,0.0,0.0,0.0,0.0,4.39,4.5377,4.6542,4.4776,4.3262,4.2961,4.2127,4.1901,4.256,4.262,4.309,4.4332,4.5187,4.6244,4.7596,4.8544,0.0,0.0,0.0,5.2831,5.3954,5.5063,5.5885,5.6403,5.6708,5.6816,5.6758,5.6758,5.6699,5.6562,5.5781,5.5449,5.5351,5.4589,5.4197,5.3977,5.3008,5.2086,5.1284,5.1211,5.112,5.095,5.0178,0.0,0.0,4.9226,4.9068,4.918,4.918,4.9007,4.8826,4.8935,4.8677,4.8373,4.8491,4.8144,4.7849,4.8218,4.7459,4.6712,4.7001,4.6501,4.602,4.6061,4.6087,4.6066,4.6051,4.5723,4.5363,4.5059,4.4612,4.4461,4.493,4.484,4.4969,4.5561,4.5887,0.0,4.5174,4.4335,4.3789,4.3711,4.1484,3.9472,3.7929,3.7968,3.8319,3.8981,3.9099,4.0181,4.2286,4.2461,4.2883,4.337,3.9526,3.8568,0.0,0.0,0.0,0.0,0.0,0.0,0.0,0.0,0.0,0.0,0.0,0.0,0.0,0.0,0.0,4.5067,4.6504,4.7671,4.9028,4.7096,4.5091,4.377,4.3198,4.321,4.3868,4.3928,4.4257,4.505,4.5244,4.5814,4.6858,4.7638,4.8556,4.9593,5.1396,5.2809,5.3677,5.5484,5.6813,5.7664,5.8199,0.0,5.7656,5.7656,5.7265,5.6582,5.6426,5.6284,5.6174,5.6018,5.5397,5.4497,5.3706,5.2794,5.1916,5.1788,5.1324,5.078,5.0715,5.0781,5.0871,5.0753,5.0806,5.0918,5.0918,5.0806,0.0,5.0638,5.027,4.9882,4.9917,4.9011,4.8158,4.8337,4.7629,4.7016,4.733,4.7269,4.7289,4.7731,4.7816,4.7624,4.7058,4.6304,4.5779,4.5716,4.5612,4.558,4.5627,4.5594,4.5621,4.5744,4.5819,4.5876,4.5882,4.5088,4.4321,4.373,4.2578,4.1735,4.1356,4.2001,4.2076,4.1438,4.2103,4.2369,4.2132,4.3541,4.4106,4.3856,4.2704,4.272,0.0,0.0,0.0,0.0,0.0,0.0,0.0,0.0,0.0,0.0,0.0,3.8156,4.099,0.0,4.5002,4.8325,4.8881,4.9537,5.1405,4.9528,4.7364,4.5713,4.4495,4.4077,4.4751,4.4811,4.508,4.5753,4.5813,4.6142,4.6969,4.7338,4.7848,4.8413,4.9836,5.122,5.2482,5.4291,5.5911,5.7316,5.8143,5.8494,5.8403,5.8403,5.8168,5.7718,5.7224,5.695,5.6866,5.648,5.5903,5.5262,5.4885,5.3894,5.2643,5.2569,5.2299,5.1895,5.1536,5.1486,5.1534,5.1171,5.1133,5.126,5.126,5.1025,5.0762,5.0797,5.0365,4.992,4.9981,4.9277,4.8617,4.8895,4.8122,4.7443,4.778,4.768,4.76,4.7936,4.8168,4.8199,4.7903,4.748,4.6901,4.6035,4.5899,4.5896,4.585,4.5839,4.5839,4.5839,4.5839,4.5896,4.5988,4.5605,4.5016,4.425,4.3782,4.3336,4.2867,4.3276,4.3467,4.3391,4.3636,4.374,4.3692,4.437,4.4762,4.49,4.4681,4.4821,0.0,0.0,0.0,0.0,0.0,0.0,0.0,3.6523,3.7513,4.0227,4.1361,4.2629,4.501,4.6739,4.8636,5.121,5.1209,5.1485,5.3173,5.1452,4.9498,4.8071,4.6244,4.5273,4.5725,4.5785,4.6003,4.6456,4.6474,4.6741,4.7279,4.7309,4.7395,4.7645,4.8373,4.9547,5.1111,5.289,5.4769,5.6683,5.7844,5.8641,5.9111,5.9111,5.9014,5.8811,5.7973,5.7521,5.7307,5.6634,5.617,5.5857,5.5857,5.4968,5.3664,5.351,5.3356,5.3106,5.2404,5.2133,5.1985,5.1334,5.1127,5.1089,5.1005,5.0683,5.034,5.0341,4.9903,4.9447,4.9524,4.9172,4.8881,4.9187,4.8527,4.7897,4.8266,4.8034,4.785,4.8112,4.8438,4.8667,4.8669,4.8674,4.81,4.6415,4.6095,4.5988,4.5808,4.5723,4.5656,4.5646,4.564,4.5652,4.5667,4.5695,4.5433,4.4787,4.4748,4.4402,4.3685,4.3641,4.3984,4.4678,4.4358,4.4592,4.539,4.5061,4.5267,4.5919,4.5919,4.5961,3.1446,3.3176,3.5557,3.78,3.8332,3.9294,0.0,4.2921,4.2542,4.4613,4.5603,4.6607,4.8206,5.0239,5.1989,5.298,5.3695,5.3921,5.3451,5.1938,5.0759,5.0418,4.8929,4.783,4.7552,4.7509,4.741,4.7216,4.7189,4.7234,4.7309,4.7309,4.7307,4.7347,4.8306,4.9245,5.0144,5.2588,5.4844,5.6968,5.8391,5.9363,5.988,5.988,5.9452,5.8715,5.8474,5.7943,5.7218,5.6995,5.6442,5.5717,5.5717,5.56,5.5318,5.4626,5.3857,5.3203,5.3087,5.2634,5.2082,5.2005,5.1567,5.103,5.0681,5.0537,5.0387,4.9925,4.948,4.9117,4.9027,4.8692,4.8383,4.8421,4.8328,4.8329,4.8749,4.8789,4.8949,4.9695,4.9858,4.9773,4.9374,4.9295,4.8794,4.7276,4.6804,4.6304,4.5475,4.5054,4.4807,4.4747,4.4761,4.4772,4.4841,4.4935,4.4969,4.4872,4.4872,4.478,4.4555,4.4564,4.4565,4.4609,4.4561,4.4947,4.5734,4.5708,4.5904,4.6323,4.6323,4.6525,3.5788,3.7666,3.9427,4.1395,4.2809,4.4086,4.5572,4.5733,4.597,4.7335,4.8206,4.9035,5.0101,5.1743,5.3202,5.3963,5.4729,5.5278,5.5426,5.4056,5.3021,5.2967,5.1956,5.0744,4.9437,4.9308,4.9276,4.911,4.9085,4.8856,4.8225,4.8183,4.7904,4.7309,4.7722,4.8357,4.9283,5.1413,5.3571,5.5795,5.7829,5.927,6.0179,6.0472,6.0068,5.9155,5.9109,5.8605,5.7843,5.7767,5.7102,5.6121,5.6121,5.5651,5.501,5.5159,5.4972,5.4587,5.4126,5.3584,5.3012,5.2532,5.1694,5.0853,5.0673,5.0125,4.9523,4.9296,4.8939,4.8614,4.8568,4.8421,4.821,4.7877,4.8055,4.825,4.8081,4.8476,4.8994,4.9341,4.9787,5.0045,4.9846,5.0006,4.9702,4.8333,4.7587,4.6961,4.6363,4.5733,4.5022,4.4177,4.4079,4.3938,4.3623,4.3968,4.4247,4.4378,4.4383,4.4543,4.4916,4.4934,4.5077,4.541,4.5214,4.5456,4.6151,4.5956,4.619,4.6815,4.6815,4.7143,3.8391,4.0446,4.2045,4.3653,4.572,4.7359,4.7389,4.7822,4.8575,4.9667,5.0168,5.0625,5.1386,5.2399,5.3432,5.4441,5.5238,5.5992,5.6804,5.5705,5.4738,5.4545,5.3783,5.2844,5.1665,5.1063,5.0693,5.0419,5.0397,5.0048,4.9296,4.9256,4.8759,4.7764,4.7722,4.7919,4.8361,4.9942,5.191,5.4186,5.6438,5.8363,5.9958,6.0648,6.0546,5.9858,5.9858,5.9331,5.8429,5.8429,5.7685,5.6521,5.6303,5.5643,5.4871,5.5236,5.5365,5.5279,5.4705,5.411,5.3541,5.2952,5.1849,5.0729,5.0616,4.9851,4.903,4.9104,4.8914,4.8678,4.8671,4.8655,4.8484,4.7811,4.7838,4.7995,4.7715,4.8082,4.8584,4.8846,4.9367,4.98,4.9924,5.0171,5.0027,4.8978,4.8287,4.7632,4.692,4.6098,4.518,4.4169,4.389,4.3611,4.3177,4.354,4.3832,4.3994,4.4011,4.4246,4.4769,4.4805,4.4998,4.5443,4.5406,4.5682,4.6335,4.6268,4.6654,4.7424,4.7424,4.7736,3.7728,3.9973,4.2434,4.3999,4.593,4.7902,4.9528,4.993,5.0371,5.1904,5.1657,5.1403,5.2131,5.2368,5.2898,5.4358,5.5265,5.6061,5.6804,5.6201,5.5387,5.4593,5.381,5.3568,5.4307,5.2794,5.1388,5.0486,5.0397,5.0413,5.0358,5.0358,4.9852,4.8784,4.8743,4.8293,4.7337,4.8361,5.0041,5.2298,5.4122,5.6412,5.908,6.0277,6.0793,6.0762,6.0762,6.0003,5.8768,5.8768,5.8038,5.6815,5.6033,5.5695,5.5569,5.4819,5.4532,5.4532,5.4497,5.3934,5.3205,5.3186,5.213,5.0822,5.0445,4.9819,4.9339,4.9604,4.9676,4.9647,4.9581,4.9555,4.9334,4.8489,4.7838,4.7593,4.8152,4.7838,4.7725,4.8707,4.893,4.9059,4.9445,4.9518,4.9382,4.8975,4.8872,4.8278,4.6645,4.5608,4.5007,4.4969,4.4392,4.3978,4.3978,4.3978,4.3978,4.4014,4.4014,4.3991,4.4026,4.4026,4.4049,4.4071,4.4695,4.542,4.6197,4.6792,4.748,4.8269,4.8269,4.8288,4.0104,4.2175,4.4116,4.6144,4.7516,4.8648,4.9756,5.0017,5.0209,5.074,5.0642,5.0541,5.0777,5.1291,5.2166,5.3643,5.4968,5.6235,5.7455,5.6937,5.6137,5.5341,5.5009,5.4743,5.452,5.3475,5.312,5.3854,5.343,5.2849,5.2206,5.2169,5.1487,4.9931,4.9852,4.9352,4.8293,4.9352,5.0173,5.0781,5.4051,5.6813,5.9029,5.9926,6.0338,6.0338,6.0338,5.9902,5.9157,5.8681,5.7715,5.649,5.5683,5.4836,5.4061,5.3784,5.3388,5.304,5.3572,5.3088,5.2194,5.2194,5.1315,5.0212,5.0097,4.9502,4.9019,4.9554,4.9704,4.9824,5.0275,5.0398,5.0208,4.9474,4.9479,4.9599,4.9356,4.906,4.8957,4.9287,4.9117,4.8947,4.9075,4.9326,4.9356,4.8963,4.8675,4.8108,4.702,4.5884,4.4991,4.447,4.3833,4.3322,4.2918,4.3232,4.3506,4.3615,4.3597,4.3847,4.4379,4.4396,4.4587,4.499,4.5236,4.5886,4.7006,4.7195,4.7624,4.8324,4.8893,4.915,4.1909,4.3754,4.5333,4.7344,4.8363,4.909,4.9875,5.0066,5.0016,4.9763,4.9492,4.9154,4.8612,4.8736,4.9647,5.1919,5.3361,5.4975,5.7261,5.7143,5.662,5.6088,5.5776,5.5528,5.5347,5.4356,5.4169,5.5244,5.5065,5.4565,5.3671,5.3896,5.3194,5.141,5.1373,5.072,4.9376,4.9694,4.9882,5.0019,5.3531,5.6181,5.7967,5.8981,5.9598,5.9855,5.9855,5.9418,5.8725,5.8254,5.7298,5.6066,5.5303,5.448,5.3702,5.344,5.2881,5.2304,5.2799,5.2327,5.149,5.149,5.0787,4.9943,4.9943,4.9423,4.8941,4.9606,4.9995,5.0317,5.0726,5.1044,5.1051,5.0332,5.0299,5.038,5.0195,4.9898,4.9756,4.9993,4.9787,4.949,4.9193,4.912,4.9092,4.9136,4.8661,4.8122,4.759,4.6651,4.5766,4.4997,4.4373,4.3769,4.3179,4.3482,4.374,4.3819,4.3826,4.4062,4.4581,4.4615,4.4786,4.5152,4.5381,4.603,4.7114,4.7603,4.8173,4.8833,4.9658,5.0013,4.3139,4.4688,4.6148,4.7554,4.8463,4.9171,4.9799,4.9917,4.9712,4.8984,4.8223,4.7212,4.5788,4.5043,4.5846,4.9416,5.0787,5.2682,5.6384,5.6884,5.6859,5.6804,5.6161,5.5996,5.6685,5.5468,5.4616,5.4591,5.5256,5.5355,5.4695,5.532,5.4949,5.3277,5.3211,5.2309,5.0573,4.936,4.9171,4.9975,5.2487,5.4454,5.5941,5.7534,5.8651,5.93,5.93,5.8628,5.7561,5.7496,5.6718,5.5563,5.4818,5.4486,5.4363,5.3666,5.2944,5.2285,5.2235,5.1714,5.1034,5.0999,5.05,4.9947,4.9947,4.9521,4.9121,4.9792,5.05,5.1038,5.0969,5.1475,5.1828,5.1114,5.0447,5.0134,5.0751,5.0368,5.0101,5.0678,5.08,5.0563,4.9794,4.8967,4.871,4.9555,4.8948,4.8398,4.8324,4.7756,4.7106,4.6478,4.5815,4.5232,4.4692,4.4654,4.4654,4.4692,4.4692,4.4682,4.4654,4.4654,4.4643,4.4666,4.522,4.5875,4.6645,4.7933,4.896,4.9726,5.0456,5.0817,4.5365,4.6633,4.7396,4.7629,4.8331,4.8728,4.7679,4.7541,4.7428,4.6701,4.55,4.4254,4.3335,4.4401,4.609,4.8144,5.0981,5.3859,5.6521,5.7358,5.7464,5.6877,5.7152,5.7005,5.6073,5.6158,5.5821,5.4678,5.4717,5.4991,5.5402,5.5592,5.5517,5.5056,5.4485,5.3625,5.2413,5.0015,4.8916,4.9106,5.1119,5.2867,5.4443,5.674,5.7888,5.8055,5.8055,5.7689,5.7,5.5832,5.518,5.4818,5.4074,5.3778,5.3721,5.356,5.3,5.2318,5.2287,5.1439,5.0258,4.9692,4.9419,4.9256,4.9256,4.9138,4.9121,4.9792,5.0146,5.0502,5.1514,5.194,5.2168,5.2514,5.2459,5.2229,5.1869,5.1592,5.1338,5.0961,5.0824,5.0729,5.0527,5.0306,5.0233,5.0453,5.0306,4.9719,4.8471,4.7345,4.6594,4.643,4.5459,4.4944,4.5258,4.5267,4.5459,4.5915,4.594,4.5732,4.5294,4.5267,4.5309,4.5415,4.5552,4.6223,4.7415,4.7771,4.8548,4.9704,5.0493,5.1169,4.6853,4.7834,4.8245,4.7736,4.7766,4.7506,4.589,4.5642,4.5261,4.3591,4.2801,4.2016,4.0612,4.1948,4.3956,4.6093,4.9304,5.2554,5.5473,5.683,5.7472,5.7327,5.7721,5.7543,5.6331,5.632,5.5882,5.4682,5.4858,5.5076,5.5215,5.5506,5.5535,5.5232,5.4818,5.3952,5.2584,5.0546,4.9256,4.8825,4.9834,5.1192,5.2869,5.4753,5.6248,5.7255,5.6905,5.6629,5.6286,5.5072,5.4405,5.4074,5.3668,5.3501,5.3501,5.3501,5.3213,5.279,5.2418,5.1758,5.0879,4.983,4.9255,4.9001,4.9001,4.9001,4.9077,4.9462,4.9763,5.0185,5.1025,5.1661,5.2183,5.2621,5.2959,5.3082,5.2662,5.255,5.2407,5.1988,5.1581,5.1444,5.1793,5.1279,5.093,5.1261,5.1041,5.0334,4.9083,4.8019,4.7125,4.6466,4.5545,4.528,4.5962,4.6022,4.6453,4.7439,4.7505,4.7188,4.6551,4.6499,4.6419,4.6206,4.6177,4.6719,4.7803,4.809,4.8783,4.9852,5.0928,5.1642,4.7868,4.8419,4.8576,4.7655,4.693,4.5991,4.4324,4.3901,4.3099,4.0491,4.0324,4.0037,3.8108,3.9123,4.1187,4.3978,4.7,5.0292,5.3947,5.5776,5.7032,5.7774,5.795,5.766,5.6817,5.6104,5.535,5.4513,5.5042,5.5173,5.462,5.5203,5.5262,5.462,5.4479,5.3529,5.1724,5.0703,4.9655,4.8594,4.8743,4.9631,5.1201,5.2502,5.4316,5.6376,5.5808,5.5535,5.5495,5.4757,5.4074,5.3501,5.3501,5.3501,5.3501,5.3501,5.3501,5.3399,5.2706,5.2384,5.2063,5.0574,4.9661,4.9137,4.9035,4.9001,4.9001,4.9001,4.9419,4.9907,5.0056,5.0947,5.188,5.2065,5.2576,5.3042,5.3042,5.3042,5.3082,5.3185,5.2637,5.238,5.3096,5.205,5.1371,5.205,5.1493,5.0714,4.9974,4.9158,4.8115,4.6707,4.6028,4.603,4.6891,4.6891,4.7456,4.8904,4.8933,4.8559,4.7817,4.779,4.752,4.6967,4.6938,4.731,4.8041,4.8615,4.9307,5.0033,5.1249,5.1928,4.8612,4.8349,4.7622,4.6678,4.6009,4.5012,4.2687,4.1464,4.0516,3.942,3.8311,3.7455,3.7066,3.9191,4.1593,4.3335,4.6639,5.0087,5.3269,5.5017,5.6248,5.6993,5.7637,5.7456,5.6031,5.5762,5.5131,5.3766,5.3816,5.4074,5.4558,5.4726,5.4726,5.4589,5.3787,5.2499,5.0665,4.9615,4.8569,4.7566,4.8403,4.8957,4.9377,5.1943,5.3326,5.3781,5.4503,5.4787,5.4726,5.3994,5.3618,5.3501,5.3501,5.3501,5.3501,5.3501,5.3501,5.3484,5.3348,5.2858,5.2063,5.0574,4.9999,4.9796,4.9187,4.9001,4.9001,4.9001,4.9077,4.9316,4.9867,5.0185,5.0645,5.1814,5.2201,5.2294,5.2294,5.2294,5.2468,5.3082,5.3096,5.3041,5.3167,5.2986,5.2839,5.2986,5.2356,5.1596,5.0795,4.9561,4.842,4.7578,4.694,4.7075,4.8348,4.7875,4.8119,4.948,4.9036,4.8414,4.7736,4.7726,4.7722,4.7716,4.7733,4.8088,4.8815,4.8951,4.9325,5.0004,5.0269,5.099,4.8798,4.8289,4.7291,4.6003,4.4911,4.3444,4.0657,3.943,3.843,3.6956,3.64,3.6062,3.5656,3.7736,3.9969,4.1441,4.4163,4.7406,5.1194,5.2727,5.4153,5.6062,5.658,5.6376,5.5232,5.5131,5.4682,5.3584,5.3501,5.3634,5.4027,5.3498,5.296,5.2427,5.1936,5.128,5.0413,4.8676,4.7552,4.71,4.7071,4.7284,4.7901,5.051,5.2204,5.3111,5.3761,5.4249,5.4527,5.3799,5.3501,5.3501,5.3501,5.3501,5.3501,5.3501,5.3501,5.3501,5.3501,5.3247,5.2739,5.1606,5.0727,5.0016,4.9678,4.9306,4.9001,4.9001,4.9001,4.9077,4.9389,4.9751,5.0269,5.1343,5.2131,5.2662,5.2662,5.2662,5.2769,5.3124,5.3185,5.3185,5.3185,5.3185,5.3185,5.3185,5.2576,5.1832,5.1099,5.0098,4.8984,4.7823,4.7153,4.7364,4.8732,4.8526,4.8924,5.0352,5.0122,4.9635,4.8914,4.8886,4.8753,4.8477,4.8477,4.8663,4.9001,4.9001,4.9168,4.9492,4.985,5.0589,4.8578,4.8044,4.6958,4.555,4.3965,4.198,3.9149,3.7853,3.6721,3.4885,3.4709,3.4827,3.4539,3.6096,3.8007,3.9808,4.1813,4.4725,4.9212,5.0697,5.2335,5.5126,5.5592,5.5408,5.4665,5.4589,5.4296,5.3568,5.3298,5.3144,5.3144,5.2348,5.1431,5.0435,4.9922,4.9655,4.9655,4.7319,4.6153,4.6153,4.5647,4.5812,4.6663,4.9242,5.1185,5.2552,5.3213,5.3832,5.4328,5.375,5.3584,5.375,5.375,5.375,5.375,5.375,5.3651,5.3501,5.3501,5.3501,5.3399,5.2756,5.1555,5.0304,5.0135,4.9576,4.9001,4.9001,4.9001,4.9001,4.9001,4.9389,5.0004,5.0876,5.2172,5.3185,5.3185,5.3185,5.3185,5.3185,5.3185,5.3185,5.3185,5.3185,5.3185,5.3185,5.2445,5.171,5.1164,5.0324,4.9315,4.8099,4.7561,4.777,4.9024,4.8992,4.9476,5.0788,5.0716,5.038,4.9792,4.9809,4.9551,4.9001,4.9001,4.9001,4.9001,4.9001,4.9001,4.9001,4.9705,5.0448,4.7817,4.7177,4.6153,4.5378,4.3497,4.123,3.9008,3.7098,3.5549,3.4692,3.3495,3.2987,3.4273,3.5233,3.6755,3.9639,4.1373,4.3972,4.845,5.0381,5.2148,5.4435,5.5291,5.5408,5.4665,5.4589,5.4296,5.3568,5.2592,5.2046,5.2046,5.1957,5.1431,5.0435,4.8312,4.7219,4.7219,4.4958,4.3793,4.3854,4.4918,4.5434,4.5631,4.8895,5.0512,5.0747,5.2679,5.3534,5.3584,5.3534,5.3881,5.4513,5.4513,5.4513,5.4513,5.4513,5.4074,5.3501,5.3501,5.3501,5.3501,5.3416,5.2367,5.098,5.0287,4.9576,4.9001,4.9001,4.9001,4.9001,4.9001,4.9063,4.9419,5.0787,5.2172,5.3185,5.3185,5.3185,5.3185,5.3185,5.3185,5.3185,5.3185,5.3185,5.3185,5.3185,5.2036,5.1164,5.1112,4.9907,4.9026,4.889,4.8829,4.9116,4.9844,4.933,4.9321,5.0044,4.9521,4.9152,4.9107,4.9077,4.9046,4.9001,4.9001,4.9001,4.9001,4.9001,4.9001,4.9018,4.9772,5.0509,4.6786,4.6819,4.6222,4.5555,4.3943,4.1853,3.9279,3.7093,3.538,3.4641,3.3677,3.3271,3.4303,3.5115,3.6293,3.843,3.9276,4.0905,4.4478,4.6285,4.8238,5.0898,5.2267,5.3249,5.3876,5.4339,5.4651,5.4803,5.3767,5.2733,5.1691,5.0644,4.956,4.8584,4.7631,4.6768,4.6005,4.4353,4.3122,4.2363,4.3646,4.4256,4.4382,4.7848,4.9773,5.049,5.1902,5.2904,5.3501,5.3501,5.3929,5.4589,5.4589,5.4878,5.5262,5.5262,5.5072,5.4835,5.4835,5.4835,5.4743,5.4296,5.3433,5.2429,5.1666,5.0591,4.9661,4.9661,4.934,4.9001,4.9001,4.9639,5.0425,5.0955,5.2172,5.3185,5.3185,5.3185,5.3185,5.3185,5.3185,5.3185,5.3185,5.3185,5.3185,5.3185,5.1988,5.1086,5.1086,4.9867,4.9001,4.9001,4.9001,4.9107,4.9389,4.9152,4.9107,4.9389,4.9168,4.9001,4.9001,4.9001,4.9001,4.9001,4.9001,4.9221,4.9661,4.9661,4.9898,5.0338,5.0642,5.114,4.5466,4.6018,4.5696,4.5017,4.3803,4.2019,3.9117,3.6978,3.538,3.4641,3.3728,3.3372,3.432,3.4928,3.5791,3.7313,3.7754,3.8897,4.1869,4.3381,4.5191,4.7917,4.9326,5.0694,5.227,5.3737,5.482,5.5344,5.408,5.2768,5.157,4.9509,4.803,4.7309,4.6931,4.6299,4.5403,4.4116,4.3074,4.2168,4.3456,4.4069,4.4195,4.7679,4.9694,5.0474,5.1776,5.2784,5.3534,5.3717,5.4264,5.4952,5.5208,5.5599,5.6031,5.6031,5.5893,5.5706,5.5706,5.5706,5.5621,5.5084,5.4439,5.3718,5.3156,5.1766,5.0422,5.0422,4.9881,4.9334,4.9294,5.0202,5.1138,5.1343,5.233,5.3185,5.3185,5.3185,5.3185,5.3185,5.3185,5.3185,5.3185,5.3185,5.3185,5.3185,5.2172,5.1317,5.1138,5.0033,4.9212,4.9032,4.9001,4.9001,4.9001,4.9001,4.9001,4.9001,4.9001,4.9001,4.9001,4.9001,4.9103,4.9323,4.9323,4.9695,5.0422,5.0422,5.0693,5.1217,5.1437,5.1944,4.3819,4.4469,4.4167,4.3473,4.2657,4.1267,3.8378,3.6611,3.538,3.4641,3.3343,3.2767,3.4218,3.4506,3.5035,3.6558,3.7353,3.8831,4.1791,4.2791,4.4005,4.6177,4.7011,4.8091,4.9768,5.2772,5.4583,5.46,5.2695,5.1515,5.1499,4.8828,4.7294,4.7309,4.6062,4.5403,4.5403,4.4116,4.3504,4.3504,4.478,4.5403,4.5479,4.8854,5.0397,5.0528,5.2574,5.3501,5.3568,5.4296,5.5012,5.578,5.6563,5.6887,5.6887,5.6887,5.6367,5.5706,5.5706,5.5706,5.5706,5.5678,5.5203,5.4589,5.4572,5.2978,5.12,5.12,5.0659,5.0068,5.0011,5.0527,5.1266,5.1928,5.2662,5.3185,5.3185,5.3185,5.3185,5.3185,5.3185,5.3185,5.3185,5.3185,5.3185,5.3185,5.2576,5.1856,5.1189,5.0445,4.9751,4.9077,4.9001,4.9001,4.9001,4.9001,4.9001,4.9001,4.9001,4.9001,4.9001,4.9001,4.934,5.0067,5.0084,5.0439,5.12,5.12,5.1185,5.1202,5.1961,5.2723,4.0375,4.1459,4.1909,4.0668,4.0165,3.9452,3.7533,3.5919,3.4928,3.5199,3.4083,3.3508,3.4996,3.5245,3.6096,3.865,3.869,3.9103,4.1081,4.2655,4.3886,4.4622,4.7495,5.0112,5.1872,5.2306,5.2967,5.4177,5.2284,5.0865,5.0436,4.8865,4.7773,4.7309,4.6916,4.6299,4.5403,4.5024,4.4349,4.3504,4.478,4.5403,4.5448,4.739,4.906,5.0451,5.1096,5.2186,5.3568,5.4296,5.5042,5.5762,5.6589,5.7209,5.7637,5.7637,5.7498,5.7272,5.7272,5.7272,5.7198,5.6677,5.5994,5.5262,5.4757,5.3369,5.186,5.132,5.0676,5.0204,5.0683,5.0974,5.1266,5.1928,5.2662,5.3185,5.3185,5.3628,5.4014,5.4014,5.4014,5.4014,5.4014,5.3573,5.3185,5.3185,5.2196,5.1343,5.1138,5.005,4.9243,4.9032,4.9001,4.9001,4.9001,4.9001,4.9001,4.9001,4.9001,4.9221,4.9729,4.9746,5.0101,5.0845,5.0862,5.1217,5.1961,5.1961,5.2232,5.279,5.301,5.3264,3.7604,3.8836,3.9309,3.8396,3.8159,3.7794,3.6288,3.4962,3.4218,3.467,3.4027,3.3778,3.4957,3.52,3.6021,3.8449,3.7873,3.7908,4.0144,4.1439,4.2616,4.3905,4.7035,4.9617,5.0886,5.1295,5.1965,5.3035,5.1498,5.0335,4.9916,4.8663,4.7728,4.7309,4.7309,4.6916,4.6107,4.6107,4.5734,4.4918,4.5734,4.6107,4.6166,4.7349,4.8815,5.0397,5.0817,5.1938,0.0,5.4296,5.5042,5.5762,5.6589,5.7351,5.7997,5.7997,5.7997,5.7997,5.7997,5.7997,5.7909,5.7449,5.658,5.5524,5.4482,5.3507,5.2587,5.1843,5.1492,5.1483,5.1911,5.1979,5.2115,5.2793,5.3332,5.3665,5.3665,5.4289,5.484,5.484,5.484,5.484,5.484,5.4436,5.4001,5.3721,5.2708,5.1736,5.12,5.0385,4.9712,4.9438,4.9661,4.9847,4.9847,4.9323,4.912,4.9407,4.9424,4.9746,5.049,5.0524,5.0862,5.1606,5.164,5.1995,5.2756,5.2756,5.301,5.3501,5.3501,5.3501,0.0,3.6309,3.6457,3.6355,3.6406,3.6101,3.468,3.3812,0.0,3.3389,3.3406,3.3639,3.4423,3.4645,3.5181,3.6764,3.5798,3.599,3.928,3.9757,4.095,4.4152,4.5938,4.7174,4.7818,4.9884,5.1239,5.1302,5.0301,4.9713,4.9713,4.8167,4.7309,4.7309,4.7309,4.7309,4.7309,4.7309,4.7309,4.7309,4.7309,4.7309,4.7337,4.8252,4.9271,5.032,5.1266,5.2329,5.3433,5.4183,5.4964,5.5762,5.6589,5.7351,5.7997,5.7997,5.7997,5.7997,5.795,5.7909,5.7909,5.7797,5.6789,5.535,5.3913,5.3501,5.3348,5.2604,5.2929,5.3517,5.3478,5.3435,5.3585,5.4305,5.4491,5.4491,5.4491,5.5115,5.5684,5.5684,5.5684,5.5684,5.5684,5.5629,5.5354,5.4598,5.3814,5.2819,5.1454,5.1239,5.0931,5.0246,5.0794,5.1185,5.1185,4.9949,4.9458,5.0118,5.0168,5.0507,5.1268,5.1302,5.164,5.2367,5.2384,5.2756,5.3501,5.3501,5.3501,5.3501,5.3501,5.3501,2.9174,0.0,3.3089,3.1952,3.251,3.3258,0.0,3.2682,3.2713,3.3288,3.3406,3.3792,3.5017,3.5309,3.6184,3.8752,3.8683,3.9029,4.099,4.2354,4.4018,4.6322,4.6981,4.7551,4.8496,4.8396,4.8622,4.9384,4.8496,4.7905,4.7905,4.7542,4.7309,4.7309,4.7309,4.7309,4.7309,4.7309,4.7309,4.7309,4.7309,4.7309,4.7309,4.7523,4.8225,4.9175,4.9416,5.0573,5.2331,5.3146,5.4354,5.5762,5.6589,5.7351,5.7997,5.7997,5.7997,5.7909,5.7351,5.7159,5.6946,5.578,5.5161,5.4682,5.3783,5.3501,5.3467,5.3281,5.3342,5.3622,5.4102,5.4275,5.4472,5.5147,5.5317,5.5317,5.5317,5.5941,5.6528,5.6528,5.6528,5.6528,5.6528,5.5996,5.5354,5.4598,5.3862,5.304,5.2148,5.1538,5.1121,5.0947,5.1116,5.1185,5.1185,5.0896,5.0777,5.0947,5.0947,5.1285,5.2012,5.2046,5.2418,5.3213,5.323,5.3315,5.3501,5.3501,5.3501,5.3501,5.3501,5.3501,2.6206,2.9108,3.1725,3.0955,3.1773,3.2797,3.2797,3.2293,3.1921,3.2307,3.2933,3.3626,3.4396,3.5131,3.6335,3.8539,3.8696,3.9273,4.1348,4.3201,4.4645,4.5484,4.5539,4.6018,4.7115,4.6755,4.6915,4.8015,4.7609,4.7309,4.7309,4.7309,4.7309,4.7309,4.7309,4.7309,4.7309,4.7309,4.7309,4.7309,4.7309,4.6975,4.6447,4.6447,4.6986,4.7932,4.7932,4.9186,5.1266,5.2198,5.3311,5.4613,5.5857,5.6825,5.754,5.7886,5.7997,5.7886,5.7159,5.6668,5.6177,5.4999,5.4589,5.4451,5.3717,5.3501,5.3501,5.3501,5.3989,5.4589,5.4974,5.5333,5.57,5.6057,5.6143,5.6143,5.6143,5.6785,5.7354,5.7354,5.7354,5.7354,5.7354,5.6987,5.6452,5.5706,5.4643,5.3686,5.2946,5.217,5.1708,5.1708,5.2046,5.2266,5.2266,5.2266,5.2114,5.1742,5.1708,5.2063,5.2824,5.2858,5.3061,5.3501,5.3501,5.3501,5.3501,5.3501,5.3501,5.3501,5.3501,5.3501,2.5226,2.8333,3.1314,3.1073,3.2142,3.323,3.3253,3.2281,3.1412,3.1509,3.2713,3.3722,3.3718,3.4977,3.6476,3.7747,3.8159,3.9194,4.1792,4.343,4.4234,4.3859,4.3646,4.3929,4.5024,4.5298,4.5824,4.6931,4.7207,4.7381,4.7538,4.7538,4.7538,4.7538,4.7694,4.7694,4.7538,4.7381,4.7381,4.7538,4.7381,4.6638,4.5403,4.5403,4.5752,4.6372,4.6372,4.7714,4.9946,5.0978,5.2078,5.3277,5.5009,5.6186,5.6989,5.7726,5.7932,5.7726,5.6843,5.6039,5.5262,5.462,5.4419,5.4328,5.3701,5.3501,5.3501,5.3501,5.4544,5.5706,5.5706,5.6327,5.6987,5.6987,5.6987,5.6987,5.6987,5.7519,5.7997,5.7997,5.7997,5.7997,5.7997,5.7997,5.775,5.7015,5.5669,5.4508,5.3758,5.2987,5.2486,5.2486,5.3095,5.3501,5.3501,5.3501,5.3213,5.2536,5.2486,5.279,5.3467,5.3501,5.3501,5.3501,5.3501,5.3501,5.3501,5.3501,5.3501,5.3501,5.3501,5.3501,2.5901,2.8563,3.0496,2.9124,3.0642,3.2474,3.2531,3.237,3.2376,3.2963,3.4252,3.5222,3.5117,3.6756,3.8355,3.9043,4.098,4.3145,4.5263,4.488,4.4594,4.5044,4.4163,4.3598,4.3787,4.478,4.5494,4.5689,4.6682,4.7679,4.8512,4.8553,4.8553,4.8553,4.9472,4.9512,4.8553,4.7722,4.7722,4.8553,4.7722,4.6638,4.5403,4.5403,4.4904,4.4013,4.4013,4.5306,4.7516,4.8571,5.0628,5.3277,5.5009,5.6186,5.6989,5.7726,5.7613,5.6869,5.5454,5.4468,5.3816,5.3701,5.3668,5.3634,5.3534,5.3501,5.3501,5.3501,5.4544,5.5706,5.5706,5.675,5.7813,5.7813,5.7813,5.7813,5.7813,5.7905,5.7997,5.7997,5.7997,5.7997,5.7997,5.7997,5.775,5.7015,5.6124,5.5243,5.4539,5.3791,5.3315,5.3315,5.3433,5.3501,5.3501,5.3501,5.345,5.3331,5.3315,5.3365,5.3501,5.3501,5.3501,5.3501,5.3501,5.3501,5.3501,5.3501,5.3501,5.3501,5.3501,5.3501,2.5181,2.7512,2.9455,2.9089,3.1563,3.42,3.4636,3.3779,3.3105,3.3846,3.4492,3.5026,3.5354,3.7122,3.9185,4.116,4.3135,4.4578,4.517,4.4471,4.3761,4.3367,4.2217,4.1739,4.2412,4.3646,4.4642,4.5358,4.7073,4.8293,4.88,4.9336,4.9655,4.9655,5.0126,5.0435,5.048,4.8907,4.8335,4.8784,4.7088,4.5584,4.4349,4.3646,4.3026,4.2461,4.2461,4.3873,4.6153,4.7204,4.9213,5.1812,5.3587,5.5098,5.6394,5.757,5.7266,5.6132,5.5437,5.4437,5.3501,5.3501,5.3501,5.3501,5.3501,5.3783,5.4027,5.3618,5.4544,5.5706,5.5706,5.684,5.7997,5.7997,5.7997,5.7997,5.7997,5.7997,5.7997,5.7997,5.7997,5.7997,5.7997,5.7997,5.7886,5.754,5.685,5.6077,5.5291,5.4544,5.3946,5.3517,5.3501,5.3501,5.3501,5.3501,5.3501,5.3501,5.3501,5.3501,5.3501,5.3501,5.3501,5.3501,5.3501,5.3501,5.3501,5.3501,5.3501,5.3501,5.3501,5.3501,2.5393,2.7194,2.9056,3.0214,3.2834,3.5445,3.6684,3.5639,3.4697,3.5782,3.6281,3.6449,3.618,3.7918,4.038,4.3289,4.49,4.5622,4.5127,4.4436,4.3456,4.2217,4.0932,4.0415,4.1082,4.2593,4.3882,4.4872,4.7115,4.8677,4.9135,4.997,5.0512,5.0741,5.0984,5.1357,5.1885,5.011,4.9175,4.9135,4.6593,4.4734,4.3456,4.2168,4.1455,4.1169,4.1169,4.2412,4.4613,4.5947,4.7836,5.0169,5.2276,5.4288,5.6087,5.6884,5.6562,5.5649,5.5291,5.4454,5.3501,5.3501,5.3501,5.3501,5.3501,5.3881,5.42,5.3668,5.4454,5.5495,5.5667,5.684,5.7997,5.7997,5.7997,5.7997,5.7997,5.7997,5.7997,5.7997,5.7997,5.7997,5.7997,5.7997,5.7997,5.7997,5.7376,5.6668,5.6077,5.5161,5.4374,5.3799,5.3618,5.3501,5.3501,5.3501,5.3501,5.3501,5.3501,5.3501,5.3501,5.3501,5.3501,5.3501,5.3501,5.3501,5.3501,5.3501,5.3501,5.3501,5.3501,5.3501,2.8259,2.9084,2.9869,3.2478,3.3373,3.436,3.7182,3.7726,3.8206,4.0057,4.1671,4.1846,3.8841,4.036,4.2779,4.4811,4.6277,4.7131,4.7089,4.6033,4.478,4.3504,4.2217,4.1032,3.9929,4.207,4.3551,4.3646,4.6003,4.824,5.0165,5.0374,5.0817,5.176,5.2749,5.2835,5.1921,5.0817,5.0281,5.0242,4.694,4.4734,4.3456,4.2168,4.0932,3.9839,3.9839,4.0605,4.2057,4.4234,4.6513,4.8927,5.1931,5.4609,5.6642,5.5338,5.5203,5.5495,5.4139,5.3584,5.3501,5.3501,5.3501,5.3501,5.3501,5.3534,5.3568,5.3501,5.4074,5.4848,5.5506,5.684,5.7997,5.7997,5.7997,5.7997,5.7997,5.7997,5.7997,5.7997,5.7997,5.7997,5.7997,5.7997,5.7997,5.7997,5.7376,5.6887,5.6817,5.5512,5.4589,5.4544,5.3913,5.3501,5.3501,5.3501,5.3501,5.3501,5.3501,5.3501,5.3501,5.3501,5.3501,5.3501,5.3501,5.3501,5.3501,5.3501,5.3501,5.3501,5.3501,5.3501,2.7592,2.9362,3.1076,3.2451,3.4182,3.607,3.8133,3.8939,3.9973,4.2597,4.3624,4.3793,4.2903,4.3666,4.4816,4.5993,4.6803,4.7309,4.7309,4.6211,4.4918,4.3646,4.2363,4.1082,3.9839,4.1269,4.2641,4.3456,4.5738,4.803,5.0281,5.1005,5.1813,5.287,5.3298,5.3314,5.2904,5.1849,5.1005,5.0358,4.6226,4.3975,4.3456,4.1369,4.0173,3.9697,3.9697,4.0415,4.1739,4.3407,4.5414,4.79,5.1649,5.4055,5.5454,5.532,5.5173,5.4939,5.4374,5.3881,5.3501,5.3501,5.3501,5.3501,5.3501,5.3832,5.4074,5.3651,5.4359,5.5232,5.5072,5.6159,5.7327,5.7327,5.7679,5.7997,5.7997,5.7997,5.7997,5.7997,5.7997,5.7997,5.7997,5.7997,5.7997,5.7997,5.775,5.7425,5.6964,5.6385,5.5656,5.4713,5.3946,5.3501,5.3501,5.3501,5.3501,5.3501,5.3501,5.3501,5.3501,5.3501,5.3501,5.3501,5.3501,5.3501,5.3501,5.3501,5.3501,5.3501,5.3501,5.3501,2.8322,3.0256,3.2096,3.3148,3.5068,3.7202,3.9132,3.9929,4.1245,4.4691,4.5032,4.5037,4.6076,4.5746,4.5842,4.7332,4.7666,4.7764,4.7764,4.7045,4.5885,4.4303,4.2978,4.169,4.0415,4.1082,4.2119,4.3409,4.5335,4.7422,4.9758,5.0855,5.1902,5.2956,5.3298,5.3501,5.3501,5.2435,5.1541,5.0817,4.6933,4.45,4.3456,4.1269,4.007,3.9697,3.9697,4.0173,4.1119,4.2786,4.5261,4.8322,5.1497,5.3478,5.462,5.4909,5.4818,5.4575,5.431,5.3913,5.3501,5.3501,5.3501,5.3501,5.3501,5.3865,5.4154,5.3634,5.4218,5.4878,5.4374,5.5559,5.6964,5.7184,5.7637,5.7997,5.7997,5.7997,5.7997,5.7997,5.7997,5.7997,5.7997,5.7997,5.7997,5.7997,5.7997,5.7839,5.7309,5.704,5.6385,5.5102,5.4499,5.4106,5.3865,5.3865,5.375,5.3501,5.3501,5.3501,5.3501,5.3501,5.3501,5.3501,5.3501,5.3501,5.3501,5.3501,5.3501,5.3501,5.3501,5.3501,3.1163,3.2103,3.292,3.5075,3.6082,3.728,4.0155,4.0875,4.2141,4.6449,4.6228,4.5891,4.7917,4.6306,4.5681,4.8898,4.9064,4.8784,4.8825,4.8825,4.7966,4.5705,4.4303,4.3026,4.1739,4.1604,4.2119,4.3409,4.4688,4.6388,4.8661,4.9813,5.0855,5.1885,5.2939,5.3501,5.3501,5.247,5.1905,5.1869,4.9638,4.6787,4.349,4.2217,4.0932,3.9749,3.9749,3.9697,3.989,4.2461,4.6226,5.0512,5.1504,5.2977,5.4513,5.3783,5.3962,5.4482,5.375,5.3501,5.3501,5.3501,5.3501,5.3501,5.3501,5.3501,5.3501,5.3501,5.3501,5.3501,5.3501,5.5184,5.7065,5.7797,5.7997,5.7997,5.7997,5.7997,5.7997,5.7997,5.7997,5.7997,5.7997,5.7997,5.7997,5.7997,5.7997,5.7997,5.7997,5.7351,5.6571,5.5808,5.5706,5.5408,5.4665,5.4589,5.4296,5.3568,5.3501,5.3501,5.3501,5.3501,5.3501,5.3501,5.3501,5.3501,5.3534,5.3534,5.3534,5.3501,5.3501,5.3501,3.0855,3.2386,3.4121,3.5192,3.7118,3.9051,4.0259,4.2181,4.4802,4.8685,4.8733,4.8285,4.8872,4.7815,4.7349,4.904,4.904,4.9054,4.9813,4.9931,4.9057,4.6721,4.6138,4.4733,4.1874,4.1604,4.2119,4.3409,4.3834,4.5438,4.8646,4.911,5.0071,5.1832,5.2205,5.2749,5.3501,5.3697,5.3446,5.2722,5.2069,4.9696,4.5858,4.457,4.2924,4.1032,4.1032,4.0554,3.989,4.2461,4.6226,5.0451,5.0741,5.2084,5.3799,5.3584,5.3651,5.3799,5.3584,5.3501,5.3501,5.3501,5.3501,5.3501,5.3501,5.3501,5.3501,5.3501,5.3501,5.3618,5.4139,5.5161,5.6114,5.6331,5.7223,5.7997,5.7997,5.7997,5.7997,5.7997,5.7997,5.7997,5.7997,5.7997,5.7997,5.7997,5.7997,5.7997,5.7997,5.7351,5.6817,5.6571,5.6049,5.5621,5.5408,5.4909,5.4743,5.5029,5.4544,5.4042,5.3534,5.3501,5.375,5.4264,5.4264,5.4513,5.5059,5.5059,5.4774,5.4264,5.4264,5.3994,3.2808,3.4223,3.568,3.7141,3.8733,4.0317,4.1648,4.3907,4.6152,4.7716,4.8435,4.8897,4.907,4.8074,4.7965,5.0,4.984,4.9813,5.0855,5.1021,5.0179,4.7928,4.7207,4.5888,4.3333,4.2641,4.2882,4.4163,4.4256,4.5436,4.8042,4.8594,4.936,5.0633,5.1451,5.2189,5.287,5.4006,5.4287,5.3705,5.3992,5.2453,4.9261,4.6856,4.4738,4.289,4.1995,4.1455,4.1319,4.2882,4.5991,4.9813,5.0242,5.141,5.2904,5.3348,5.3501,5.3501,5.3501,5.3501,5.3501,5.3501,5.3501,5.3501,5.3501,5.3501,5.3501,5.3501,5.3501,5.3618,5.4059,5.4713,5.5408,5.6049,5.7123,5.7997,5.7997,5.7997,5.7997,5.7997,5.7997,5.7997,5.7997,5.7997,5.7997,5.7997,5.7997,5.7997,5.7997,5.7613,5.7351,5.7351,5.6884,5.6483,5.6186,5.577,5.557,5.5678,5.5291,5.4848,5.4391,5.4359,5.4575,5.5042,5.5042,5.5262,5.5706,5.5706,5.5466,5.5042,5.5042,5.4805,3.5696,3.6571,3.7156,3.9903,4.0608,4.1199,4.3569,4.5434,4.6284,4.488,4.6432,4.8164,4.8593,4.7552,4.7762,5.1202,5.1021,5.0795,5.1885,5.2046,5.1303,4.932,4.7969,4.6764,4.5631,4.4396,4.4163,4.5298,4.5403,4.5973,4.7207,4.8183,4.8718,4.8784,5.0725,5.1813,5.1921,5.3775,5.4695,5.4695,5.5466,5.4949,5.3177,4.9245,4.6615,4.5043,4.2773,4.2509,4.3693,4.3693,4.5678,4.8907,4.997,5.1005,5.2029,5.311,5.3501,5.3501,5.3501,5.3501,5.3501,5.3501,5.3501,5.3501,5.3501,5.3501,5.3501,5.3501,5.3501,5.3501,5.3501,5.4059,5.4969,5.6438,5.7358,5.7909,5.7997,5.7997,5.7997,5.7997,5.7997,5.7997,5.7997,5.7997,5.7997,5.7997,5.7997,5.7997,5.7997,5.7997,5.7997,5.7997,5.7997,5.7726,5.704,5.6938,5.6616,5.5931,5.5865,5.5819,5.592,5.5762,5.5734,5.5808,5.5808,5.5819,5.5903,5.5903,5.5875,5.5808,5.5808,5.5762,3.397,3.4886,3.6342,3.9146,4.0897,4.2132,4.268,4.3856,4.5045,4.5741,4.6731,4.7501,4.7591,4.7367,4.793,5.0349,5.055,5.1059,5.2921,5.3144,5.2679,5.1377,5.0294,4.8848,4.6793,4.5618,4.5115,4.5403,4.5403,4.5973,4.7207,4.7495,4.7988,4.88,5.0032,5.108,5.1885,5.4281,5.5448,5.5466,5.6259,5.6114,5.5068,5.2809,4.985,4.6371,4.4065,4.3834,4.4978,4.4978,4.6491,4.8907,4.997,5.1005,5.2029,5.311,5.3501,5.3501,5.3501,5.3501,5.3501,5.3501,5.3501,5.3501,5.3501,5.3501,5.3501,5.3501,5.3501,5.3501,5.3501,5.4059,5.4818,5.5752,5.6571,5.7302,5.7886,5.7997,5.7997,5.7997,5.7997,5.7997,5.7997,5.7997,5.7997,5.7997,5.7997,5.7997,5.7997,5.7997,5.7997,5.7997,5.7997,5.795,5.7774,5.7234,5.7065,5.748,5.6971,5.692,5.748,5.6331,5.6022,5.6642,5.6642,5.6946,5.7504,5.7504,5.7216,5.6642,5.6642,5.6313,3.4693,3.5954,3.7512,4.0355,4.1761,4.2494,4.2787,4.3601,4.4511,4.5214,4.6142,4.6644,4.6122,4.6708,4.7807,4.9392,5.0048,5.0946,5.2522,5.3195,5.311,5.2029,5.1431,5.0256,4.8026,4.7342,4.6841,4.6344,4.6299,4.6594,4.7251,4.7309,4.7538,4.8072,4.9069,5.0126,5.1155,5.336,5.4696,5.5173,5.5966,5.5938,5.5114,5.3312,5.0451,4.6834,4.5636,4.5242,4.5403,4.5403,4.6724,4.8907,4.997,5.1005,5.2029,5.311,5.3501,5.3501,5.3501,5.3501,5.3501,5.3501,5.3501,5.3501,5.3501,5.3501,5.3501,5.3501,5.3501,5.3501,5.3501,5.4059,5.4787,5.5506,5.6313,5.7091,5.7839,5.7997,5.7997,5.7997,5.7997,5.7997,5.7997,5.7997,5.7997,5.7997,5.7997,5.7997,5.7997,5.7997,5.7997,5.7997,5.7997,5.7997,5.7997,5.7637,5.7589,5.7973,5.7637,5.7589,5.7973,5.7223,5.7004,5.7425,5.7425,5.7613,5.7997,5.7997,5.7797,5.7425,5.7425,5.7216,3.5225,3.7195,3.9121,4.1862,4.2576,4.2762,4.3265,4.3738,4.4056,4.3879,4.4894,4.5602,4.4851,4.5887,4.7242,4.8409,4.9615,5.0741,5.176,5.2818,5.3179,5.2277,5.1993,5.1155,4.9256,4.8907,4.8361,4.7381,4.7121,4.6975,4.6975,4.6975,4.6975,4.6975,4.8153,4.9296,5.0397,5.2204,5.3591,5.462,5.5203,5.5173,5.4527,5.2719,5.0291,4.7489,4.7292,4.665,4.5734,4.5929,4.7115,4.8907,5.0165,5.1155,5.2029,5.311,5.3501,5.3501,5.3501,5.3501,5.3501,5.3501,5.3501,5.3501,5.3501,5.3501,5.3501,5.3501,5.3501,5.3501,5.3501,5.4059,5.4787,5.5506,5.6313,5.7091,5.7839,5.7997,5.7997,5.7997,5.7997,5.7997,5.7997,5.7997,5.7997,5.7997,5.7997,5.7997,5.7997,5.7997,5.7997,5.7997,5.7997,5.7997,5.7997,5.7997,5.7997,5.7997,5.7997,5.7997,5.7997,5.7997,5.7997,5.7997,5.7997,5.7997,5.7997,5.7997,5.8024,5.8119,5.8119,5.8146,3.182,3.5251,3.9201,4.1454,4.2766,4.3562,4.3639,4.3539,4.3154,4.2146,4.3023,4.4238,4.506,4.5066,4.5621,4.7619,4.93,5.0741,5.176,5.2818,5.3467,5.3298,5.247,5.1467,5.0281,4.9336,4.8361,4.7381,4.6299,4.5644,4.5644,4.5644,4.5644,4.5644,4.7713,4.9296,5.0397,5.2204,5.3591,5.4589,5.4695,5.4713,5.4527,5.2719,5.1176,4.9883,4.8942,4.7985,4.7091,4.7969,4.8522,4.8973,5.0951,5.176,5.2029,5.311,5.3501,5.3501,5.3501,5.3501,5.3501,5.3501,5.3501,5.3501,5.3501,5.3501,5.3501,5.3501,5.3501,5.3501,5.3501,5.4059,5.4787,5.5506,5.6313,5.7091,5.7839,5.7997,5.7997,5.7997,5.7997,5.7997,5.7997,5.7997,5.7997,5.7997,5.7997,5.7997,5.7997,5.7997,5.7997,5.7997,5.7997,5.7997,5.7997,5.7997,5.7997,5.7997,5.7997,5.7997,5.7997,5.7997,5.7997,5.7997,5.7997,5.7997,5.7997,5.7997,5.8213,5.8611,5.8611,5.8815,3.3594,3.642,3.9067,4.1323,4.192,4.2022,4.2345,4.2605,4.2658,4.2138,4.2274,4.2764,4.3648,4.4476,4.53,4.6243,4.7818,4.9305,5.0353,5.171,5.2835,5.3433,5.3059,5.217,5.0566,4.997,4.9044,4.7424,4.6107,4.5403,4.5403,4.4734,4.4642,4.5403,4.6388,4.774,4.9496,5.0307,5.1507,5.3078,5.3078,5.3078,5.3045,5.1674,5.0817,5.032,4.9256,4.8225,4.7381,4.8377,4.9135,4.9852,5.1303,5.2277,5.287,5.3348,5.3501,5.3501,5.3501,5.3501,5.3501,5.3501,5.3501,5.3501,5.3501,5.3501,5.3501,5.3501,5.3501,5.3584,5.4027,5.4651,5.5408,5.6204,5.6971,5.7613,5.7932,5.7997,5.7997,5.7997,5.7997,5.7997,5.7997,5.7997,5.7997,5.7997,5.7997,5.7997,5.7997,5.7997,5.7997,5.7997,5.7997,5.7997,5.7997,5.7997,5.7997,5.7997,5.7997,5.7997,5.7997,5.7997,5.7997,5.7997,5.7997,5.8142,5.8397,5.8397,5.8632,5.9103,5.9103,5.9194,3.4464,3.6487,3.7902,4.0518,4.0769,4.0585,4.1357,4.1708,4.1991,4.2336,4.184,4.1627,4.2611,4.3784,4.473,4.4994,4.6473,4.7856,4.8637,5.0262,5.1744,5.2706,5.3045,5.2548,5.0951,5.055,4.9631,4.7807,4.627,4.5403,4.5403,4.4503,4.4396,4.5358,4.5734,4.6798,4.8784,4.9069,4.9993,5.1504,5.1504,5.1504,5.1504,5.0474,4.9821,4.9497,4.8998,4.8225,4.7381,4.8377,4.9416,5.0512,5.1504,5.2557,5.3501,5.3501,5.3501,5.3501,5.3501,5.3501,5.3501,5.3501,5.3651,5.375,5.3568,5.3634,5.375,5.3551,5.3501,5.3668,5.4405,5.5161,5.5893,5.6695,5.7449,5.7997,5.7997,5.7997,5.7997,5.7997,5.7997,5.7997,5.7997,5.7997,5.7997,5.7997,5.7997,5.7997,5.7997,5.7997,5.7997,5.7997,5.7997,5.7997,5.7997,5.7997,5.7997,5.7997,5.7997,5.7997,5.7997,5.7997,5.7997,5.7997,5.8119,5.8351,5.8694,5.8815,5.9121,5.9578,5.9578,5.9644,3.1585,3.3378,3.5029,3.8328,3.9504,4.0196,4.1548,4.1148,4.0846,4.2141,4.1488,4.1195,4.2961,4.2999,4.3117,4.4184,4.5825,4.6975,4.7014,4.8695,5.0179,5.096,5.1832,5.2236,5.1855,5.0968,4.9931,4.8784,4.6652,4.5403,4.5403,4.5358,4.5358,4.5403,4.6594,4.7706,4.8784,4.9813,5.0358,5.049,5.049,5.049,5.0435,4.9376,4.8239,4.7149,4.8295,4.8225,4.7381,4.8377,4.9416,5.0512,5.1504,5.2557,5.3501,5.3501,5.3501,5.3501,5.3501,5.3501,5.3501,5.3501,5.3962,5.4405,5.3717,5.3994,5.4405,5.3701,5.3501,5.3668,5.4405,5.5161,5.5893,5.6695,5.7449,5.7997,5.7997,5.7997,5.7997,5.7997,5.7997,5.7997,5.7997,5.7997,5.7997,5.7997,5.7997,5.7997,5.7997,5.7997,5.7997,5.7997,5.7997,5.7997,5.7997,5.7997,5.7997,5.7997,5.7997,5.7997,5.7997,5.7997,5.7997,5.7997,5.8439,5.8693,5.8694,5.9158,5.9592,6.0055,6.0055,6.0311,3.0375,3.2213,3.4071,3.5646,3.6872,3.7824,3.8313,3.9102,3.9705,3.9484,3.9774,4.0078,4.0051,4.1103,4.2322,4.3458,4.4534,4.5486,4.616,4.723,4.8512,5.0007,5.0488,5.0821,5.1182,5.0874,5.015,4.8901,4.7297,4.6079,4.5434,4.4642,4.4549,4.5358,4.507,4.5027,4.5409,4.7222,4.8131,4.8173,4.8992,4.9376,4.9296,4.7443,4.6359,4.5931,4.5558,4.5647,4.6151,4.7169,4.8306,4.9536,5.1229,5.2117,5.247,5.247,5.2904,5.3382,5.2714,5.2904,5.3501,5.3501,5.3668,5.3832,5.3584,5.3701,5.3832,5.3584,5.3501,5.3783,5.4982,5.5506,5.6031,5.729,5.7815,5.7997,5.7997,5.7997,5.7997,5.7997,5.7997,5.7997,5.7997,5.7997,5.7997,5.7997,5.7997,5.7997,5.7997,5.7997,5.7997,5.7997,5.7997,5.7997,5.7997,5.7997,5.7997,5.7997,5.7997,5.7997,5.7997,5.7997,5.7997,5.7997,5.8755,5.9158,5.9158,5.9628,6.0103,6.0553,6.0553,6.0634,2.9068,3.0781,3.2682,3.4082,3.4613,3.5205,3.6892,3.7293,3.7399,3.7725,3.7934,3.8108,3.8186,3.9381,4.0861,4.2235,4.3299,4.4198,4.494,4.5696,4.6765,4.83,4.9057,4.9699,5.0389,5.0455,5.0066,4.9186,4.7988,4.6974,4.6209,4.5388,4.5055,4.5389,4.4595,4.3929,4.3504,4.5003,4.577,4.577,4.7055,4.767,4.7628,4.6506,4.5584,4.4734,4.3882,4.421,4.5434,4.6123,4.734,4.8988,5.0725,5.1614,5.1921,5.1921,5.2592,5.3348,5.2277,5.2592,5.3501,5.3501,5.3668,5.3832,5.3584,5.3668,5.3799,5.3551,5.3501,5.3832,5.532,5.6069,5.6737,5.7774,5.7997,5.7997,5.7997,5.7997,5.7997,5.7997,5.7997,5.7997,5.7997,5.7997,5.7997,5.7997,5.7997,5.7997,5.7997,5.7997,5.7997,5.7997,5.7997,5.7997,5.7997,5.7997,5.7997,5.7997,5.7997,5.7997,5.7997,5.7997,5.7997,5.7997,5.8932,5.9389,5.9389,6.0025,6.0495,6.08,6.08,6.08,0.0,0.0,0.0,3.3611,3.2827,3.2666,3.7498,3.5716,3.3921,3.7006,3.6024,3.5314,3.7579,3.7979,3.8559,4.0412,4.2132,4.3275,4.329,4.4143,4.5044,4.5772,4.75,4.894,4.9682,4.9714,4.9712,4.9694,4.8743,4.8032,4.7725,4.7707,4.6974,4.5465,4.5358,4.4734,4.3456,4.3456,4.3456,4.3456,4.478,4.5403,4.5448,4.6682,4.5869,4.3551,4.3504,4.421,4.5403,4.5358,4.6681,4.8866,4.997,5.1021,5.1849,5.1885,5.2592,5.3348,5.2277,5.2592,5.3501,5.3501,5.3994,5.4419,5.3734,5.3994,5.4437,5.3684,5.3501,5.3832,5.532,5.684,5.7997,5.7997,5.7997,5.7997,5.7997,5.7997,5.7997,5.7997,5.7997,5.7997,5.7997,5.7997,5.7997,5.7997,5.7997,5.7997,5.7997,5.7997,5.7997,5.7997,5.7997,5.7997,5.7997,5.7997,5.7997,5.7997,5.7997,5.7997,5.7997,5.7997,5.7997,5.7997,5.8913,5.9391,5.9389,6.0338,6.08,6.08,6.08,6.08,2.7156,0.0,0.0,0.0,0.0,0.0,3.3187,3.2659,3.2274,3.3668,3.3037,3.2579,3.3654,3.548,3.7144,3.8039,4.0712,4.2791,4.323,4.3551,4.4065,4.4984,4.6171,4.7468,4.8873,4.9609,4.9909,4.9714,4.9433,4.8877,4.8038,4.7824,4.6974,4.5465,4.4503,4.3409,4.2119,4.2119,4.2119,4.2168,4.4349,4.5403,4.5403,4.5779,4.5539,4.4826,4.3882,4.421,4.5358,4.4396,4.5496,4.7876,4.971,5.055,5.0892,5.1614,5.2592,5.3348,5.2277,5.2592,5.3501,5.3501,5.3651,5.3783,5.3551,5.3634,5.375,5.3568,5.3501,5.3832,5.532,5.684,5.7997,5.7997,5.7997,5.7997,5.7997,5.7997,5.7997,5.7997,5.7997,5.7997,5.7997,5.7997,5.7997,5.7997,5.7997,5.7997,5.7997,5.7997,5.7997,5.7997,5.7997,5.7997,5.7997,5.7997,5.7997,5.7997,5.7997,5.7997,5.7997,5.7997,5.7997,5.7997,5.8591,5.9065,5.9389,6.0338,6.08,6.08,6.08,6.08,2.8202,2.897,3.0213,3.0321,0.0,0.0,3.2463,3.1796,3.1139,3.2256,3.1806,3.1314,3.1792,3.3874,3.5834,3.6706,3.9281,4.1549,4.2761,4.2925,4.325,4.4074,4.5379,4.658,4.7572,4.8859,4.9575,4.941,4.941,4.8921,4.7785,4.7731,4.6853,4.503,4.4037,4.2882,4.1604,4.1082,4.0794,4.0844,4.3409,4.4595,4.4642,4.5734,4.5928,4.5358,4.4642,4.4688,4.5358,4.4595,4.5494,4.7452,4.9085,5.0009,5.0397,5.0573,5.1541,5.2679,5.1631,5.1974,5.2921,5.3348,5.3501,5.3501,5.3501,5.3501,5.3501,5.3501,5.3946,5.4606,5.5466,5.684,5.7997,5.7997,5.7997,5.7997,5.7997,5.7997,5.7997,5.7997,5.7997,5.7997,5.7997,5.7997,5.7997,5.7997,5.7997,5.7997,5.7997,5.7997,5.7997,5.7997,5.7997,5.7997,5.7997,5.7997,5.7997,5.7997,5.7997,5.7997,5.7997,5.7997,5.7997,5.7997,5.8442,5.9028,5.9693,6.0236,6.061,6.08,6.08,6.08,3.0351,3.0019,0.0,3.2741,3.1456,0.0,3.3448,3.1898,3.0265,3.1783,3.129,3.0712,3.1209,3.2913,3.4673,3.593,3.7897,3.9993,4.2006,4.2291,4.2539,4.3148,4.4913,4.6131,4.6236,4.79,4.897,4.8861,4.875,4.8199,4.7068,4.7372,4.6678,4.4689,4.404,4.3122,4.1838,4.0554,3.9929,3.9929,4.2363,4.3551,4.3787,4.6211,4.6682,4.5584,4.5584,4.5584,4.5584,4.5584,4.6299,4.7424,4.8418,4.9376,5.0126,4.9296,5.0149,5.1614,5.0703,5.0968,5.1885,5.2835,5.323,5.3298,5.3298,5.3433,5.3501,5.3501,5.4544,5.5706,5.5706,5.684,5.7997,5.7997,5.7997,5.7997,5.7997,5.7997,5.7997,5.7997,5.7997,5.7997,5.7997,5.7997,5.7997,5.7997,5.7997,5.7997,5.7997,5.7997,5.7997,5.7997,5.7997,5.7997,5.7997,5.7997,5.7997,5.7997,5.7997,5.7997,5.7997,5.7997,5.7997,5.7997,5.8442,5.914,6.0025,6.0069,6.0338,6.08,6.08,6.08,3.3356,3.3322,3.328,3.2159,3.1839,0.0,3.0773,2.9622,2.8915,2.9633,2.8699,2.8383,3.0312,3.2125,3.3591,3.4284,3.6749,3.929,4.1332,4.1617,4.1897,4.2717,4.4343,4.5685,4.6355,4.7987,4.8688,4.7933,4.7155,4.6513,4.6031,4.6571,4.658,4.5964,4.5356,4.4396,4.3122,4.1887,4.1219,4.1269,4.2786,4.4022,4.507,4.6594,4.7164,4.6931,4.6931,4.6931,4.6931,4.6931,4.7062,4.7424,4.8418,4.8948,4.9175,4.9852,5.0358,5.0665,5.0474,5.0512,5.0741,5.0946,5.1557,5.2189,5.2189,5.2835,5.3501,5.3501,5.4544,5.5706,5.5706,5.684,5.7997,5.7997,5.7997,5.7997,5.7997,5.7997,5.7997,5.7997,5.7997,5.7997,5.7997,5.7997,5.7997,5.7997,5.7997,5.7997,5.7997,5.7997,5.7997,5.7997,5.7997,5.7997,5.7997,5.7997,5.7997,5.7997,5.7997,5.7997,5.7997,5.7997,5.7997,5.7997,5.8442,5.8971,5.9545,5.9916,6.0338,6.08,6.08,6.08,3.5856,3.5243,3.4857,3.3857,3.3297,0.0,0.0,3.0694,3.0129,3.0939,2.9729,2.8954,3.03,3.1664,3.2813,3.3398,3.5707,3.7898,3.9215,4.0634,4.1836,4.2628,4.4243,4.5473,4.5927,4.6751,4.7036,4.6466,4.6295,4.5905,4.5315,4.5835,4.6073,4.5825,4.4597,4.3808,4.349,4.1604,4.0982,4.1604,4.2882,4.4163,4.5448,4.6726,4.7309,4.7352,4.7834,4.8072,4.8072,4.8072,4.8072,4.8072,4.8072,4.8377,4.8784,4.8856,4.9166,4.9615,4.9615,4.9615,4.9694,5.0242,5.0741,5.1245,5.176,5.2627,5.3501,5.3501,5.4544,5.5706,5.5706,5.684,5.7997,5.7997,5.7997,5.7997,5.7997,5.7997,5.7997,5.7997,5.7997,5.7997,5.7997,5.7997,5.7997,5.7997,5.7997,5.7997,5.7997,5.7997,5.7997,5.7997,5.7997,5.7997,5.7997,5.7997,5.7997,5.7997,5.7997,5.8097,5.8329,5.8351,5.8351,5.8351,5.8351,5.8694,5.9389,5.9644,6.0118,6.08,6.08,6.08,3.8111,3.6993,3.6425,3.5878,3.5081,3.4181,0.0,0.0,0.0,3.2666,3.1427,3.0332,3.0732,3.1343,3.2014,3.268,3.4661,3.6289,3.6782,3.9333,4.1408,4.2093,4.3702,4.484,4.4971,4.4734,4.4643,4.4724,4.4941,4.4856,4.4386,4.501,4.5325,4.5121,4.3567,4.2847,4.3144,4.0997,4.0525,4.1812,4.2972,4.4303,4.5824,4.7017,4.7566,4.7651,4.8692,4.911,4.911,4.911,4.911,4.8988,4.7764,4.7919,4.8702,4.7876,4.8225,4.9069,4.8866,4.8784,4.8907,4.9575,5.0048,5.0589,5.1578,5.2627,5.3501,5.3501,5.4468,5.5506,5.5649,5.6737,5.7821,5.7973,5.7997,5.7997,5.7997,5.7997,5.7997,5.7997,5.7997,5.7997,5.7997,5.7997,5.7997,5.7997,5.7997,5.7997,5.7997,5.7997,5.7997,5.7997,5.7997,5.7997,5.7997,5.7997,5.7997,5.7997,5.7997,5.8213,5.8674,5.8795,5.8835,5.8835,5.8354,5.8591,5.9526,5.9441,5.9885,6.08,6.08,6.08,4.015,3.9675,3.898,3.6427,3.6565,3.6345,3.2652,0.0,3.3039,3.1985,0.0,3.074,3.1359,0.0,0.0,3.1574,3.3393,3.4753,3.4816,3.7318,3.9415,4.0131,4.1618,4.2828,4.3487,4.2205,4.1831,4.2985,4.1821,4.152,4.2634,4.3828,4.4453,4.4421,4.3774,4.2972,4.1902,4.109,4.1296,4.2563,4.3194,4.478,4.7106,4.8168,4.8636,4.8677,4.9773,5.0204,5.0204,5.0204,5.0204,5.0009,4.8072,4.7919,4.8784,4.8677,4.9296,5.0087,4.915,4.8784,4.8677,4.7919,4.8897,5.0589,5.1578,5.2627,5.3501,5.3501,5.4074,5.4878,5.5535,5.6367,5.7184,5.7821,5.7997,5.7997,5.7997,5.7997,5.7997,5.7997,5.7997,5.7997,5.7997,5.7997,5.7997,5.7997,5.7997,5.7997,5.7997,5.7997,5.7997,5.7997,5.7997,5.7997,5.7997,5.7997,5.7997,5.7997,5.7997,5.8213,5.8674,5.9103,5.9319,5.9319,5.8855,5.9084,6.0025,5.9611,5.9885,6.08,6.08,6.08,4.0565,4.0415,4.0137,3.7582,3.7454,3.7227,3.4536,3.3755,3.3662,3.3876,0.0,0.0,0.0,0.0,0.0,0.0,3.3184,3.4345,3.3917,3.5645,3.7519,3.9072,4.0282,4.0918,4.0699,4.0024,3.9781,4.0228,3.9992,4.0412,4.1767,4.271,4.3539,4.4287,4.3378,4.2505,4.1694,4.1004,4.1346,4.2699,4.3261,4.5135,4.8168,4.8594,4.9135,4.9773,5.0817,5.1266,5.1266,5.1266,5.1266,5.1117,4.9671,4.9352,4.9734,4.9734,5.0009,5.0336,4.9891,4.9734,4.9536,4.8527,4.9191,5.0474,5.0892,5.2186,5.3501,5.3501,5.4009,5.4757,5.5524,5.6286,5.7083,5.7821,5.7997,5.7997,5.7997,5.7997,5.7997,5.7997,5.7997,5.7997,5.7997,5.7997,5.7997,5.7997,5.7997,5.7997,5.7997,5.7997,5.7997,5.7997,5.7997,5.7997,5.7997,5.7997,5.7997,5.7997,5.8505,5.8913,5.9103,5.9561,5.9823,5.9823,5.9356,5.9424,6.0103,5.9901,6.0146,6.08,6.08,6.08,4.1438,4.1445,4.1356,3.8656,3.8371,3.8152,3.6024,3.5259,3.5144,3.5794,3.4375,0.0,0.0,0.0,3.1765,3.1765,0.0,3.4058,3.3516,3.4507,3.5958,3.7705,3.8983,3.9514,3.8857,3.823,3.7918,3.8102,3.8257,3.908,4.0756,4.1677,4.265,4.3733,4.275,4.201,4.1689,4.0976,4.1402,4.2954,4.3477,4.5533,4.8825,4.9094,4.9797,5.0855,5.1885,5.2348,5.2348,5.2348,5.2348,5.2277,5.1521,5.1245,5.1208,5.0908,5.1021,5.1208,5.0892,5.0627,5.0281,4.9496,4.9954,5.0817,5.0817,5.2062,5.3501,5.3501,5.3881,5.4513,5.5466,5.6132,5.6799,5.7774,5.7997,5.7932,5.775,5.7862,5.795,5.7726,5.7862,5.7997,5.7997,5.7997,5.7997,5.7997,5.7997,5.7997,5.7997,5.7997,5.7997,5.7997,5.7997,5.7997,5.7997,5.7997,5.7997,5.7997,5.8775,5.9285,5.9389,5.9855,6.0161,6.0297,5.9839,5.9804,6.0278,6.0161,6.0338,6.08,6.08,6.08,4.3507,4.3448,4.3115,3.9412,3.9507,3.961,3.6195,3.6977,3.8126,3.6983,3.669,3.6426,3.573,3.3882,3.2482,3.2482,3.3052,0.0,0.0,3.4136,3.4841,3.5613,3.7551,3.8818,3.8798,3.6927,3.6167,3.7353,3.6312,3.6761,3.9313,4.0711,4.1767,4.244,4.1916,4.163,4.1603,4.099,4.1649,4.356,4.4091,4.5943,4.8825,4.9891,5.0892,5.1921,5.299,5.3467,5.3467,5.3467,5.3467,5.3433,5.3416,5.3382,5.3264,5.2224,5.2522,5.323,5.2205,5.1192,5.0397,5.0374,5.1043,5.1832,5.1832,5.2627,5.3501,5.3501,5.3534,5.3865,5.532,5.5706,5.6114,5.7642,5.7997,5.7797,5.7109,5.7516,5.7774,5.7065,5.7498,5.7997,5.7997,5.7997,5.7997,5.7997,5.7997,5.7997,5.7997,5.7997,5.7997,5.7997,5.7997,5.7997,5.7997,5.7997,5.7997,5.7997,5.8442,5.8932,5.9372,5.9855,6.0324,6.0757,6.0324,6.0311,6.0788,6.0324,6.0338,6.08,6.08,6.08,4.4124,4.4316,4.4236,4.1449,4.081,4.0162,3.7482,3.7518,3.7736,3.6295,3.6444,3.6426,3.5137,3.3964,3.3021,3.2557,3.3052,3.3044,0.0,3.2055,3.3048,3.4682,3.5504,3.598,3.6025,3.5316,3.5048,3.5449,3.5489,3.6447,3.8616,4.0008,4.1235,4.2366,4.2599,4.2371,4.1587,4.1725,4.2409,4.3618,4.415,4.6328,4.9852,5.0242,5.1336,5.299,5.3348,5.3501,5.3501,5.3501,5.3501,5.3501,5.3501,5.3501,5.3467,5.311,5.3195,5.3467,5.3059,5.2277,5.1377,5.1377,5.1614,5.1921,5.1921,5.2627,5.3501,5.3501,5.3501,5.3832,5.532,5.5706,5.5976,5.7022,5.7259,5.7065,5.6268,5.6295,5.6403,5.6159,5.6322,5.6659,5.7166,5.7259,5.7425,5.7927,5.7997,5.7997,5.7997,5.7997,5.7997,5.7997,5.7997,5.7997,5.7997,5.7997,5.7997,5.7997,5.8439,5.8913,5.9372,5.9855,6.0324,6.08,6.0634,6.0634,6.08,6.0634,6.0634,6.08,6.08,6.08,4.5407,4.5569,4.5462,4.3398,4.2599,4.1672,3.9266,3.922,3.9136,3.7134,3.7183,3.7086,3.5676,3.4544,3.3601,3.2769,3.3122,3.2889,0.0,3.1181,3.1937,3.3277,3.4093,3.475,3.5289,3.4462,3.4141,3.4805,3.4592,3.5489,3.7913,3.932,4.0651,4.2006,4.2865,4.2941,4.2208,4.2561,4.31,4.3856,4.4223,4.6346,5.0051,5.0051,5.1312,5.3501,5.3501,5.3501,5.3501,5.3501,5.3501,5.3501,5.3501,5.3501,5.3501,5.3501,5.3501,5.3501,5.3501,5.3059,5.247,5.247,5.247,5.247,5.247,5.2939,5.3501,5.3501,5.3501,5.3783,5.4982,5.532,5.5495,5.6286,5.6465,5.6259,5.5466,5.5506,5.5621,5.535,5.5506,5.5865,5.6367,5.6465,5.6825,5.7862,5.7997,5.7997,5.7997,5.7997,5.7997,5.7997,5.7997,5.7997,5.7997,5.7997,5.7997,5.7997,5.8282,5.8735,5.9372,5.9693,6.0146,6.08,6.08,6.08,6.08,6.08,6.0702,6.0553,6.0553,6.0469]}]]